Time,TemperatureF,DewpointF,PressureIn,WindDirection,WindDirectionDegrees,WindSpeedMPH,WindSpeedGustMPH,Humidity,HourlyPrecipIn,Conditions,Clouds,dailyrainin,SoftwareType,DateUTC
2013-03-26 00:00:00,18.7,12.4,29.03,NNW,338,4.0,4.0,76,0.00,,---,0.00,VWS V14.01,2013-03-26 05:00:00,
2013-03-26 00:01:00,18.7,12.7,29.03,NNW,338,6.3,6.3,77,0.00,,---,0.00,VWS V14.01,2013-03-26 05:01:00,
2013-03-26 00:02:00,18.7,12.7,29.03,NNW,338,4.0,6.3,77,0.00,,---,0.00,VWS V14.01,2013-03-26 05:02:00,
2013-03-26 00:03:00,18.7,12.7,29.03,NNW,338,3.4,4.3,77,0.00,,---,0.00,VWS V14.01,2013-03-26 05:03:00,
2013-03-26 00:04:00,18.7,12.7,29.03,North,0,3.6,3.8,77,0.00,,---,0.00,VWS V14.01,2013-03-26 05:04:00,
2013-03-26 00:05:00,18.5,12.5,29.03,NNW,338,3.6,3.8,77,0.00,,---,0.00,VWS V14.01,2013-03-26 05:05:00,
2013-03-26 00:06:00,18.5,12.5,29.03,NNW,338,3.8,3.8,77,0.00,,---,0.00,VWS V14.01,2013-03-26 05:06:00,
2013-03-26 00:07:00,18.5,12.5,29.03,NNW,338,4.3,4.3,77,0.00,,---,0.00,VWS V14.01,2013-03-26 05:07:00,
2013-03-26 00:08:00,18.3,12.3,29.03,NW,315,4.0,4.3,77,0.00,,---,0.00,VWS V14.01,2013-03-26 05:08:00,
2013-03-26 00:09:00,18.3,12.3,29.03,NNW,338,3.6,5.4,77,0.00,,---,0.00,VWS V14.01,2013-03-26 05:09:00,
2013-03-26 00:10:00,18.3,12.3,29.03,NNW,338,3.4,3.4,77,0.00,,---,0.00,VWS V14.01,2013-03-26 05:10:00,
2013-03-26 00:11:00,18.3,12.3,29.03,NNW,338,4.3,4.3,77,0.00,,---,0.00,VWS V14.01,2013-03-26 05:11:00,
2013-03-26 00:12:00,18.3,12.3,29.03,NNW,338,6.3,6.3,77,0.00,,---,0.00,VWS V14.01,2013-03-26 05:12:00,
2013-03-26 00:13:00,18.3,12.3,29.03,NNW,338,4.3,6.3,77,0.00,,---,0.00,VWS V14.01,2013-03-26 05:13:00,
2013-03-26 00:14:00,18.1,12.2,29.03,NNW,338,2.9,4.3,77,0.00,,---,0.00,VWS V14.01,2013-03-26 05:14:00,
2013-03-26 00:15:00,18.1,12.2,29.03,NNW,338,4.0,4.0,77,0.00,,---,0.00,VWS V14.01,2013-03-26 05:15:00,
2013-03-26 00:16:00,18.1,12.2,29.03,NNW,338,3.6,4.0,77,0.00,,---,0.00,VWS V14.01,2013-03-26 05:16:00,
2013-03-26 00:17:00,18.1,11.9,29.03,NNW,338,3.4,3.8,76,0.00,,---,0.00,VWS V14.01,2013-03-26 05:17:00,
2013-03-26 00:18:00,18.1,11.9,29.03,NNW,338,2.9,3.4,76,0.00,,---,0.00,VWS V14.01,2013-03-26 05:18:00,
2013-03-26 00:19:00,18.1,11.9,29.03,NNW,338,3.6,4.0,76,0.00,,---,0.00,VWS V14.01,2013-03-26 05:19:00,
2013-03-26 00:20:00,18.1,12.2,29.03,NNW,338,6.0,6.0,77,0.00,,---,0.00,VWS V14.01,2013-03-26 05:20:00,
2013-03-26 00:21:00,18.1,12.2,29.03,NNW,338,5.6,6.0,77,0.00,,---,0.00,VWS V14.01,2013-03-26 05:21:00,
2013-03-26 00:22:00,18.1,12.2,29.03,NNW,338,3.6,5.6,77,0.00,,---,0.00,VWS V14.01,2013-03-26 05:22:00,
2013-03-26 00:23:00,18.1,12.2,29.03,North,0,5.4,6.3,77,0.00,,---,0.00,VWS V14.01,2013-03-26 05:23:00,
2013-03-26 00:25:00,18.1,12.2,29.03,NNW,338,4.0,5.6,77,0.00,,---,0.00,VWS V14.01,2013-03-26 05:25:00,
2013-03-26 00:26:00,18.1,12.2,29.03,NNW,338,3.4,5.6,77,0.00,,---,0.00,VWS V14.01,2013-03-26 05:26:00,
2013-03-26 00:27:00,18.1,12.2,29.03,NNW,338,4.5,6.3,77,0.00,,---,0.00,VWS V14.01,2013-03-26 05:27:00,
2013-03-26 00:28:00,18.1,12.2,29.03,NNW,338,4.3,5.6,77,0.00,,---,0.00,VWS V14.01,2013-03-26 05:28:00,
2013-03-26 00:29:00,18.1,12.2,29.03,North,0,3.8,4.3,77,0.00,,---,0.00,VWS V14.01,2013-03-26 05:29:00,
2013-03-26 00:30:00,18.1,12.2,29.03,NNW,338,4.7,4.7,77,0.00,,---,0.00,VWS V14.01,2013-03-26 05:30:00,
2013-03-26 00:31:00,18.1,12.2,29.03,NNW,338,3.6,4.7,77,0.00,,---,0.00,VWS V14.01,2013-03-26 05:31:00,
2013-03-26 00:32:00,18.1,12.2,29.03,NNW,338,3.6,4.0,77,0.00,,---,0.00,VWS V14.01,2013-03-26 05:32:00,
2013-03-26 00:33:00,18.1,12.2,29.03,NNW,338,3.8,3.8,77,0.00,,---,0.00,VWS V14.01,2013-03-26 05:33:00,
2013-03-26 00:34:00,18.1,12.2,29.03,NNW,338,2.9,5.8,77,0.00,,---,0.00,VWS V14.01,2013-03-26 05:34:00,
2013-03-26 00:35:00,18.1,12.2,29.03,NNW,338,4.3,4.3,77,0.00,,---,0.00,VWS V14.01,2013-03-26 05:35:00,
2013-03-26 00:36:00,18.1,12.2,29.03,NNW,338,4.0,4.3,77,0.00,,---,0.00,VWS V14.01,2013-03-26 05:36:00,
2013-03-26 00:37:00,18.1,12.2,29.03,NW,315,3.6,4.0,77,0.00,,---,0.00,VWS V14.01,2013-03-26 05:37:00,
2013-03-26 00:38:00,18.0,12.0,29.03,NNW,338,4.3,4.3,77,0.00,,---,0.00,VWS V14.01,2013-03-26 05:38:00,
2013-03-26 00:39:00,18.0,12.0,29.03,NW,315,3.6,4.3,77,0.00,,---,0.00,VWS V14.01,2013-03-26 05:39:00,
2013-03-26 00:40:00,17.8,11.5,29.03,NNW,338,3.1,3.1,76,0.00,,---,0.00,VWS V14.01,2013-03-26 05:40:00,
2013-03-26 00:41:00,17.8,11.5,29.03,NNW,338,4.7,4.7,76,0.00,,---,0.00,VWS V14.01,2013-03-26 05:41:00,
2013-03-26 00:42:00,17.8,11.5,29.03,NNW,338,3.6,4.7,76,0.00,,---,0.00,VWS V14.01,2013-03-26 05:42:00,
2013-03-26 00:43:00,17.8,11.5,29.03,NNW,338,3.6,4.9,76,0.00,,---,0.00,VWS V14.01,2013-03-26 05:43:00,
2013-03-26 00:44:00,17.8,11.5,29.03,NNW,338,3.4,4.3,76,0.00,,---,0.00,VWS V14.01,2013-03-26 05:44:00,
2013-03-26 00:45:00,17.8,11.5,29.03,NNW,338,3.1,3.1,76,0.00,,---,0.00,VWS V14.01,2013-03-26 05:45:00,
2013-03-26 00:46:00,17.8,11.5,29.03,NNW,338,3.1,3.1,76,0.00,,---,0.00,VWS V14.01,2013-03-26 05:46:00,
2013-03-26 00:47:00,17.6,11.6,29.03,NW,315,3.8,4.5,77,0.00,,---,0.00,VWS V14.01,2013-03-26 05:47:00,
2013-03-26 00:48:00,17.6,11.6,29.03,NW,315,3.6,3.8,77,0.00,,---,0.00,VWS V14.01,2013-03-26 05:48:00,
2013-03-26 00:49:00,17.6,11.6,29.03,NNW,338,4.0,4.0,77,0.00,,---,0.00,VWS V14.01,2013-03-26 05:49:00,
2013-03-26 00:50:00,17.8,11.5,29.03,NNW,338,5.6,5.6,76,0.00,,---,0.00,VWS V14.01,2013-03-26 05:50:00,
2013-03-26 00:51:00,17.8,11.5,29.03,NNW,338,3.8,5.6,76,0.00,,---,0.00,VWS V14.01,2013-03-26 05:51:00,
2013-03-26 00:52:00,17.6,11.6,29.03,NNW,338,4.7,5.4,77,0.00,,---,0.00,VWS V14.01,2013-03-26 05:52:00,
2013-03-26 00:53:00,17.6,11.6,29.03,NNW,338,3.4,4.7,77,0.00,,---,0.00,VWS V14.01,2013-03-26 05:53:00,
2013-03-26 00:54:00,17.6,11.6,29.03,NNW,338,2.9,3.4,77,0.00,,---,0.00,VWS V14.01,2013-03-26 05:54:00,
2013-03-26 00:55:00,17.6,11.6,29.03,NNW,338,3.8,4.3,77,0.00,,---,0.00,VWS V14.01,2013-03-26 05:55:00,
2013-03-26 00:56:00,17.6,11.6,29.03,NNW,338,4.0,4.3,77,0.00,,---,0.00,VWS V14.01,2013-03-26 05:56:00,
2013-03-26 00:57:00,17.6,11.6,29.03,NNW,338,4.3,4.3,77,0.00,,---,0.00,VWS V14.01,2013-03-26 05:57:00,
2013-03-26 00:58:00,17.6,11.6,29.03,NNW,338,3.8,4.3,77,0.00,,---,0.00,VWS V14.01,2013-03-26 05:58:00,
2013-03-26 00:59:00,17.4,11.5,29.03,NW,315,4.0,4.0,77,0.00,,---,0.00,VWS V14.01,2013-03-26 05:59:00,
2013-03-26 01:00:00,17.4,11.5,29.03,NNW,338,3.4,3.8,77,0.00,,---,0.00,VWS V14.01,2013-03-26 06:00:00,
2013-03-26 01:01:00,17.4,11.2,29.03,NW,315,4.3,4.3,76,0.00,,---,0.00,VWS V14.01,2013-03-26 06:01:00,
2013-03-26 01:02:00,17.4,11.2,29.03,NNW,338,5.4,5.4,76,0.00,,---,0.00,VWS V14.01,2013-03-26 06:02:00,
2013-03-26 01:03:00,17.2,11.0,29.03,NNW,338,3.8,5.4,76,0.00,,---,0.00,VWS V14.01,2013-03-26 06:03:00,
2013-03-26 01:04:00,17.2,11.0,29.03,NW,315,3.6,4.9,76,0.00,,---,0.00,VWS V14.01,2013-03-26 06:04:00,
2013-03-26 01:05:00,17.1,10.8,29.03,NNW,338,6.3,6.3,76,0.00,,---,0.00,VWS V14.01,2013-03-26 06:05:00,
2013-03-26 01:06:00,17.1,10.8,29.03,NNW,338,3.1,6.3,76,0.00,,---,0.00,VWS V14.01,2013-03-26 06:06:00,
2013-03-26 01:07:00,17.1,10.8,29.03,NNW,338,3.4,3.6,76,0.00,,---,0.00,VWS V14.01,2013-03-26 06:07:00,
2013-03-26 01:08:00,17.1,10.8,29.03,NW,315,5.4,5.4,76,0.00,,---,0.00,VWS V14.01,2013-03-26 06:08:00,
2013-03-26 01:09:00,17.1,10.8,29.03,NNW,338,3.6,5.4,76,0.00,,---,0.00,VWS V14.01,2013-03-26 06:09:00,
2013-03-26 01:10:00,16.9,10.6,29.03,NNW,338,3.4,3.4,76,0.00,,---,0.00,VWS V14.01,2013-03-26 06:10:00,
2013-03-26 01:11:00,16.9,10.6,29.03,WNW,292,2.7,3.4,76,0.00,,---,0.00,VWS V14.01,2013-03-26 06:11:00,
2013-03-26 01:12:00,16.9,10.6,29.03,NNW,338,4.0,4.0,76,0.00,,---,0.00,VWS V14.01,2013-03-26 06:12:00,
2013-03-26 01:13:00,16.9,10.6,29.03,NNW,338,4.0,4.0,76,0.00,,---,0.00,VWS V14.01,2013-03-26 06:13:00,
2013-03-26 01:14:00,16.9,10.6,29.03,NNW,338,4.3,4.9,76,0.00,,---,0.00,VWS V14.01,2013-03-26 06:14:00,
2013-03-26 01:15:00,16.9,10.6,29.03,NNW,338,3.4,4.3,76,0.00,,---,0.00,VWS V14.01,2013-03-26 06:15:00,
2013-03-26 01:16:00,16.7,10.5,29.03,NNW,338,3.4,4.3,76,0.00,,---,0.00,VWS V14.01,2013-03-26 06:16:00,
2013-03-26 01:17:00,16.7,10.5,29.03,NW,315,3.4,3.6,76,0.00,,---,0.00,VWS V14.01,2013-03-26 06:17:00,
2013-03-26 01:18:00,16.7,10.5,29.03,NW,315,3.4,4.0,76,0.00,,---,0.00,VWS V14.01,2013-03-26 06:18:00,
2013-03-26 01:19:00,16.7,10.5,29.03,NW,315,4.9,4.9,76,0.00,,---,0.00,VWS V14.01,2013-03-26 06:19:00,
2013-03-26 01:20:00,16.7,10.5,29.03,NW,315,3.6,4.3,76,0.00,,---,0.00,VWS V14.01,2013-03-26 06:20:00,
2013-03-26 01:21:00,16.7,10.5,29.03,NNW,338,2.9,4.3,76,0.00,,---,0.00,VWS V14.01,2013-03-26 06:21:00,
2013-03-26 01:22:00,16.5,10.3,29.03,NNW,338,3.1,3.1,76,0.00,,---,0.00,VWS V14.01,2013-03-26 06:22:00,
2013-03-26 01:23:00,16.5,10.3,29.03,NNW,338,3.1,3.1,76,0.00,,---,0.00,VWS V14.01,2013-03-26 06:23:00,
2013-03-26 01:24:00,16.5,10.3,29.00,NNW,338,3.8,3.8,76,0.00,,---,0.00,VWS V14.01,2013-03-26 06:24:00,
2013-03-26 01:25:00,16.5,10.3,29.00,North,0,2.7,3.4,76,0.00,,---,0.00,VWS V14.01,2013-03-26 06:25:00,
2013-03-26 01:26:00,16.5,10.3,29.00,NNW,338,3.6,3.6,76,0.00,,---,0.00,VWS V14.01,2013-03-26 06:26:00,
2013-03-26 01:27:00,16.3,9.8,29.00,NW,315,3.6,3.8,75,0.00,,---,0.00,VWS V14.01,2013-03-26 06:27:00,
2013-03-26 01:28:00,16.3,9.8,29.00,NNW,338,3.4,3.6,75,0.00,,---,0.00,VWS V14.01,2013-03-26 06:28:00,
2013-03-26 01:29:00,16.2,9.6,29.00,NNW,338,2.7,3.4,75,0.00,,---,0.00,VWS V14.01,2013-03-26 06:29:00,
2013-03-26 01:30:00,16.2,9.6,29.00,NNW,338,3.4,3.4,75,0.00,,---,0.00,VWS V14.01,2013-03-26 06:30:00,
2013-03-26 01:31:00,16.2,9.6,29.00,NNW,338,3.1,3.4,75,0.00,,---,0.00,VWS V14.01,2013-03-26 06:31:00,
2013-03-26 01:32:00,16.2,9.6,29.00,NNW,338,3.6,3.6,75,0.00,,---,0.00,VWS V14.01,2013-03-26 06:32:00,
2013-03-26 01:33:00,16.2,9.6,29.00,NNW,338,3.4,3.6,75,0.00,,---,0.00,VWS V14.01,2013-03-26 06:33:00,
2013-03-26 01:34:00,16.2,9.9,29.00,NNW,338,3.1,3.6,76,0.00,,---,0.00,VWS V14.01,2013-03-26 06:34:00,
2013-03-26 01:35:00,16.0,9.8,29.00,NNW,338,3.8,3.8,76,0.00,,---,0.00,VWS V14.01,2013-03-26 06:35:00,
2013-03-26 01:36:00,16.0,9.8,29.00,NW,315,2.9,3.8,76,0.00,,---,0.00,VWS V14.01,2013-03-26 06:36:00,
2013-03-26 01:37:00,16.0,9.8,29.00,NNW,338,3.1,3.1,76,0.00,,---,0.00,VWS V14.01,2013-03-26 06:37:00,
2013-03-26 01:38:00,16.0,9.8,29.00,NNW,338,3.4,5.6,76,0.00,,---,0.00,VWS V14.01,2013-03-26 06:38:00,
2013-03-26 01:39:00,16.0,9.8,29.03,NNW,338,3.8,4.0,76,0.00,,---,0.00,VWS V14.01,2013-03-26 06:39:00,
2013-03-26 01:40:00,16.0,9.8,29.03,NNW,338,4.0,4.0,76,0.00,,---,0.00,VWS V14.01,2013-03-26 06:40:00,
2013-03-26 01:41:00,16.0,9.8,29.03,NNW,338,2.7,4.0,76,0.00,,---,0.00,VWS V14.01,2013-03-26 06:41:00,
2013-03-26 01:42:00,16.0,9.8,29.03,NNW,338,3.8,3.8,76,0.00,,---,0.00,VWS V14.01,2013-03-26 06:42:00,
2013-03-26 01:43:00,16.0,9.8,29.03,NNW,338,3.6,5.4,76,0.00,,---,0.00,VWS V14.01,2013-03-26 06:43:00,
2013-03-26 01:45:00,16.0,10.1,29.03,NNW,338,4.0,4.0,77,0.00,,---,0.00,VWS V14.01,2013-03-26 06:45:00,
2013-03-26 01:46:00,16.0,10.1,29.03,NNW,338,3.8,4.0,77,0.00,,---,0.00,VWS V14.01,2013-03-26 06:46:00,
2013-03-26 01:47:00,16.0,10.1,29.03,NNW,338,3.4,4.3,77,0.00,,---,0.00,VWS V14.01,2013-03-26 06:47:00,
2013-03-26 01:48:00,16.0,10.1,29.03,NNW,338,3.6,5.6,77,0.00,,---,0.00,VWS V14.01,2013-03-26 06:48:00,
2013-03-26 01:49:00,16.0,10.1,29.03,NNW,338,3.8,4.3,77,0.00,,---,0.00,VWS V14.01,2013-03-26 06:49:00,
2013-03-26 01:50:00,16.0,10.1,29.03,NNW,338,3.1,3.6,77,0.00,,---,0.00,VWS V14.01,2013-03-26 06:50:00,
2013-03-26 01:51:00,16.0,10.1,29.03,NNW,338,3.8,3.8,77,0.00,,---,0.00,VWS V14.01,2013-03-26 06:51:00,
2013-03-26 01:52:00,16.2,10.2,29.03,NNW,338,3.1,3.8,77,0.00,,---,0.00,VWS V14.01,2013-03-26 06:52:00,
2013-03-26 01:53:00,16.0,10.1,29.03,NNW,338,3.1,3.1,77,0.00,,---,0.00,VWS V14.01,2013-03-26 06:53:00,
2013-03-26 01:54:00,16.2,10.2,29.00,NNW,338,3.1,5.4,77,0.00,,---,0.00,VWS V14.01,2013-03-26 06:54:00,
2013-03-26 01:55:00,16.2,10.2,29.00,NNW,338,4.0,4.0,77,0.00,,---,0.00,VWS V14.01,2013-03-26 06:55:00,
2013-03-26 01:56:00,16.2,10.2,29.00,NNW,338,3.6,4.3,77,0.00,,---,0.00,VWS V14.01,2013-03-26 06:56:00,
2013-03-26 01:57:00,16.2,10.2,29.00,NNW,338,4.0,4.0,77,0.00,,---,0.00,VWS V14.01,2013-03-26 06:57:00,
2013-03-26 01:58:00,16.2,10.2,29.00,NNW,338,3.8,4.0,77,0.00,,---,0.00,VWS V14.01,2013-03-26 06:58:00,
2013-03-26 01:59:00,16.2,10.2,29.00,NNW,338,4.0,4.0,77,0.00,,---,0.00,VWS V14.01,2013-03-26 06:59:00,
2013-03-26 02:00:00,16.0,10.1,29.00,NNW,338,3.1,3.8,77,0.00,,---,0.00,VWS V14.01,2013-03-26 07:00:00,
2013-03-26 02:02:00,16.0,10.1,29.00,NNW,338,3.1,3.8,77,0.00,,---,0.00,VWS V14.01,2013-03-26 07:02:00,
2013-03-26 02:03:00,16.0,10.1,29.00,NNW,338,3.1,3.8,77,0.00,,---,0.00,VWS V14.01,2013-03-26 07:03:00,
2013-03-26 02:04:00,16.0,10.1,29.00,NNW,338,3.1,3.4,77,0.00,,---,0.00,VWS V14.01,2013-03-26 07:04:00,
2013-03-26 02:05:00,15.8,9.9,29.00,NNW,338,3.4,3.4,77,0.00,,---,0.00,VWS V14.01,2013-03-26 07:05:00,
2013-03-26 02:06:00,15.8,9.9,29.00,North,0,3.8,3.8,77,0.00,,---,0.00,VWS V14.01,2013-03-26 07:06:00,
2013-03-26 02:07:00,15.8,9.9,29.00,NNW,338,2.9,3.8,77,0.00,,---,0.00,VWS V14.01,2013-03-26 07:07:00,
2013-03-26 02:08:00,15.8,9.9,29.00,NNW,338,2.5,3.1,77,0.00,,---,0.00,VWS V14.01,2013-03-26 07:08:00,
2013-03-26 02:09:00,16.0,9.8,29.03,NNW,338,3.1,3.6,76,0.00,,---,0.00,VWS V14.01,2013-03-26 07:09:00,
2013-03-26 02:10:00,16.0,10.1,29.03,NNW,338,2.9,3.6,77,0.00,,---,0.00,VWS V14.01,2013-03-26 07:10:00,
2013-03-26 02:11:00,16.0,10.1,29.03,NNW,338,2.9,3.6,77,0.00,,---,0.00,VWS V14.01,2013-03-26 07:11:00,
2013-03-26 02:12:00,16.0,10.1,29.03,NNW,338,3.4,4.0,77,0.00,,---,0.00,VWS V14.01,2013-03-26 07:12:00,
2013-03-26 02:13:00,16.0,10.1,29.03,NNW,338,4.0,4.0,77,0.00,,---,0.00,VWS V14.01,2013-03-26 07:13:00,
2013-03-26 02:14:00,16.0,10.1,29.03,NNW,338,3.1,4.3,77,0.00,,---,0.00,VWS V14.01,2013-03-26 07:14:00,
2013-03-26 02:15:00,16.0,10.1,29.03,NNW,338,3.4,3.4,77,0.00,,---,0.00,VWS V14.01,2013-03-26 07:15:00,
2013-03-26 02:16:00,16.0,10.1,29.03,NNW,338,2.9,3.8,77,0.00,,---,0.00,VWS V14.01,2013-03-26 07:16:00,
2013-03-26 02:17:00,16.2,10.2,29.03,NNW,338,2.7,7.4,77,0.00,,---,0.00,VWS V14.01,2013-03-26 07:17:00,
2013-03-26 02:18:00,16.2,10.2,29.03,NNW,338,5.4,5.4,77,0.00,,---,0.00,VWS V14.01,2013-03-26 07:18:00,
2013-03-26 02:19:00,16.2,10.2,29.03,NNW,338,2.7,5.4,77,0.00,,---,0.00,VWS V14.01,2013-03-26 07:19:00,
2013-03-26 02:20:00,16.0,10.1,29.03,NW,315,3.1,3.1,77,0.00,,---,0.00,VWS V14.01,2013-03-26 07:20:00,
2013-03-26 02:21:00,16.0,10.1,29.03,NW,315,5.8,5.8,77,0.00,,---,0.00,VWS V14.01,2013-03-26 07:21:00,
2013-03-26 02:22:00,16.0,9.8,29.03,NNW,338,3.4,4.0,76,0.00,,---,0.00,VWS V14.01,2013-03-26 07:22:00,
2013-03-26 02:23:00,16.0,9.8,29.03,NNW,338,3.4,3.4,76,0.00,,---,0.00,VWS V14.01,2013-03-26 07:23:00,
2013-03-26 02:24:00,16.0,9.8,29.03,NNW,338,3.1,3.4,76,0.00,,---,0.00,VWS V14.01,2013-03-26 07:24:00,
2013-03-26 02:25:00,16.0,9.8,29.06,NNW,338,2.5,3.1,76,0.00,,---,0.00,VWS V14.01,2013-03-26 07:25:00,
2013-03-26 02:26:00,15.8,9.9,29.06,NNW,338,3.6,3.6,77,0.00,,---,0.00,VWS V14.01,2013-03-26 07:26:00,
2013-03-26 02:27:00,15.8,9.9,29.06,NNW,338,3.6,4.7,77,0.00,,---,0.00,VWS V14.01,2013-03-26 07:27:00,
2013-03-26 02:28:00,15.8,9.9,29.06,NNW,338,3.8,3.8,77,0.00,,---,0.00,VWS V14.01,2013-03-26 07:28:00,
2013-03-26 02:29:00,15.8,9.6,29.06,NNW,338,2.9,5.4,76,0.00,,---,0.00,VWS V14.01,2013-03-26 07:29:00,
2013-03-26 02:30:00,15.8,9.6,29.06,North,0,3.6,3.6,76,0.00,,---,0.00,VWS V14.01,2013-03-26 07:30:00,
2013-03-26 02:31:00,15.8,9.6,29.06,North,0,3.8,3.8,76,0.00,,---,0.00,VWS V14.01,2013-03-26 07:31:00,
2013-03-26 02:32:00,15.6,9.4,29.06,NNW,338,2.9,3.4,76,0.00,,---,0.00,VWS V14.01,2013-03-26 07:32:00,
2013-03-26 02:33:00,15.6,9.4,29.06,NNW,338,4.3,4.3,76,0.00,,---,0.00,VWS V14.01,2013-03-26 07:33:00,
2013-03-26 02:34:00,15.4,9.2,29.06,NNW,338,3.4,4.3,76,0.00,,---,0.00,VWS V14.01,2013-03-26 07:34:00,
2013-03-26 02:35:00,15.4,9.2,29.06,NNW,338,3.4,3.6,76,0.00,,---,0.00,VWS V14.01,2013-03-26 07:35:00,
2013-03-26 02:36:00,15.4,9.2,29.06,NNW,338,4.3,4.3,76,0.00,,---,0.00,VWS V14.01,2013-03-26 07:36:00,
2013-03-26 02:37:00,15.4,9.2,29.06,NNW,338,4.0,4.9,76,0.00,,---,0.00,VWS V14.01,2013-03-26 07:37:00,
2013-03-26 02:38:00,15.4,9.2,29.06,NNW,338,2.5,4.0,76,0.00,,---,0.00,VWS V14.01,2013-03-26 07:38:00,
2013-03-26 02:39:00,15.4,9.2,29.03,NNW,338,2.0,3.6,76,0.00,,---,0.00,VWS V14.01,2013-03-26 07:39:00,
2013-03-26 02:40:00,15.6,9.4,29.03,NNW,338,3.8,4.3,76,0.00,,---,0.00,VWS V14.01,2013-03-26 07:40:00,
2013-03-26 02:41:00,15.6,9.7,29.03,NNW,338,2.9,3.8,77,0.00,,---,0.00,VWS V14.01,2013-03-26 07:41:00,
2013-03-26 02:42:00,15.8,9.9,29.03,NNW,338,2.7,4.0,77,0.00,,---,0.00,VWS V14.01,2013-03-26 07:42:00,
2013-03-26 02:43:00,15.8,9.9,29.03,NNW,338,3.4,3.4,77,0.00,,---,0.00,VWS V14.01,2013-03-26 07:43:00,
2013-03-26 02:44:00,15.8,9.9,29.03,North,0,2.7,4.0,77,0.00,,---,0.00,VWS V14.01,2013-03-26 07:44:00,
2013-03-26 02:45:00,15.8,9.9,29.03,NW,315,2.7,3.6,77,0.00,,---,0.00,VWS V14.01,2013-03-26 07:45:00,
2013-03-26 02:46:00,15.8,9.9,29.03,NW,315,2.9,3.4,77,0.00,,---,0.00,VWS V14.01,2013-03-26 07:46:00,
2013-03-26 02:47:00,15.8,9.9,29.03,NNW,338,2.5,3.4,77,0.00,,---,0.00,VWS V14.01,2013-03-26 07:47:00,
2013-03-26 02:48:00,15.6,9.7,29.03,NW,315,3.1,3.6,77,0.00,,---,0.00,VWS V14.01,2013-03-26 07:48:00,
2013-03-26 02:49:00,15.6,9.7,29.03,North,0,1.1,3.1,77,0.00,,---,0.00,VWS V14.01,2013-03-26 07:49:00,
2013-03-26 02:50:00,15.6,9.7,29.03,WNW,292,2.7,2.7,77,0.00,,---,0.00,VWS V14.01,2013-03-26 07:50:00,
2013-03-26 02:51:00,15.6,9.7,29.03,WNW,292,2.7,3.8,77,0.00,,---,0.00,VWS V14.01,2013-03-26 07:51:00,
2013-03-26 02:52:00,15.6,9.7,29.03,NW,315,4.0,5.4,77,0.00,,---,0.00,VWS V14.01,2013-03-26 07:52:00,
2013-03-26 02:53:00,15.4,9.2,29.03,WNW,292,2.9,4.0,76,0.00,,---,0.00,VWS V14.01,2013-03-26 07:53:00,
2013-03-26 02:54:00,15.4,9.2,29.03,NW,315,2.7,3.1,76,0.00,,---,0.00,VWS V14.01,2013-03-26 07:54:00,
2013-03-26 02:55:00,15.3,9.1,29.03,NW,315,3.6,3.8,76,0.00,,---,0.00,VWS V14.01,2013-03-26 07:55:00,
2013-03-26 02:56:00,15.3,9.1,29.03,NW,315,2.5,4.3,76,0.00,,---,0.00,VWS V14.01,2013-03-26 07:56:00,
2013-03-26 02:57:00,15.3,9.1,29.03,West,270,3.8,3.8,76,0.00,,---,0.00,VWS V14.01,2013-03-26 07:57:00,
2013-03-26 02:58:00,15.3,9.1,29.03,WNW,292,3.4,3.8,76,0.00,,---,0.00,VWS V14.01,2013-03-26 07:58:00,
2013-03-26 02:59:00,15.3,9.1,29.03,WNW,292,2.9,3.4,76,0.00,,---,0.00,VWS V14.01,2013-03-26 07:59:00,
2013-03-26 03:00:00,15.1,8.6,29.03,WSW,248,2.5,3.4,75,0.00,,---,0.00,VWS V14.01,2013-03-26 08:00:00,
2013-03-26 03:01:00,15.1,8.6,29.03,WSW,248,2.5,2.5,75,0.00,,---,0.00,VWS V14.01,2013-03-26 08:01:00,
2013-03-26 03:02:00,14.7,8.2,29.03,WNW,292,2.9,3.6,75,0.00,,---,0.00,VWS V14.01,2013-03-26 08:02:00,
2013-03-26 03:03:00,14.5,8.1,29.03,WNW,292,2.9,2.9,75,0.00,,---,0.00,VWS V14.01,2013-03-26 08:03:00,
2013-03-26 03:04:00,14.5,8.1,29.03,WNW,292,2.7,3.4,75,0.00,,---,0.00,VWS V14.01,2013-03-26 08:04:00,
2013-03-26 03:05:00,14.5,8.1,29.03,WNW,292,2.9,2.9,75,0.00,,---,0.00,VWS V14.01,2013-03-26 08:05:00,
2013-03-26 03:06:00,14.5,8.1,29.03,WNW,292,2.5,2.9,75,0.00,,---,0.00,VWS V14.01,2013-03-26 08:06:00,
2013-03-26 03:07:00,14.5,8.1,29.03,WNW,292,2.9,2.9,75,0.00,,---,0.00,VWS V14.01,2013-03-26 08:07:00,
2013-03-26 03:08:00,14.4,7.9,29.03,WNW,292,2.5,2.9,75,0.00,,---,0.00,VWS V14.01,2013-03-26 08:08:00,
2013-03-26 03:09:00,14.4,7.9,29.03,NW,315,2.5,2.9,75,0.00,,---,0.00,VWS V14.01,2013-03-26 08:09:00,
2013-03-26 03:10:00,14.4,7.9,29.03,WNW,292,2.0,2.5,75,0.00,,---,0.00,VWS V14.01,2013-03-26 08:10:00,
2013-03-26 03:11:00,14.4,7.9,29.03,NW,315,2.0,2.2,75,0.00,,---,0.00,VWS V14.01,2013-03-26 08:11:00,
2013-03-26 03:12:00,14.4,7.9,29.03,WNW,292,1.3,2.5,75,0.00,,---,0.00,VWS V14.01,2013-03-26 08:12:00,
2013-03-26 03:13:00,14.4,7.9,29.03,WNW,292,1.3,1.3,75,0.00,,---,0.00,VWS V14.01,2013-03-26 08:13:00,
2013-03-26 03:14:00,14.4,7.9,29.03,WNW,292,1.3,1.3,75,0.00,,---,0.00,VWS V14.01,2013-03-26 08:14:00,
2013-03-26 03:15:00,14.4,7.9,29.03,NNW,338,3.6,4.3,75,0.00,,---,0.00,VWS V14.01,2013-03-26 08:15:00,
2013-03-26 03:16:00,14.4,7.9,29.03,NW,315,2.0,3.6,75,0.00,,---,0.00,VWS V14.01,2013-03-26 08:16:00,
2013-03-26 03:17:00,14.4,7.9,29.03,WNW,292,2.0,2.0,75,0.00,,---,0.00,VWS V14.01,2013-03-26 08:17:00,
2013-03-26 03:18:00,14.4,7.9,29.03,WNW,292,1.6,2.7,75,0.00,,---,0.00,VWS V14.01,2013-03-26 08:18:00,
2013-03-26 03:19:00,14.4,7.9,29.03,WNW,292,1.6,2.0,75,0.00,,---,0.00,VWS V14.01,2013-03-26 08:19:00,
2013-03-26 03:20:00,14.4,7.9,29.03,WNW,292,2.5,2.5,75,0.00,,---,0.00,VWS V14.01,2013-03-26 08:20:00,
2013-03-26 03:21:00,14.4,7.9,29.03,WNW,292,2.7,2.7,75,0.00,,---,0.00,VWS V14.01,2013-03-26 08:21:00,
2013-03-26 03:22:00,14.4,7.9,29.03,WNW,292,1.6,2.7,75,0.00,,---,0.00,VWS V14.01,2013-03-26 08:22:00,
2013-03-26 03:23:00,14.4,7.9,29.03,WNW,292,2.5,2.5,75,0.00,,---,0.00,VWS V14.01,2013-03-26 08:23:00,
2013-03-26 03:24:00,14.4,7.9,29.03,WSW,248,2.5,2.5,75,0.00,,---,0.00,VWS V14.01,2013-03-26 08:24:00,
2013-03-26 03:25:00,14.4,8.2,29.03,West,270,2.0,2.5,76,0.00,,---,0.00,VWS V14.01,2013-03-26 08:25:00,
2013-03-26 03:26:00,14.4,8.2,29.03,West,270,1.6,2.0,76,0.00,,---,0.00,VWS V14.01,2013-03-26 08:26:00,
2013-03-26 03:27:00,14.4,8.2,29.03,West,270,0.9,2.0,76,0.00,,---,0.00,VWS V14.01,2013-03-26 08:27:00,
2013-03-26 03:28:00,14.4,8.2,29.03,West,270,0.0,0.9,76,0.00,,---,0.00,VWS V14.01,2013-03-26 08:28:00,
2013-03-26 03:29:00,14.4,8.2,29.03,West,270,0.0,0.0,76,0.00,,---,0.00,VWS V14.01,2013-03-26 08:29:00,
2013-03-26 03:30:00,14.4,8.2,29.03,WSW,248,1.3,1.6,76,0.00,,---,0.00,VWS V14.01,2013-03-26 08:30:00,
2013-03-26 03:31:00,14.4,8.2,29.03,WSW,248,0.0,1.1,76,0.00,,---,0.00,VWS V14.01,2013-03-26 08:31:00,
2013-03-26 03:32:00,14.4,8.2,29.03,WSW,248,2.2,2.7,76,0.00,,---,0.00,VWS V14.01,2013-03-26 08:32:00,
2013-03-26 03:33:00,14.4,8.2,29.03,WSW,248,0.9,2.2,76,0.00,,---,0.00,VWS V14.01,2013-03-26 08:33:00,
2013-03-26 03:34:00,14.4,8.2,29.03,WNW,292,0.0,0.9,76,0.00,,---,0.00,VWS V14.01,2013-03-26 08:34:00,
2013-03-26 03:35:00,14.4,8.2,29.03,WNW,292,0.0,0.0,76,0.00,,---,0.00,VWS V14.01,2013-03-26 08:35:00,
2013-03-26 03:36:00,14.4,8.2,29.03,WNW,292,1.3,1.6,76,0.00,,---,0.00,VWS V14.01,2013-03-26 08:36:00,
2013-03-26 03:37:00,14.4,8.2,29.03,NNW,338,1.1,1.6,76,0.00,,---,0.00,VWS V14.01,2013-03-26 08:37:00,
2013-03-26 03:38:00,14.4,8.2,29.03,NNW,338,1.3,2.2,76,0.00,,---,0.00,VWS V14.01,2013-03-26 08:38:00,
2013-03-26 03:39:00,14.4,8.2,29.03,NNW,338,2.0,2.2,76,0.00,,---,0.00,VWS V14.01,2013-03-26 08:39:00,
2013-03-26 03:40:00,14.4,8.2,29.03,WNW,292,1.1,2.2,76,0.00,,---,0.00,VWS V14.01,2013-03-26 08:40:00,
2013-03-26 03:41:00,14.4,8.2,29.03,NW,315,2.0,2.0,76,0.00,,---,0.00,VWS V14.01,2013-03-26 08:41:00,
2013-03-26 03:42:00,14.4,8.2,29.03,WNW,292,1.1,2.9,76,0.00,,---,0.00,VWS V14.01,2013-03-26 08:42:00,
2013-03-26 03:43:00,14.4,8.2,29.03,WNW,292,1.1,1.1,76,0.00,,---,0.00,VWS V14.01,2013-03-26 08:43:00,
2013-03-26 03:44:00,14.4,8.2,29.03,WNW,292,2.5,2.5,76,0.00,,---,0.00,VWS V14.01,2013-03-26 08:44:00,
2013-03-26 03:46:00,14.5,8.4,29.03,WNW,292,2.5,2.5,76,0.00,,---,0.00,VWS V14.01,2013-03-26 08:46:00,
2013-03-26 03:47:00,14.5,8.4,29.03,NW,315,1.3,2.5,76,0.00,,---,0.00,VWS V14.01,2013-03-26 08:47:00,
2013-03-26 03:48:00,14.5,8.4,29.03,NNE,22,3.6,3.6,76,0.00,,---,0.00,VWS V14.01,2013-03-26 08:48:00,
2013-03-26 03:49:00,14.5,8.4,29.03,NW,315,3.6,4.5,76,0.00,,---,0.00,VWS V14.01,2013-03-26 08:49:00,
2013-03-26 03:50:00,14.5,8.4,29.03,NNW,338,3.1,3.6,76,0.00,,---,0.00,VWS V14.01,2013-03-26 08:50:00,
2013-03-26 03:51:00,14.5,8.4,29.03,NNW,338,2.5,2.7,76,0.00,,---,0.00,VWS V14.01,2013-03-26 08:51:00,
2013-03-26 03:52:00,14.5,8.4,29.03,NNW,338,2.5,2.7,76,0.00,,---,0.00,VWS V14.01,2013-03-26 08:52:00,
2013-03-26 03:53:00,14.5,8.4,29.03,NNW,338,2.5,2.5,76,0.00,,---,0.00,VWS V14.01,2013-03-26 08:53:00,
2013-03-26 03:54:00,14.4,8.2,29.03,North,0,2.5,2.7,76,0.00,,---,0.00,VWS V14.01,2013-03-26 08:54:00,
2013-03-26 03:55:00,14.4,8.2,29.03,North,0,1.3,2.9,76,0.00,,---,0.00,VWS V14.01,2013-03-26 08:55:00,
2013-03-26 03:56:00,14.4,8.2,29.03,NNW,338,1.6,1.6,76,0.00,,---,0.00,VWS V14.01,2013-03-26 08:56:00,
2013-03-26 03:57:00,14.4,8.2,29.03,NNW,338,2.2,2.2,76,0.00,,---,0.00,VWS V14.01,2013-03-26 08:57:00,
2013-03-26 03:58:00,14.4,8.2,29.03,NNW,338,2.0,2.2,76,0.00,,---,0.00,VWS V14.01,2013-03-26 08:58:00,
2013-03-26 03:59:00,14.4,8.2,29.03,NNW,338,2.0,2.2,76,0.00,,---,0.00,VWS V14.01,2013-03-26 08:59:00,
2013-03-26 04:00:00,14.2,8.0,29.03,NNW,338,2.0,2.2,76,0.00,,---,0.00,VWS V14.01,2013-03-26 09:00:00,
2013-03-26 04:01:00,14.2,8.0,29.03,North,0,2.2,2.2,76,0.00,,---,0.00,VWS V14.01,2013-03-26 09:01:00,
2013-03-26 04:02:00,14.2,7.7,29.03,NNW,338,2.0,2.2,75,0.00,,---,0.00,VWS V14.01,2013-03-26 09:02:00,
2013-03-26 04:03:00,14.2,7.7,29.03,NNW,338,2.9,2.9,75,0.00,,---,0.00,VWS V14.01,2013-03-26 09:03:00,
2013-03-26 04:04:00,14.2,7.7,29.03,NNW,338,2.5,3.1,75,0.00,,---,0.00,VWS V14.01,2013-03-26 09:04:00,
2013-03-26 04:05:00,14.2,7.7,29.03,NNW,338,2.5,2.7,75,0.00,,---,0.00,VWS V14.01,2013-03-26 09:05:00,
2013-03-26 04:06:00,14.2,7.7,29.03,NNW,338,3.4,3.4,75,0.00,,---,0.00,VWS V14.01,2013-03-26 09:06:00,
2013-03-26 04:07:00,14.2,7.7,29.03,NNW,338,2.9,3.4,75,0.00,,---,0.00,VWS V14.01,2013-03-26 09:07:00,
2013-03-26 04:08:00,14.2,7.7,29.03,NNW,338,2.7,3.1,75,0.00,,---,0.00,VWS V14.01,2013-03-26 09:08:00,
2013-03-26 04:09:00,14.2,7.7,29.06,NNW,338,2.9,3.6,75,0.00,,---,0.00,VWS V14.01,2013-03-26 09:09:00,
2013-03-26 04:10:00,14.2,7.7,29.06,NNW,338,2.9,2.9,75,0.00,,---,0.00,VWS V14.01,2013-03-26 09:10:00,
2013-03-26 04:11:00,14.2,7.7,29.06,NNW,338,3.1,3.1,75,0.00,,---,0.00,VWS V14.01,2013-03-26 09:11:00,
2013-03-26 04:12:00,14.2,7.7,29.06,NNW,338,3.6,3.6,75,0.00,,---,0.00,VWS V14.01,2013-03-26 09:12:00,
2013-03-26 04:13:00,14.2,7.7,29.06,NNW,338,3.4,3.6,75,0.00,,---,0.00,VWS V14.01,2013-03-26 09:13:00,
2013-03-26 04:14:00,14.2,8.0,29.06,NNW,338,2.7,3.4,76,0.00,,---,0.00,VWS V14.01,2013-03-26 09:14:00,
2013-03-26 04:15:00,14.2,8.0,29.06,NNW,338,2.9,3.1,76,0.00,,---,0.00,VWS V14.01,2013-03-26 09:15:00,
2013-03-26 04:16:00,14.2,8.0,29.06,NNW,338,3.1,3.4,76,0.00,,---,0.00,VWS V14.01,2013-03-26 09:16:00,
2013-03-26 04:17:00,14.0,7.8,29.06,NNW,338,2.5,3.8,76,0.00,,---,0.00,VWS V14.01,2013-03-26 09:17:00,
2013-03-26 04:18:00,14.0,7.8,29.06,NNW,338,3.1,3.1,76,0.00,,---,0.00,VWS V14.01,2013-03-26 09:18:00,
2013-03-26 04:19:00,14.0,7.8,29.06,NNW,338,2.9,3.1,76,0.00,,---,0.00,VWS V14.01,2013-03-26 09:19:00,
2013-03-26 04:20:00,14.0,7.8,29.06,NNW,338,3.1,3.1,76,0.00,,---,0.00,VWS V14.01,2013-03-26 09:20:00,
2013-03-26 04:21:00,13.8,7.7,29.06,NNW,338,3.4,3.6,76,0.00,,---,0.00,VWS V14.01,2013-03-26 09:21:00,
2013-03-26 04:22:00,14.0,8.1,29.06,North,0,2.9,3.6,77,0.00,,---,0.00,VWS V14.01,2013-03-26 09:22:00,
2013-03-26 04:23:00,14.0,8.1,29.06,NNW,338,3.6,3.8,77,0.00,,---,0.00,VWS V14.01,2013-03-26 09:23:00,
2013-03-26 04:24:00,13.8,8.0,29.00,NNW,338,2.7,3.6,77,0.00,,---,0.00,VWS V14.01,2013-03-26 09:24:00,
2013-03-26 04:25:00,13.8,8.0,29.00,NNW,338,2.7,2.7,77,0.00,,---,0.00,VWS V14.01,2013-03-26 09:25:00,
2013-03-26 04:26:00,13.8,8.0,29.00,NNW,338,2.9,3.4,77,0.00,,---,0.00,VWS V14.01,2013-03-26 09:26:00,
2013-03-26 04:27:00,13.8,8.0,29.00,North,0,3.4,3.4,77,0.00,,---,0.00,VWS V14.01,2013-03-26 09:27:00,
2013-03-26 04:28:00,13.8,8.0,29.00,NNW,338,3.8,4.3,77,0.00,,---,0.00,VWS V14.01,2013-03-26 09:28:00,
2013-03-26 04:29:00,13.8,8.0,29.00,NNW,338,5.4,5.4,77,0.00,,---,0.00,VWS V14.01,2013-03-26 09:29:00,
2013-03-26 04:30:00,13.8,8.0,29.00,NNW,338,4.9,5.4,77,0.00,,---,0.00,VWS V14.01,2013-03-26 09:30:00,
2013-03-26 04:31:00,13.8,8.0,29.00,NNW,338,4.3,5.6,77,0.00,,---,0.00,VWS V14.01,2013-03-26 09:31:00,
2013-03-26 04:32:00,14.0,8.1,29.00,NNW,338,4.3,4.7,77,0.00,,---,0.00,VWS V14.01,2013-03-26 09:32:00,
2013-03-26 04:33:00,14.0,8.1,29.00,NNW,338,4.5,4.5,77,0.00,,---,0.00,VWS V14.01,2013-03-26 09:33:00,
2013-03-26 04:34:00,14.2,8.3,29.00,NNW,338,4.9,4.9,77,0.00,,---,0.00,VWS V14.01,2013-03-26 09:34:00,
2013-03-26 04:35:00,14.2,8.3,29.00,NNW,338,5.4,5.4,77,0.00,,---,0.00,VWS V14.01,2013-03-26 09:35:00,
2013-03-26 04:36:00,14.2,8.3,29.00,NNW,338,3.4,6.5,77,0.00,,---,0.00,VWS V14.01,2013-03-26 09:36:00,
2013-03-26 04:37:00,14.4,8.8,29.00,NNW,338,5.4,5.8,78,0.00,,---,0.00,VWS V14.01,2013-03-26 09:37:00,
2013-03-26 04:38:00,14.4,8.8,29.00,NNE,22,6.0,6.0,78,0.00,,---,0.00,VWS V14.01,2013-03-26 09:38:00,
2013-03-26 04:39:00,14.4,8.8,29.03,NNW,338,4.0,6.0,78,0.00,,---,0.00,VWS V14.01,2013-03-26 09:39:00,
2013-03-26 04:40:00,14.4,8.8,29.03,NNW,338,5.6,5.6,78,0.00,,---,0.00,VWS V14.01,2013-03-26 09:40:00,
2013-03-26 04:41:00,14.5,8.9,29.03,NNW,338,3.8,5.6,78,0.00,,---,0.00,VWS V14.01,2013-03-26 09:41:00,
2013-03-26 04:42:00,14.5,8.9,29.03,NNW,338,3.4,4.3,78,0.00,,---,0.00,VWS V14.01,2013-03-26 09:42:00,
2013-03-26 04:43:00,14.5,8.9,29.03,North,0,3.8,3.8,78,0.00,,---,0.00,VWS V14.01,2013-03-26 09:43:00,
2013-03-26 04:44:00,14.5,8.9,29.03,NNE,22,4.3,4.3,78,0.00,,---,0.00,VWS V14.01,2013-03-26 09:44:00,
2013-03-26 04:45:00,14.5,8.9,29.03,WNW,292,2.7,4.3,78,0.00,,---,0.00,VWS V14.01,2013-03-26 09:45:00,
2013-03-26 04:46:00,14.5,8.9,29.03,NNW,338,1.1,2.7,78,0.00,,---,0.00,VWS V14.01,2013-03-26 09:46:00,
2013-03-26 04:47:00,14.5,8.7,29.03,North,0,2.7,2.9,77,0.00,,---,0.00,VWS V14.01,2013-03-26 09:47:00,
2013-03-26 04:48:00,14.5,8.7,29.03,NNE,22,1.3,2.9,77,0.00,,---,0.00,VWS V14.01,2013-03-26 09:48:00,
2013-03-26 04:49:00,14.5,8.7,29.03,NNE,22,0.0,1.3,77,0.00,,---,0.00,VWS V14.01,2013-03-26 09:49:00,
2013-03-26 04:50:00,14.4,8.5,29.03,North,0,2.7,2.7,77,0.00,,---,0.00,VWS V14.01,2013-03-26 09:50:00,
2013-03-26 04:51:00,14.4,8.5,29.03,NNW,338,3.4,3.4,77,0.00,,---,0.00,VWS V14.01,2013-03-26 09:51:00,
2013-03-26 04:52:00,14.4,8.5,29.03,NNE,22,2.5,3.8,77,0.00,,---,0.00,VWS V14.01,2013-03-26 09:52:00,
2013-03-26 04:53:00,14.2,8.3,29.03,North,0,2.7,2.7,77,0.00,,---,0.00,VWS V14.01,2013-03-26 09:53:00,
2013-03-26 04:54:00,14.2,8.0,29.03,NNW,338,2.7,3.8,76,0.00,,---,0.00,VWS V14.01,2013-03-26 09:54:00,
2013-03-26 04:55:00,14.2,8.0,29.03,North,0,2.5,2.9,76,0.00,,---,0.00,VWS V14.01,2013-03-26 09:55:00,
2013-03-26 04:56:00,14.2,8.0,29.03,NNW,338,3.1,3.1,76,0.00,,---,0.00,VWS V14.01,2013-03-26 09:56:00,
2013-03-26 04:57:00,14.2,8.0,29.03,NNW,338,1.6,3.6,76,0.00,,---,0.00,VWS V14.01,2013-03-26 09:57:00,
2013-03-26 04:58:00,14.2,8.0,29.03,North,0,2.7,2.7,76,0.00,,---,0.00,VWS V14.01,2013-03-26 09:58:00,
2013-03-26 04:59:00,14.2,8.0,29.03,North,0,2.5,3.1,76,0.00,,---,0.00,VWS V14.01,2013-03-26 09:59:00,
2013-03-26 05:00:00,14.2,8.0,29.03,NNW,338,2.5,2.5,76,0.00,,---,0.00,VWS V14.01,2013-03-26 10:00:00,
2013-03-26 05:01:00,14.2,8.0,29.03,NNW,338,2.9,2.9,76,0.00,,---,0.00,VWS V14.01,2013-03-26 10:01:00,
2013-03-26 05:02:00,14.0,7.8,29.03,NNW,338,2.5,2.5,76,0.00,,---,0.00,VWS V14.01,2013-03-26 10:02:00,
2013-03-26 05:03:00,14.0,7.8,29.03,NNW,338,2.5,2.5,76,0.00,,---,0.00,VWS V14.01,2013-03-26 10:03:00,
2013-03-26 05:04:00,14.0,7.8,29.03,NW,315,2.9,2.9,76,0.00,,---,0.00,VWS V14.01,2013-03-26 10:04:00,
2013-03-26 05:05:00,13.8,7.7,29.03,NW,315,2.9,3.4,76,0.00,,---,0.00,VWS V14.01,2013-03-26 10:05:00,
2013-03-26 05:06:00,13.8,7.7,29.03,NW,315,4.9,4.9,76,0.00,,---,0.00,VWS V14.01,2013-03-26 10:06:00,
2013-03-26 05:07:00,13.6,7.5,29.03,WNW,292,5.4,5.4,76,0.00,,---,0.00,VWS V14.01,2013-03-26 10:07:00,
2013-03-26 05:08:00,13.6,7.5,29.03,NW,315,5.8,5.8,76,0.00,,---,0.00,VWS V14.01,2013-03-26 10:08:00,
2013-03-26 05:09:00,13.6,7.5,29.03,NNW,338,4.9,6.0,76,0.00,,---,0.00,VWS V14.01,2013-03-26 10:09:00,
2013-03-26 05:10:00,13.5,7.3,29.03,NW,315,3.6,5.6,76,0.00,,---,0.00,VWS V14.01,2013-03-26 10:10:00,
2013-03-26 05:11:00,13.3,7.1,29.03,NNW,338,3.6,4.3,76,0.00,,---,0.00,VWS V14.01,2013-03-26 10:11:00,
2013-03-26 05:12:00,13.3,7.1,29.03,NNW,338,3.4,3.4,76,0.00,,---,0.00,VWS V14.01,2013-03-26 10:12:00,
2013-03-26 05:13:00,13.3,7.1,29.03,NNW,338,3.8,3.8,76,0.00,,---,0.00,VWS V14.01,2013-03-26 10:13:00,
2013-03-26 05:14:00,13.3,7.1,29.03,NNW,338,2.7,3.8,76,0.00,,---,0.00,VWS V14.01,2013-03-26 10:14:00,
2013-03-26 05:15:00,12.9,6.8,29.03,WNW,292,2.9,3.1,76,0.00,,---,0.00,VWS V14.01,2013-03-26 10:15:00,
2013-03-26 05:16:00,12.9,6.8,29.03,NNW,338,3.8,4.0,76,0.00,,---,0.00,VWS V14.01,2013-03-26 10:16:00,
2013-03-26 05:17:00,12.7,6.6,29.03,NNW,338,2.9,3.6,76,0.00,,---,0.00,VWS V14.01,2013-03-26 10:17:00,
2013-03-26 05:18:00,12.7,6.6,29.03,NNW,338,2.7,4.0,76,0.00,,---,0.00,VWS V14.01,2013-03-26 10:18:00,
2013-03-26 05:19:00,12.7,6.6,29.03,NNW,338,2.2,2.7,76,0.00,,---,0.00,VWS V14.01,2013-03-26 10:19:00,
2013-03-26 05:20:00,12.6,6.4,29.03,NNW,338,2.0,2.7,76,0.00,,---,0.00,VWS V14.01,2013-03-26 10:20:00,
2013-03-26 05:21:00,12.6,6.4,29.03,NNW,338,1.6,2.0,76,0.00,,---,0.00,VWS V14.01,2013-03-26 10:21:00,
2013-03-26 05:22:00,12.6,6.4,29.03,NNW,338,3.1,3.1,76,0.00,,---,0.00,VWS V14.01,2013-03-26 10:22:00,
2013-03-26 05:23:00,12.6,6.4,29.03,NNE,22,2.5,3.1,76,0.00,,---,0.00,VWS V14.01,2013-03-26 10:23:00,
2013-03-26 05:24:00,12.6,6.4,29.03,NNW,338,2.2,2.5,76,0.00,,---,0.00,VWS V14.01,2013-03-26 10:24:00,
2013-03-26 05:25:00,12.4,6.3,29.03,NNW,338,2.0,2.2,76,0.00,,---,0.00,VWS V14.01,2013-03-26 10:25:00,
2013-03-26 05:26:00,12.4,6.3,29.03,NW,315,2.0,2.0,76,0.00,,---,0.00,VWS V14.01,2013-03-26 10:26:00,
2013-03-26 05:27:00,12.2,6.1,29.03,WNW,292,1.6,2.5,76,0.00,,---,0.00,VWS V14.01,2013-03-26 10:27:00,
2013-03-26 05:28:00,12.2,6.1,29.03,NW,315,1.6,2.5,76,0.00,,---,0.00,VWS V14.01,2013-03-26 10:28:00,
2013-03-26 05:29:00,12.0,5.9,29.03,WNW,292,1.6,2.0,76,0.00,,---,0.00,VWS V14.01,2013-03-26 10:29:00,
2013-03-26 05:30:00,12.0,5.9,29.03,NNW,338,2.0,2.5,76,0.00,,---,0.00,VWS V14.01,2013-03-26 10:30:00,
2013-03-26 05:31:00,12.0,5.9,29.03,NW,315,2.0,2.7,76,0.00,,---,0.00,VWS V14.01,2013-03-26 10:31:00,
2013-03-26 05:32:00,12.0,5.9,29.03,WNW,292,2.5,2.5,76,0.00,,---,0.00,VWS V14.01,2013-03-26 10:32:00,
2013-03-26 05:33:00,12.0,5.9,29.03,WNW,292,2.5,2.5,76,0.00,,---,0.00,VWS V14.01,2013-03-26 10:33:00,
2013-03-26 05:34:00,11.8,5.8,29.03,NW,315,3.8,3.8,76,0.00,,---,0.00,VWS V14.01,2013-03-26 10:34:00,
2013-03-26 05:35:00,11.8,5.8,29.03,WNW,292,3.6,3.8,76,0.00,,---,0.00,VWS V14.01,2013-03-26 10:35:00,
2013-03-26 05:36:00,11.8,5.8,29.03,NW,315,2.9,3.6,76,0.00,,---,0.00,VWS V14.01,2013-03-26 10:36:00,
2013-03-26 05:37:00,11.8,5.8,29.03,NNW,338,2.7,3.1,76,0.00,,---,0.00,VWS V14.01,2013-03-26 10:37:00,
2013-03-26 05:38:00,11.8,5.8,29.03,NW,315,3.1,3.1,76,0.00,,---,0.00,VWS V14.01,2013-03-26 10:38:00,
2013-03-26 05:39:00,11.8,5.8,29.03,NNW,338,2.9,3.6,76,0.00,,---,0.00,VWS V14.01,2013-03-26 10:39:00,
2013-03-26 05:40:00,11.8,5.8,29.03,NW,315,3.6,3.6,76,0.00,,---,0.00,VWS V14.01,2013-03-26 10:40:00,
2013-03-26 05:41:00,11.8,5.8,29.03,NNW,338,3.1,3.6,76,0.00,,---,0.00,VWS V14.01,2013-03-26 10:41:00,
2013-03-26 05:42:00,12.0,5.9,29.03,NW,315,3.1,3.1,76,0.00,,---,0.00,VWS V14.01,2013-03-26 10:42:00,
2013-03-26 05:43:00,12.0,5.9,29.03,NW,315,3.6,3.6,76,0.00,,---,0.00,VWS V14.01,2013-03-26 10:43:00,
2013-03-26 05:44:00,12.0,5.9,29.03,NW,315,3.6,3.8,76,0.00,,---,0.00,VWS V14.01,2013-03-26 10:44:00,
2013-03-26 05:45:00,11.8,5.8,29.03,NW,315,3.8,3.8,76,0.00,,---,0.00,VWS V14.01,2013-03-26 10:45:00,
2013-03-26 05:46:00,11.8,5.8,29.03,WNW,292,3.1,3.8,76,0.00,,---,0.00,VWS V14.01,2013-03-26 10:46:00,
2013-03-26 05:47:00,11.8,5.8,29.03,WNW,292,3.4,3.8,76,0.00,,---,0.00,VWS V14.01,2013-03-26 10:47:00,
2013-03-26 05:48:00,11.7,5.6,29.03,WNW,292,3.4,3.8,76,0.00,,---,0.00,VWS V14.01,2013-03-26 10:48:00,
2013-03-26 05:49:00,11.7,5.6,29.03,NW,315,3.4,3.4,76,0.00,,---,0.00,VWS V14.01,2013-03-26 10:49:00,
2013-03-26 05:50:00,11.7,5.6,29.03,NW,315,2.7,3.4,76,0.00,,---,0.00,VWS V14.01,2013-03-26 10:50:00,
2013-03-26 05:51:00,11.3,5.2,29.03,NW,315,2.5,2.9,76,0.00,,---,0.00,VWS V14.01,2013-03-26 10:51:00,
2013-03-26 05:52:00,11.1,5.1,29.03,NW,315,2.5,3.1,76,0.00,,---,0.00,VWS V14.01,2013-03-26 10:52:00,
2013-03-26 05:53:00,11.1,5.1,29.03,NW,315,2.5,3.1,76,0.00,,---,0.00,VWS V14.01,2013-03-26 10:53:00,
2013-03-26 05:54:00,11.1,5.1,29.00,NNW,338,2.7,3.1,76,0.00,,---,0.00,VWS V14.01,2013-03-26 10:54:00,
2013-03-26 05:55:00,10.9,4.9,29.00,NNW,338,2.5,2.7,76,0.00,,---,0.00,VWS V14.01,2013-03-26 10:55:00,
2013-03-26 05:56:00,10.9,4.9,29.00,NW,315,2.7,2.7,76,0.00,,---,0.00,VWS V14.01,2013-03-26 10:56:00,
2013-03-26 05:57:00,10.9,4.9,29.00,NW,315,2.7,2.7,76,0.00,,---,0.00,VWS V14.01,2013-03-26 10:57:00,
2013-03-26 05:58:00,10.9,4.9,29.00,NW,315,2.7,2.7,76,0.00,,---,0.00,VWS V14.01,2013-03-26 10:58:00,
2013-03-26 05:59:00,10.9,4.9,29.00,NW,315,3.4,3.4,76,0.00,,---,0.00,VWS V14.01,2013-03-26 10:59:00,
2013-03-26 06:00:00,10.9,4.9,29.00,NW,315,3.1,3.4,76,0.00,,---,0.00,VWS V14.01,2013-03-26 11:00:00,
2013-03-26 06:01:00,10.9,4.9,29.00,NW,315,2.7,3.1,76,0.00,,---,0.00,VWS V14.01,2013-03-26 11:01:00,
2013-03-26 06:02:00,10.9,4.9,29.00,NW,315,2.5,2.9,76,0.00,,---,0.00,VWS V14.01,2013-03-26 11:02:00,
2013-03-26 06:03:00,11.1,5.1,29.00,WNW,292,3.4,3.4,76,0.00,,---,0.00,VWS V14.01,2013-03-26 11:03:00,
2013-03-26 06:05:00,11.1,5.1,29.00,NW,315,3.4,3.4,76,0.00,,---,0.00,VWS V14.01,2013-03-26 11:05:00,
2013-03-26 06:06:00,11.1,5.1,29.00,WNW,292,3.1,3.4,76,0.00,,---,0.00,VWS V14.01,2013-03-26 11:06:00,
2013-03-26 06:07:00,11.1,5.1,29.00,WNW,292,2.2,3.4,76,0.00,,---,0.00,VWS V14.01,2013-03-26 11:07:00,
2013-03-26 06:08:00,11.1,5.1,29.00,WNW,292,2.7,2.7,76,0.00,,---,0.00,VWS V14.01,2013-03-26 11:08:00,
2013-03-26 06:09:00,11.1,5.1,29.03,WNW,292,2.5,2.5,76,0.00,,---,0.00,VWS V14.01,2013-03-26 11:09:00,
2013-03-26 06:10:00,11.1,5.1,29.03,WNW,292,2.9,2.9,76,0.00,,---,0.00,VWS V14.01,2013-03-26 11:10:00,
2013-03-26 06:11:00,11.1,5.1,29.03,WNW,292,2.7,2.9,76,0.00,,---,0.00,VWS V14.01,2013-03-26 11:11:00,
2013-03-26 06:12:00,11.3,5.2,29.03,WNW,292,3.4,3.6,76,0.00,,---,0.00,VWS V14.01,2013-03-26 11:12:00,
2013-03-26 06:13:00,11.3,5.2,29.03,WNW,292,3.4,3.4,76,0.00,,---,0.00,VWS V14.01,2013-03-26 11:13:00,
2013-03-26 06:14:00,11.3,5.2,29.03,WNW,292,3.8,3.8,76,0.00,,---,0.00,VWS V14.01,2013-03-26 11:14:00,
2013-03-26 06:15:00,11.3,5.2,29.03,WNW,292,2.9,3.8,76,0.00,,---,0.00,VWS V14.01,2013-03-26 11:15:00,
2013-03-26 06:16:00,11.3,5.2,29.03,WNW,292,2.7,3.1,76,0.00,,---,0.00,VWS V14.01,2013-03-26 11:16:00,
2013-03-26 06:17:00,11.3,5.2,29.03,NW,315,3.6,3.6,76,0.00,,---,0.00,VWS V14.01,2013-03-26 11:17:00,
2013-03-26 06:18:00,11.3,5.2,29.03,NW,315,3.6,3.8,76,0.00,,---,0.00,VWS V14.01,2013-03-26 11:18:00,
2013-03-26 06:19:00,11.3,5.2,29.03,NW,315,2.9,3.6,76,0.00,,---,0.00,VWS V14.01,2013-03-26 11:19:00,
2013-03-26 06:20:00,11.3,5.2,29.03,NW,315,3.4,3.6,76,0.00,,---,0.00,VWS V14.01,2013-03-26 11:20:00,
2013-03-26 06:21:00,11.3,5.2,29.03,NNW,338,3.8,3.8,76,0.00,,---,0.00,VWS V14.01,2013-03-26 11:21:00,
2013-03-26 06:22:00,11.3,5.2,29.03,WNW,292,3.8,3.8,76,0.00,,---,0.00,VWS V14.01,2013-03-26 11:22:00,
2013-03-26 06:23:00,11.3,5.2,29.03,WNW,292,3.4,4.3,76,0.00,,---,0.00,VWS V14.01,2013-03-26 11:23:00,
2013-03-26 06:24:00,11.3,5.2,29.00,WNW,292,3.4,3.4,76,0.00,,---,0.00,VWS V14.01,2013-03-26 11:24:00,
2013-03-26 06:25:00,11.1,5.1,29.00,WNW,292,4.3,5.6,76,0.00,,---,0.00,VWS V14.01,2013-03-26 11:25:00,
2013-03-26 06:26:00,11.1,5.1,29.00,West,270,3.6,4.3,76,0.00,,---,0.00,VWS V14.01,2013-03-26 11:26:00,
2013-03-26 06:27:00,11.1,5.1,29.00,WNW,292,6.0,6.0,76,0.00,,---,0.00,VWS V14.01,2013-03-26 11:27:00,
2013-03-26 06:28:00,10.9,4.9,29.00,West,270,5.6,6.3,76,0.00,,---,0.00,VWS V14.01,2013-03-26 11:28:00,
2013-03-26 06:29:00,10.9,4.9,29.00,WNW,292,5.4,6.5,76,0.00,,---,0.00,VWS V14.01,2013-03-26 11:29:00,
2013-03-26 06:30:00,10.9,4.9,29.00,West,270,3.8,5.6,76,0.00,,---,0.00,VWS V14.01,2013-03-26 11:30:00,
2013-03-26 06:31:00,10.9,4.9,29.00,WNW,292,5.6,6.0,76,0.00,,---,0.00,VWS V14.01,2013-03-26 11:31:00,
2013-03-26 06:32:00,10.9,4.9,29.00,WNW,292,5.4,5.8,76,0.00,,---,0.00,VWS V14.01,2013-03-26 11:32:00,
2013-03-26 06:33:00,10.9,4.9,29.00,WNW,292,4.9,5.4,76,0.00,,---,0.00,VWS V14.01,2013-03-26 11:33:00,
2013-03-26 06:34:00,10.9,4.9,29.00,West,270,4.0,4.9,76,0.00,,---,0.00,VWS V14.01,2013-03-26 11:34:00,
2013-03-26 06:35:00,10.9,4.9,29.00,WSW,248,6.3,6.3,76,0.00,,---,0.00,VWS V14.01,2013-03-26 11:35:00,
2013-03-26 06:36:00,10.8,4.7,29.00,West,270,6.0,6.3,76,0.00,,---,0.00,VWS V14.01,2013-03-26 11:36:00,
2013-03-26 06:37:00,10.8,4.7,29.00,WSW,248,5.4,6.0,76,0.00,,---,0.00,VWS V14.01,2013-03-26 11:37:00,
2013-03-26 06:38:00,10.8,4.7,29.00,WNW,292,4.9,5.6,76,0.00,,---,0.00,VWS V14.01,2013-03-26 11:38:00,
2013-03-26 06:39:00,10.6,4.5,29.00,West,270,2.9,5.4,76,0.00,,---,0.00,VWS V14.01,2013-03-26 11:39:00,
2013-03-26 06:40:00,10.6,4.5,29.00,West,270,4.0,4.0,76,0.00,,---,0.00,VWS V14.01,2013-03-26 11:40:00,
2013-03-26 06:41:00,10.6,4.5,29.00,WSW,248,2.5,4.0,76,0.00,,---,0.00,VWS V14.01,2013-03-26 11:41:00,
2013-03-26 06:42:00,10.6,4.5,29.00,WSW,248,3.6,3.6,76,0.00,,---,0.00,VWS V14.01,2013-03-26 11:42:00,
2013-03-26 06:43:00,10.6,4.5,29.00,WSW,248,2.9,3.6,76,0.00,,---,0.00,VWS V14.01,2013-03-26 11:43:00,
2013-03-26 06:44:00,10.6,4.5,29.00,WSW,248,2.9,2.9,76,0.00,,---,0.00,VWS V14.01,2013-03-26 11:44:00,
2013-03-26 06:45:00,10.4,4.3,29.00,WSW,248,3.4,3.4,76,0.00,,---,0.00,VWS V14.01,2013-03-26 11:45:00,
2013-03-26 06:46:00,10.4,4.3,29.00,WSW,248,3.6,3.8,76,0.00,,---,0.00,VWS V14.01,2013-03-26 11:46:00,
2013-03-26 06:47:00,10.4,4.3,29.00,WSW,248,2.7,3.6,76,0.00,,---,0.00,VWS V14.01,2013-03-26 11:47:00,
2013-03-26 06:48:00,10.0,4.0,29.00,WSW,248,2.5,3.1,76,0.00,,---,0.00,VWS V14.01,2013-03-26 11:48:00,
2013-03-26 06:49:00,10.0,4.0,29.00,WSW,248,2.7,2.9,76,0.00,,---,0.00,VWS V14.01,2013-03-26 11:49:00,
2013-03-26 06:50:00,10.0,4.0,29.00,WSW,248,3.1,3.1,76,0.00,,---,0.00,VWS V14.01,2013-03-26 11:50:00,
2013-03-26 06:51:00,10.0,4.0,29.00,WSW,248,3.4,3.4,76,0.00,,---,0.00,VWS V14.01,2013-03-26 11:51:00,
2013-03-26 06:52:00,9.9,3.8,29.00,WSW,248,3.6,3.6,76,0.00,,---,0.00,VWS V14.01,2013-03-26 11:52:00,
2013-03-26 06:53:00,9.7,3.7,29.00,WSW,248,3.8,3.8,76,0.00,,---,0.00,VWS V14.01,2013-03-26 11:53:00,
2013-03-26 06:54:00,9.7,3.7,29.00,WSW,248,3.4,3.8,76,0.00,,---,0.00,VWS V14.01,2013-03-26 11:54:00,
2013-03-26 06:55:00,9.5,3.5,29.03,WSW,248,3.4,3.8,76,0.00,,---,0.00,VWS V14.01,2013-03-26 11:55:00,
2013-03-26 06:56:00,9.5,3.5,29.03,WSW,248,3.8,3.8,76,0.00,,---,0.00,VWS V14.01,2013-03-26 11:56:00,
2013-03-26 06:57:00,9.5,3.5,29.03,WSW,248,3.4,4.0,76,0.00,,---,0.00,VWS V14.01,2013-03-26 11:57:00,
2013-03-26 06:58:00,9.5,3.5,29.03,WSW,248,4.0,4.0,76,0.00,,---,0.00,VWS V14.01,2013-03-26 11:58:00,
2013-03-26 06:59:00,9.5,3.5,29.03,WSW,248,3.4,4.0,76,0.00,,---,0.00,VWS V14.01,2013-03-26 11:59:00,
2013-03-26 07:00:00,9.3,3.3,29.03,WNW,292,4.7,4.9,76,0.00,,---,0.00,VWS V14.01,2013-03-26 12:00:00,
2013-03-26 07:01:00,9.3,3.3,29.03,WNW,292,4.3,4.7,76,0.00,,---,0.00,VWS V14.01,2013-03-26 12:01:00,
2013-03-26 07:02:00,9.3,3.3,29.03,WNW,292,3.1,4.3,76,0.00,,---,0.00,VWS V14.01,2013-03-26 12:02:00,
2013-03-26 07:03:00,9.1,3.1,29.03,WNW,292,3.6,3.6,76,0.00,,---,0.00,VWS V14.01,2013-03-26 12:03:00,
2013-03-26 07:04:00,9.1,3.1,29.03,WNW,292,4.0,4.3,76,0.00,,---,0.00,VWS V14.01,2013-03-26 12:04:00,
2013-03-26 07:05:00,9.1,3.1,29.03,West,270,3.4,4.0,76,0.00,,---,0.00,VWS V14.01,2013-03-26 12:05:00,
2013-03-26 07:06:00,9.0,3.0,29.03,WSW,248,3.4,3.6,76,0.00,,---,0.00,VWS V14.01,2013-03-26 12:06:00,
2013-03-26 07:07:00,9.0,3.0,29.03,WSW,248,2.5,3.4,76,0.00,,---,0.00,VWS V14.01,2013-03-26 12:07:00,
2013-03-26 07:08:00,9.0,3.0,29.03,WSW,248,3.4,3.4,76,0.00,,---,0.00,VWS V14.01,2013-03-26 12:08:00,
2013-03-26 07:09:00,8.8,2.8,29.03,WSW,248,2.9,3.4,76,0.00,,---,0.00,VWS V14.01,2013-03-26 12:09:00,
2013-03-26 07:10:00,8.8,2.8,29.03,WSW,248,3.1,3.4,76,0.00,,---,0.00,VWS V14.01,2013-03-26 12:10:00,
2013-03-26 07:11:00,8.8,2.8,29.03,WSW,248,2.7,3.1,76,0.00,,---,0.00,VWS V14.01,2013-03-26 12:11:00,
2013-03-26 07:12:00,8.8,2.8,29.03,WSW,248,2.9,2.9,76,0.00,,---,0.00,VWS V14.01,2013-03-26 12:12:00,
2013-03-26 07:13:00,8.8,2.8,29.03,WSW,248,3.1,3.4,76,0.00,,---,0.00,VWS V14.01,2013-03-26 12:13:00,
2013-03-26 07:15:00,8.8,2.8,29.03,WNW,292,4.0,4.0,76,0.00,,---,0.00,VWS V14.01,2013-03-26 12:15:00,
2013-03-26 07:16:00,8.8,2.8,29.03,WNW,292,4.3,4.3,76,0.00,,---,0.00,VWS V14.01,2013-03-26 12:16:00,
2013-03-26 07:17:00,8.8,2.8,29.03,WSW,248,4.3,4.3,76,0.00,,---,0.00,VWS V14.01,2013-03-26 12:17:00,
2013-03-26 07:18:00,8.6,2.6,29.03,WSW,248,4.0,4.0,76,0.00,,---,0.00,VWS V14.01,2013-03-26 12:18:00,
2013-03-26 07:19:00,8.6,2.6,29.03,WSW,248,3.8,4.3,76,0.00,,---,0.00,VWS V14.01,2013-03-26 12:19:00,
2013-03-26 07:20:00,8.6,2.6,29.03,WSW,248,2.9,3.8,76,0.00,,---,0.00,VWS V14.01,2013-03-26 12:20:00,
2013-03-26 07:21:00,8.8,2.8,29.03,WNW,292,1.1,2.9,76,0.00,,---,0.00,VWS V14.01,2013-03-26 12:21:00,
2013-03-26 07:22:00,8.8,2.8,29.03,WNW,292,1.3,2.2,76,0.00,,---,0.00,VWS V14.01,2013-03-26 12:22:00,
2013-03-26 07:23:00,9.0,3.0,29.03,WNW,292,1.1,1.3,76,0.00,,---,0.00,VWS V14.01,2013-03-26 12:23:00,
2013-03-26 07:24:00,9.0,3.0,29.03,WNW,292,1.1,1.3,76,0.00,,---,0.00,VWS V14.01,2013-03-26 12:24:00,
2013-03-26 07:25:00,9.1,3.1,29.03,WNW,292,0.0,1.1,76,0.00,,---,0.00,VWS V14.01,2013-03-26 12:25:00,
2013-03-26 07:26:00,9.1,3.1,29.03,WNW,292,1.3,1.3,76,0.00,,---,0.00,VWS V14.01,2013-03-26 12:26:00,
2013-03-26 07:27:00,9.1,3.1,29.03,West,270,2.5,2.5,76,0.00,,---,0.00,VWS V14.01,2013-03-26 12:27:00,
2013-03-26 07:28:00,9.1,3.1,29.03,WSW,248,3.4,3.4,76,0.00,,---,0.00,VWS V14.01,2013-03-26 12:28:00,
2013-03-26 07:29:00,9.1,3.1,29.03,WSW,248,4.3,4.5,76,0.00,,---,0.00,VWS V14.01,2013-03-26 12:29:00,
2013-03-26 07:30:00,9.1,3.1,29.03,WSW,248,3.1,4.3,76,0.00,,---,0.00,VWS V14.01,2013-03-26 12:30:00,
2013-03-26 07:31:00,9.3,3.3,29.03,WSW,248,2.5,3.1,76,0.00,,---,0.00,VWS V14.01,2013-03-26 12:31:00,
2013-03-26 07:32:00,9.3,3.3,29.03,WNW,292,2.2,3.4,76,0.00,,---,0.00,VWS V14.01,2013-03-26 12:32:00,
2013-03-26 07:33:00,9.7,3.7,29.03,WNW,292,2.2,2.2,76,0.00,,---,0.00,VWS V14.01,2013-03-26 12:33:00,
2013-03-26 07:34:00,9.9,3.8,29.03,WNW,292,2.5,2.5,76,0.00,,---,0.00,VWS V14.01,2013-03-26 12:34:00,
2013-03-26 07:35:00,10.0,4.0,29.03,WNW,292,2.5,2.7,76,0.00,,---,0.00,VWS V14.01,2013-03-26 12:35:00,
2013-03-26 07:36:00,9.7,3.7,29.03,WNW,292,2.0,2.7,76,0.00,,---,0.00,VWS V14.01,2013-03-26 12:36:00,
2013-03-26 07:37:00,9.5,3.5,29.03,WNW,292,2.7,2.7,76,0.00,,---,0.00,VWS V14.01,2013-03-26 12:37:00,
2013-03-26 07:38:00,9.5,3.5,29.03,WSW,248,2.5,2.5,76,0.00,,---,0.00,VWS V14.01,2013-03-26 12:38:00,
2013-03-26 07:39:00,9.3,3.3,29.03,WSW,248,3.1,3.6,76,0.00,,---,0.00,VWS V14.01,2013-03-26 12:39:00,
2013-03-26 07:40:00,9.3,3.3,29.03,WSW,248,2.7,3.1,76,0.00,,---,0.00,VWS V14.01,2013-03-26 12:40:00,
2013-03-26 07:41:00,9.1,3.1,29.03,WSW,248,2.5,2.7,76,0.00,,---,0.00,VWS V14.01,2013-03-26 12:41:00,
2013-03-26 07:42:00,9.1,3.1,29.03,WSW,248,2.2,2.5,76,0.00,,---,0.00,VWS V14.01,2013-03-26 12:42:00,
2013-03-26 07:43:00,9.3,3.3,29.03,WSW,248,2.0,2.0,76,0.00,,---,0.00,VWS V14.01,2013-03-26 12:43:00,
2013-03-26 07:44:00,9.3,3.3,29.03,WSW,248,2.7,2.7,76,0.00,,---,0.00,VWS V14.01,2013-03-26 12:44:00,
2013-03-26 07:45:00,9.3,3.3,29.03,WSW,248,3.6,3.6,76,0.00,,---,0.00,VWS V14.01,2013-03-26 12:45:00,
2013-03-26 07:46:00,9.1,3.1,29.03,WSW,248,2.9,3.6,76,0.00,,---,0.00,VWS V14.01,2013-03-26 12:46:00,
2013-03-26 07:47:00,9.1,3.1,29.03,West,270,4.3,4.3,76,0.00,,---,0.00,VWS V14.01,2013-03-26 12:47:00,
2013-03-26 07:48:00,8.8,2.8,29.03,WSW,248,3.4,4.0,76,0.00,,---,0.00,VWS V14.01,2013-03-26 12:48:00,
2013-03-26 07:49:00,8.8,2.8,29.03,WSW,248,3.6,4.0,76,0.00,,---,0.00,VWS V14.01,2013-03-26 12:49:00,
2013-03-26 07:50:00,8.8,2.8,29.03,WSW,248,4.0,4.3,76,0.00,,---,0.00,VWS V14.01,2013-03-26 12:50:00,
2013-03-26 07:51:00,8.8,2.8,29.03,WSW,248,3.4,4.3,76,0.00,,---,0.00,VWS V14.01,2013-03-26 12:51:00,
2013-03-26 07:52:00,8.8,2.8,29.03,WSW,248,4.0,4.0,76,0.00,,---,0.00,VWS V14.01,2013-03-26 12:52:00,
2013-03-26 07:53:00,8.8,2.8,29.03,WSW,248,3.6,3.6,76,0.00,,---,0.00,VWS V14.01,2013-03-26 12:53:00,
2013-03-26 07:54:00,8.8,2.8,29.03,West,270,2.9,3.6,76,0.00,,---,0.00,VWS V14.01,2013-03-26 12:54:00,
2013-03-26 07:55:00,8.8,2.8,29.03,West,270,2.5,3.6,76,0.00,,---,0.00,VWS V14.01,2013-03-26 12:55:00,
2013-03-26 07:56:00,8.8,2.8,29.03,WSW,248,3.6,3.6,76,0.00,,---,0.00,VWS V14.01,2013-03-26 12:56:00,
2013-03-26 07:57:00,8.6,2.6,29.03,WSW,248,3.8,3.8,76,0.00,,---,0.00,VWS V14.01,2013-03-26 12:57:00,
2013-03-26 07:58:00,8.6,2.6,29.03,WSW,248,4.3,4.3,76,0.00,,---,0.00,VWS V14.01,2013-03-26 12:58:00,
2013-03-26 07:59:00,8.6,2.6,29.03,WSW,248,3.8,4.3,76,0.00,,---,0.00,VWS V14.01,2013-03-26 12:59:00,
2013-03-26 08:00:00,8.6,2.6,29.03,West,270,3.4,3.8,76,0.00,,---,0.00,VWS V14.01,2013-03-26 13:00:00,
2013-03-26 08:01:00,8.6,2.6,29.03,WSW,248,3.4,3.6,76,0.00,,---,0.00,VWS V14.01,2013-03-26 13:01:00,
2013-03-26 08:02:00,8.6,2.6,29.03,WSW,248,3.1,3.4,76,0.00,,---,0.00,VWS V14.01,2013-03-26 13:02:00,
2013-03-26 08:03:00,8.6,2.6,29.03,WSW,248,3.6,3.8,76,0.00,,---,0.00,VWS V14.01,2013-03-26 13:03:00,
2013-03-26 08:04:00,8.6,2.6,29.03,WSW,248,4.3,4.3,76,0.00,,---,0.00,VWS V14.01,2013-03-26 13:04:00,
2013-03-26 08:05:00,8.6,2.6,29.03,WSW,248,4.0,4.3,76,0.00,,---,0.00,VWS V14.01,2013-03-26 13:05:00,
2013-03-26 08:06:00,8.6,2.6,29.03,West,270,2.7,4.0,76,0.00,,---,0.00,VWS V14.01,2013-03-26 13:06:00,
2013-03-26 08:07:00,8.6,2.6,29.03,WSW,248,2.2,2.7,76,0.00,,---,0.00,VWS V14.01,2013-03-26 13:07:00,
2013-03-26 08:08:00,8.8,2.8,29.03,NW,315,2.7,2.7,76,0.00,,---,0.00,VWS V14.01,2013-03-26 13:08:00,
2013-03-26 08:09:00,8.8,2.8,29.03,NW,315,2.7,2.7,76,0.00,,---,0.00,VWS V14.01,2013-03-26 13:09:00,
2013-03-26 08:10:00,8.8,2.8,29.06,West,270,2.9,3.4,76,0.00,,---,0.00,VWS V14.01,2013-03-26 13:10:00,
2013-03-26 08:11:00,8.8,2.8,29.06,WSW,248,3.4,3.6,76,0.00,,---,0.00,VWS V14.01,2013-03-26 13:11:00,
2013-03-26 08:12:00,8.8,2.8,29.06,WSW,248,3.1,3.6,76,0.00,,---,0.00,VWS V14.01,2013-03-26 13:12:00,
2013-03-26 08:13:00,8.8,2.8,29.06,WSW,248,3.4,3.8,76,0.00,,---,0.00,VWS V14.01,2013-03-26 13:13:00,
2013-03-26 08:14:00,8.8,2.8,29.06,West,270,2.9,3.8,76,0.00,,---,0.00,VWS V14.01,2013-03-26 13:14:00,
2013-03-26 08:15:00,8.8,2.8,29.06,WNW,292,2.0,2.9,76,0.00,,---,0.00,VWS V14.01,2013-03-26 13:15:00,
2013-03-26 08:16:00,8.8,2.8,29.06,WNW,292,2.5,2.5,76,0.00,,---,0.00,VWS V14.01,2013-03-26 13:16:00,
2013-03-26 08:17:00,9.0,3.0,29.06,WNW,292,2.2,2.7,76,0.00,,---,0.00,VWS V14.01,2013-03-26 13:17:00,
2013-03-26 08:18:00,9.1,3.1,29.06,WNW,292,2.7,2.9,76,0.00,,---,0.00,VWS V14.01,2013-03-26 13:18:00,
2013-03-26 08:19:00,9.1,3.1,29.06,West,270,3.4,3.4,76,0.00,,---,0.00,VWS V14.01,2013-03-26 13:19:00,
2013-03-26 08:20:00,9.1,3.1,29.06,WSW,248,3.1,3.4,76,0.00,,---,0.00,VWS V14.01,2013-03-26 13:20:00,
2013-03-26 08:21:00,9.1,3.1,29.06,WNW,292,2.0,3.6,76,0.00,,---,0.00,VWS V14.01,2013-03-26 13:21:00,
2013-03-26 08:22:00,9.3,3.3,29.06,WSW,248,2.9,2.9,76,0.00,,---,0.00,VWS V14.01,2013-03-26 13:22:00,
2013-03-26 08:23:00,9.3,3.3,29.06,WSW,248,2.5,3.4,76,0.00,,---,0.00,VWS V14.01,2013-03-26 13:23:00,
2013-03-26 08:24:00,9.3,3.3,29.06,West,270,3.1,3.4,76,0.00,,---,0.00,VWS V14.01,2013-03-26 13:24:00,
2013-03-26 08:25:00,9.3,3.3,29.06,West,270,3.6,3.6,76,0.00,,---,0.00,VWS V14.01,2013-03-26 13:25:00,
2013-03-26 08:26:00,9.3,3.3,29.06,WNW,292,2.7,3.6,76,0.00,,---,0.00,VWS V14.01,2013-03-26 13:26:00,
2013-03-26 08:27:00,9.3,3.3,29.06,WSW,248,2.7,3.1,76,0.00,,---,0.00,VWS V14.01,2013-03-26 13:27:00,
2013-03-26 08:28:00,9.3,3.3,29.06,West,270,2.5,2.9,76,0.00,,---,0.00,VWS V14.01,2013-03-26 13:28:00,
2013-03-26 08:29:00,9.5,3.5,29.06,WSW,248,2.7,3.1,76,0.00,,---,0.00,VWS V14.01,2013-03-26 13:29:00,
2013-03-26 08:30:00,9.5,3.5,29.06,West,270,2.5,2.9,76,0.00,,---,0.00,VWS V14.01,2013-03-26 13:30:00,
2013-03-26 08:31:00,9.5,3.5,29.06,WSW,248,2.7,2.7,76,0.00,,---,0.00,VWS V14.01,2013-03-26 13:31:00,
2013-03-26 08:32:00,9.5,3.5,29.06,WNW,292,2.9,3.4,76,0.00,,---,0.00,VWS V14.01,2013-03-26 13:32:00,
2013-03-26 08:33:00,9.5,3.5,29.06,WSW,248,2.5,3.4,76,0.00,,---,0.00,VWS V14.01,2013-03-26 13:33:00,
2013-03-26 08:34:00,9.5,3.5,29.06,West,270,3.4,3.4,76,0.00,,---,0.00,VWS V14.01,2013-03-26 13:34:00,
2013-03-26 08:35:00,9.5,3.5,29.06,WSW,248,3.1,4.0,76,0.00,,---,0.00,VWS V14.01,2013-03-26 13:35:00,
2013-03-26 08:36:00,9.5,3.5,29.06,WSW,248,3.1,3.1,76,0.00,,---,0.00,VWS V14.01,2013-03-26 13:36:00,
2013-03-26 08:37:00,9.7,3.7,29.06,West,270,2.7,3.6,76,0.00,,---,0.00,VWS V14.01,2013-03-26 13:37:00,
2013-03-26 08:38:00,9.7,3.7,29.06,WSW,248,4.0,4.0,76,0.00,,---,0.00,VWS V14.01,2013-03-26 13:38:00,
2013-03-26 08:39:00,9.7,3.7,29.06,WSW,248,2.7,4.0,76,0.00,,---,0.00,VWS V14.01,2013-03-26 13:39:00,
2013-03-26 08:40:00,9.9,3.8,29.06,WSW,248,4.0,4.0,76,0.00,,---,0.00,VWS V14.01,2013-03-26 13:40:00,
2013-03-26 08:41:00,10.0,4.0,29.06,WSW,248,3.8,4.0,76,0.00,,---,0.00,VWS V14.01,2013-03-26 13:41:00,
2013-03-26 08:42:00,10.0,4.0,29.06,West,270,3.1,3.8,76,0.00,,---,0.00,VWS V14.01,2013-03-26 13:42:00,
2013-03-26 08:43:00,10.2,4.2,29.06,West,270,2.5,3.8,76,0.00,,---,0.00,VWS V14.01,2013-03-26 13:43:00,
2013-03-26 08:44:00,10.2,4.2,29.06,West,270,2.5,3.8,76,0.00,,---,0.00,VWS V14.01,2013-03-26 13:44:00,
2013-03-26 08:45:00,10.2,4.2,29.06,WSW,248,2.9,3.4,76,0.00,,---,0.00,VWS V14.01,2013-03-26 13:45:00,
2013-03-26 08:46:00,10.2,4.2,29.06,WNW,292,1.6,3.4,76,0.00,,---,0.00,VWS V14.01,2013-03-26 13:46:00,
2013-03-26 08:47:00,10.2,4.2,29.06,WNW,292,4.9,4.9,76,0.00,,---,0.00,VWS V14.01,2013-03-26 13:47:00,
2013-03-26 08:48:00,10.6,4.5,29.06,WNW,292,4.0,6.5,76,0.00,,---,0.00,VWS V14.01,2013-03-26 13:48:00,
2013-03-26 08:49:00,10.6,4.5,29.06,WNW,292,4.0,6.5,76,0.00,,---,0.00,VWS V14.01,2013-03-26 13:49:00,
2013-03-26 08:50:00,10.8,4.7,29.06,WNW,292,5.4,5.4,76,0.00,,---,0.00,VWS V14.01,2013-03-26 13:50:00,
2013-03-26 08:51:00,10.9,4.9,29.06,WNW,292,5.8,6.0,76,0.00,,---,0.00,VWS V14.01,2013-03-26 13:51:00,
2013-03-26 08:52:00,10.9,4.9,29.06,WNW,292,3.1,6.0,76,0.00,,---,0.00,VWS V14.01,2013-03-26 13:52:00,
2013-03-26 08:53:00,11.1,5.1,29.06,WNW,292,5.6,5.6,76,0.00,,---,0.00,VWS V14.01,2013-03-26 13:53:00,
2013-03-26 08:55:00,11.1,5.1,29.06,WNW,292,3.8,5.8,76,0.00,,---,0.00,VWS V14.01,2013-03-26 13:55:00,
2013-03-26 08:56:00,11.3,5.2,29.06,West,270,6.7,6.7,76,0.00,,---,0.00,VWS V14.01,2013-03-26 13:56:00,
2013-03-26 08:57:00,11.3,5.2,29.06,NW,315,4.0,6.7,76,0.00,,---,0.00,VWS V14.01,2013-03-26 13:57:00,
2013-03-26 08:58:00,11.5,5.4,29.06,West,270,5.8,8.5,76,0.00,,---,0.00,VWS V14.01,2013-03-26 13:58:00,
2013-03-26 08:59:00,11.7,5.6,29.06,NW,315,7.6,8.5,76,0.00,,---,0.00,VWS V14.01,2013-03-26 13:59:00,
2013-03-26 09:00:00,11.7,5.6,29.06,WNW,292,4.0,7.6,76,0.00,,---,0.00,VWS V14.01,2013-03-26 14:00:00,
2013-03-26 09:01:00,11.7,5.6,29.06,West,270,4.9,4.9,76,0.00,,---,0.00,VWS V14.01,2013-03-26 14:01:00,
2013-03-26 09:02:00,11.7,5.6,29.06,NNW,338,4.5,4.9,76,0.00,,---,0.00,VWS V14.01,2013-03-26 14:02:00,
2013-03-26 09:03:00,11.8,5.8,29.06,WNW,292,3.8,5.6,76,0.00,,---,0.00,VWS V14.01,2013-03-26 14:03:00,
2013-03-26 09:04:00,11.8,5.8,29.06,WNW,292,6.3,6.3,76,0.00,,---,0.00,VWS V14.01,2013-03-26 14:04:00,
2013-03-26 09:05:00,12.0,5.9,29.06,NW,315,5.4,6.3,76,0.00,,---,0.00,VWS V14.01,2013-03-26 14:05:00,
2013-03-26 09:06:00,12.0,5.9,29.06,WNW,292,3.1,5.4,76,0.00,,---,0.00,VWS V14.01,2013-03-26 14:06:00,
2013-03-26 09:07:00,12.2,6.1,29.06,NW,315,4.3,4.7,76,0.00,,---,0.00,VWS V14.01,2013-03-26 14:07:00,
2013-03-26 09:08:00,12.2,6.1,29.06,WSW,248,4.7,4.7,76,0.00,,---,0.00,VWS V14.01,2013-03-26 14:08:00,
2013-03-26 09:09:00,12.2,6.1,29.06,WNW,292,4.0,4.7,76,0.00,,---,0.00,VWS V14.01,2013-03-26 14:09:00,
2013-03-26 09:10:00,12.2,6.1,29.06,WNW,292,6.5,6.5,76,0.00,,---,0.00,VWS V14.01,2013-03-26 14:10:00,
2013-03-26 09:11:00,12.2,6.1,29.06,WNW,292,5.4,6.5,76,0.00,,---,0.00,VWS V14.01,2013-03-26 14:11:00,
2013-03-26 09:12:00,12.4,6.3,29.06,WNW,292,5.6,5.6,76,0.00,,---,0.00,VWS V14.01,2013-03-26 14:12:00,
2013-03-26 09:13:00,12.4,6.3,29.06,WNW,292,5.4,6.3,76,0.00,,---,0.00,VWS V14.01,2013-03-26 14:13:00,
2013-03-26 09:14:00,12.6,6.4,29.06,WNW,292,5.6,5.6,76,0.00,,---,0.00,VWS V14.01,2013-03-26 14:14:00,
2013-03-26 09:15:00,12.6,6.4,29.06,WNW,292,6.3,6.7,76,0.00,,---,0.00,VWS V14.01,2013-03-26 14:15:00,
2013-03-26 09:16:00,12.6,6.4,29.06,WNW,292,4.0,6.3,76,0.00,,---,0.00,VWS V14.01,2013-03-26 14:16:00,
2013-03-26 09:17:00,12.7,6.6,29.06,WNW,292,3.6,4.0,76,0.00,,---,0.00,VWS V14.01,2013-03-26 14:17:00,
2013-03-26 09:18:00,12.7,6.6,29.06,NW,315,2.7,3.6,76,0.00,,---,0.00,VWS V14.01,2013-03-26 14:18:00,
2013-03-26 09:19:00,12.7,6.6,29.06,WSW,248,3.6,4.3,76,0.00,,---,0.00,VWS V14.01,2013-03-26 14:19:00,
2013-03-26 09:20:00,12.9,6.8,29.06,WNW,292,4.0,5.6,76,0.00,,---,0.00,VWS V14.01,2013-03-26 14:20:00,
2013-03-26 09:21:00,12.9,6.8,29.06,NW,315,3.6,4.9,76,0.00,,---,0.00,VWS V14.01,2013-03-26 14:21:00,
2013-03-26 09:22:00,12.9,6.8,29.06,NW,315,5.6,5.6,76,0.00,,---,0.00,VWS V14.01,2013-03-26 14:22:00,
2013-03-26 09:23:00,13.1,7.0,29.06,NNW,338,2.9,5.6,76,0.00,,---,0.00,VWS V14.01,2013-03-26 14:23:00,
2013-03-26 09:24:00,13.1,7.0,29.06,NNW,338,4.9,4.9,76,0.00,,---,0.00,VWS V14.01,2013-03-26 14:24:00,
2013-03-26 09:25:00,13.1,7.0,29.06,NW,315,5.6,5.6,76,0.00,,---,0.00,VWS V14.01,2013-03-26 14:25:00,
2013-03-26 09:26:00,13.5,7.3,29.06,NW,315,7.4,7.4,76,0.00,,---,0.00,VWS V14.01,2013-03-26 14:26:00,
2013-03-26 09:27:00,13.5,7.3,29.06,NW,315,5.4,7.4,76,0.00,,---,0.00,VWS V14.01,2013-03-26 14:27:00,
2013-03-26 09:28:00,13.5,7.3,29.06,NW,315,6.3,6.9,76,0.00,,---,0.00,VWS V14.01,2013-03-26 14:28:00,
2013-03-26 09:29:00,13.6,7.5,29.06,NW,315,3.1,6.3,76,0.00,,---,0.00,VWS V14.01,2013-03-26 14:29:00,
2013-03-26 09:30:00,13.6,7.5,29.06,NNW,338,5.6,5.8,76,0.00,,---,0.00,VWS V14.01,2013-03-26 14:30:00,
2013-03-26 09:31:00,13.6,7.5,29.06,NNW,338,6.0,6.9,76,0.00,,---,0.00,VWS V14.01,2013-03-26 14:31:00,
2013-03-26 09:32:00,13.6,7.5,29.06,NW,315,5.4,6.0,76,0.00,,---,0.00,VWS V14.01,2013-03-26 14:32:00,
2013-03-26 09:33:00,13.8,7.7,29.06,NNW,338,3.8,5.8,76,0.00,,---,0.00,VWS V14.01,2013-03-26 14:33:00,
2013-03-26 09:34:00,13.8,7.7,29.06,NW,315,5.6,5.6,76,0.00,,---,0.00,VWS V14.01,2013-03-26 14:34:00,
2013-03-26 09:35:00,13.8,7.7,29.06,NNW,338,3.4,5.6,76,0.00,,---,0.00,VWS V14.01,2013-03-26 14:35:00,
2013-03-26 09:36:00,14.0,8.4,29.06,NW,315,3.6,4.9,78,0.00,,---,0.00,VWS V14.01,2013-03-26 14:36:00,
2013-03-26 09:37:00,14.0,8.4,29.06,NNW,338,5.4,5.4,78,0.00,,---,0.00,VWS V14.01,2013-03-26 14:37:00,
2013-03-26 09:38:00,14.2,8.3,29.06,WNW,292,4.3,5.6,77,0.00,,---,0.00,VWS V14.01,2013-03-26 14:38:00,
2013-03-26 09:39:00,14.2,8.3,29.06,NW,315,6.0,6.0,77,0.00,,---,0.00,VWS V14.01,2013-03-26 14:39:00,
2013-03-26 09:40:00,14.2,8.3,29.06,NW,315,6.0,6.0,77,0.00,,---,0.00,VWS V14.01,2013-03-26 14:40:00,
2013-03-26 09:41:00,14.2,8.3,29.06,NNW,338,2.5,6.0,77,0.00,,---,0.00,VWS V14.01,2013-03-26 14:41:00,
2013-03-26 09:42:00,14.2,8.3,29.06,WNW,292,6.0,6.0,77,0.00,,---,0.00,VWS V14.01,2013-03-26 14:42:00,
2013-03-26 09:43:00,14.4,8.5,29.06,NNW,338,4.3,6.0,77,0.00,,---,0.00,VWS V14.01,2013-03-26 14:43:00,
2013-03-26 09:44:00,14.4,8.5,29.06,NW,315,4.3,5.6,77,0.00,,---,0.00,VWS V14.01,2013-03-26 14:44:00,
2013-03-26 09:45:00,14.4,8.5,29.06,NNW,338,4.3,7.4,77,0.00,,---,0.00,VWS V14.01,2013-03-26 14:45:00,
2013-03-26 09:46:00,14.4,8.5,29.06,NNW,338,6.5,6.5,77,0.00,,---,0.00,VWS V14.01,2013-03-26 14:46:00,
2013-03-26 09:47:00,14.4,8.2,29.06,NW,315,4.9,6.5,76,0.00,,---,0.00,VWS V14.01,2013-03-26 14:47:00,
2013-03-26 09:48:00,14.4,8.2,29.06,NW,315,3.8,5.4,76,0.00,,---,0.00,VWS V14.01,2013-03-26 14:48:00,
2013-03-26 09:49:00,14.4,8.2,29.06,NW,315,6.5,6.5,76,0.00,,---,0.00,VWS V14.01,2013-03-26 14:49:00,
2013-03-26 09:50:00,14.5,8.4,29.06,WNW,292,3.1,5.4,76,0.00,,---,0.00,VWS V14.01,2013-03-26 14:50:00,
2013-03-26 09:51:00,14.7,8.5,29.06,WNW,292,3.1,3.1,76,0.00,,---,0.00,VWS V14.01,2013-03-26 14:51:00,
2013-03-26 09:52:00,14.7,8.5,29.06,WSW,248,4.9,4.9,76,0.00,,---,0.00,VWS V14.01,2013-03-26 14:52:00,
2013-03-26 09:53:00,14.7,8.5,29.06,WNW,292,4.0,4.9,76,0.00,,---,0.00,VWS V14.01,2013-03-26 14:53:00,
2013-03-26 09:54:00,14.7,8.5,29.06,NW,315,4.0,6.0,76,0.00,,---,0.00,VWS V14.01,2013-03-26 14:54:00,
2013-03-26 09:55:00,14.9,8.7,29.06,NW,315,3.8,4.3,76,0.00,,---,0.00,VWS V14.01,2013-03-26 14:55:00,
2013-03-26 09:56:00,14.9,8.7,29.06,NW,315,7.2,7.2,76,0.00,,---,0.00,VWS V14.01,2013-03-26 14:56:00,
2013-03-26 09:57:00,14.9,8.4,29.06,WNW,292,3.4,7.2,75,0.00,,---,0.00,VWS V14.01,2013-03-26 14:57:00,
2013-03-26 09:58:00,15.1,8.6,29.06,WNW,292,6.0,6.5,75,0.00,,---,0.00,VWS V14.01,2013-03-26 14:58:00,
2013-03-26 09:59:00,15.1,8.6,29.06,NNW,338,3.8,6.0,75,0.00,,---,0.00,VWS V14.01,2013-03-26 14:59:00,
2013-03-26 10:00:00,15.1,8.6,29.06,NW,315,6.5,6.5,75,0.00,,---,0.00,VWS V14.01,2013-03-26 15:00:00,
2013-03-26 10:01:00,15.1,8.6,29.06,NNW,338,4.0,7.8,75,0.00,,---,0.00,VWS V14.01,2013-03-26 15:01:00,
2013-03-26 10:02:00,15.3,8.8,29.06,NW,315,4.9,4.9,75,0.00,,---,0.00,VWS V14.01,2013-03-26 15:02:00,
2013-03-26 10:03:00,15.3,8.8,29.06,WNW,292,4.9,5.4,75,0.00,,---,0.00,VWS V14.01,2013-03-26 15:03:00,
2013-03-26 10:04:00,15.3,8.8,29.06,NNW,338,3.6,4.9,75,0.00,,---,0.00,VWS V14.01,2013-03-26 15:04:00,
2013-03-26 10:05:00,15.4,8.9,29.06,NW,315,3.1,4.9,75,0.00,,---,0.00,VWS V14.01,2013-03-26 15:05:00,
2013-03-26 10:07:00,15.4,8.9,29.06,NNW,338,6.5,6.5,75,0.00,,---,0.00,VWS V14.01,2013-03-26 15:07:00,
2013-03-26 10:08:00,15.6,9.1,29.06,WNW,292,3.8,6.5,75,0.00,,---,0.00,VWS V14.01,2013-03-26 15:08:00,
2013-03-26 10:09:00,15.6,9.1,29.06,NW,315,4.7,4.7,75,0.00,,---,0.00,VWS V14.01,2013-03-26 15:09:00,
2013-03-26 10:10:00,15.8,9.3,29.06,NW,315,5.8,5.8,75,0.00,,---,0.00,VWS V14.01,2013-03-26 15:10:00,
2013-03-26 10:11:00,15.8,9.3,29.06,NW,315,6.3,6.3,75,0.00,,---,0.00,VWS V14.01,2013-03-26 15:11:00,
2013-03-26 10:12:00,15.8,9.3,29.06,NNW,338,5.8,6.3,75,0.00,,---,0.00,VWS V14.01,2013-03-26 15:12:00,
2013-03-26 10:13:00,15.8,9.3,29.06,NW,315,4.0,6.3,75,0.00,,---,0.00,VWS V14.01,2013-03-26 15:13:00,
2013-03-26 10:14:00,16.0,9.5,29.06,WNW,292,3.1,3.1,75,0.00,,---,0.00,VWS V14.01,2013-03-26 15:14:00,
2013-03-26 10:15:00,16.0,9.5,29.06,NW,315,5.4,6.3,75,0.00,,---,0.00,VWS V14.01,2013-03-26 15:15:00,
2013-03-26 10:16:00,16.2,9.6,29.06,NNW,338,3.4,6.3,75,0.00,,---,0.00,VWS V14.01,2013-03-26 15:16:00,
2013-03-26 10:17:00,16.2,9.6,29.06,NW,315,3.4,4.3,75,0.00,,---,0.00,VWS V14.01,2013-03-26 15:17:00,
2013-03-26 10:18:00,16.2,9.6,29.06,NW,315,4.9,5.8,75,0.00,,---,0.00,VWS V14.01,2013-03-26 15:18:00,
2013-03-26 10:19:00,16.2,9.6,29.06,NW,315,4.9,4.9,75,0.00,,---,0.00,VWS V14.01,2013-03-26 15:19:00,
2013-03-26 10:20:00,16.5,10.0,29.06,NNW,338,2.7,5.8,75,0.00,,---,0.00,VWS V14.01,2013-03-26 15:20:00,
2013-03-26 10:21:00,16.5,10.0,29.06,NNW,338,6.0,6.0,75,0.00,,---,0.00,VWS V14.01,2013-03-26 15:21:00,
2013-03-26 10:22:00,16.7,10.2,29.06,NNW,338,4.3,6.0,75,0.00,,---,0.00,VWS V14.01,2013-03-26 15:22:00,
2013-03-26 10:23:00,16.7,10.2,29.06,NW,315,2.9,6.3,75,0.00,,---,0.00,VWS V14.01,2013-03-26 15:23:00,
2013-03-26 10:24:00,16.7,10.2,29.03,NNW,338,3.1,3.1,75,0.00,,---,0.00,VWS V14.01,2013-03-26 15:24:00,
2013-03-26 10:25:00,16.7,10.2,29.03,NNW,338,3.4,4.3,75,0.00,,---,0.00,VWS V14.01,2013-03-26 15:25:00,
2013-03-26 10:26:00,16.9,10.3,29.03,NNW,338,2.9,3.4,75,0.00,,---,0.00,VWS V14.01,2013-03-26 15:26:00,
2013-03-26 10:27:00,16.9,10.3,29.03,NNW,338,5.6,6.0,75,0.00,,---,0.00,VWS V14.01,2013-03-26 15:27:00,
2013-03-26 10:28:00,16.9,10.3,29.03,WNW,292,4.0,5.6,75,0.00,,---,0.00,VWS V14.01,2013-03-26 15:28:00,
2013-03-26 10:29:00,17.1,10.2,29.03,NW,315,6.0,6.3,74,0.00,,---,0.00,VWS V14.01,2013-03-26 15:29:00,
2013-03-26 10:30:00,17.1,10.2,29.03,WNW,292,5.6,6.3,74,0.00,,---,0.00,VWS V14.01,2013-03-26 15:30:00,
2013-03-26 10:31:00,17.1,10.2,29.03,NW,315,4.0,5.6,74,0.00,,---,0.00,VWS V14.01,2013-03-26 15:31:00,
2013-03-26 10:32:00,17.4,10.6,29.03,NNW,338,2.7,4.0,74,0.00,,---,0.00,VWS V14.01,2013-03-26 15:32:00,
2013-03-26 10:33:00,17.4,10.6,29.03,NW,315,4.0,5.4,74,0.00,,---,0.00,VWS V14.01,2013-03-26 15:33:00,
2013-03-26 10:34:00,17.4,10.6,29.03,NW,315,4.3,5.8,74,0.00,,---,0.00,VWS V14.01,2013-03-26 15:34:00,
2013-03-26 10:35:00,17.6,10.7,29.03,NW,315,4.9,4.9,74,0.00,,---,0.00,VWS V14.01,2013-03-26 15:35:00,
2013-03-26 10:36:00,17.6,10.4,29.03,WNW,292,2.7,4.9,73,0.00,,---,0.00,VWS V14.01,2013-03-26 15:36:00,
2013-03-26 10:37:00,17.8,10.6,29.03,NNW,338,3.8,4.7,73,0.00,,---,0.00,VWS V14.01,2013-03-26 15:37:00,
2013-03-26 10:38:00,17.8,10.6,29.03,NW,315,3.8,3.8,73,0.00,,---,0.00,VWS V14.01,2013-03-26 15:38:00,
2013-03-26 10:39:00,18.0,10.8,29.06,NNW,338,4.9,4.9,73,0.00,,---,0.00,VWS V14.01,2013-03-26 15:39:00,
2013-03-26 10:40:00,18.1,11.0,29.06,NW,315,4.3,4.9,73,0.00,,---,0.00,VWS V14.01,2013-03-26 15:40:00,
2013-03-26 10:41:00,18.1,10.6,29.06,NW,315,3.4,4.3,72,0.00,,---,0.00,VWS V14.01,2013-03-26 15:41:00,
2013-03-26 10:42:00,18.1,10.6,29.06,WSW,248,2.9,3.4,72,0.00,,---,0.00,VWS V14.01,2013-03-26 15:42:00,
2013-03-26 10:43:00,18.3,10.8,29.06,WNW,292,4.9,4.9,72,0.00,,---,0.00,VWS V14.01,2013-03-26 15:43:00,
2013-03-26 10:44:00,18.3,10.8,29.06,NW,315,3.1,4.9,72,0.00,,---,0.00,VWS V14.01,2013-03-26 15:44:00,
2013-03-26 10:45:00,18.5,11.0,29.06,WNW,292,4.5,5.6,72,0.00,,---,0.00,VWS V14.01,2013-03-26 15:45:00,
2013-03-26 10:46:00,18.7,10.9,29.06,WNW,292,4.9,4.9,71,0.00,,---,0.00,VWS V14.01,2013-03-26 15:46:00,
2013-03-26 10:47:00,18.7,10.9,29.06,WNW,292,4.9,4.9,71,0.00,,---,0.00,VWS V14.01,2013-03-26 15:47:00,
2013-03-26 10:48:00,18.7,10.9,29.06,West,270,4.0,4.9,71,0.00,,---,0.00,VWS V14.01,2013-03-26 15:48:00,
2013-03-26 10:49:00,19.0,11.2,29.06,WNW,292,6.0,6.0,71,0.00,,---,0.00,VWS V14.01,2013-03-26 15:49:00,
2013-03-26 10:50:00,19.0,11.2,29.06,NW,315,3.8,6.0,71,0.00,,---,0.00,VWS V14.01,2013-03-26 15:50:00,
2013-03-26 10:51:00,19.2,11.4,29.06,NW,315,4.9,5.4,71,0.00,,---,0.00,VWS V14.01,2013-03-26 15:51:00,
2013-03-26 10:52:00,19.2,11.1,29.06,NW,315,6.5,6.5,70,0.00,,---,0.00,VWS V14.01,2013-03-26 15:52:00,
2013-03-26 10:53:00,19.4,11.2,29.06,WSW,248,4.0,6.5,70,0.00,,---,0.00,VWS V14.01,2013-03-26 15:53:00,
2013-03-26 10:54:00,19.4,11.2,29.03,NNW,338,2.7,3.6,70,0.00,,---,0.00,VWS V14.01,2013-03-26 15:54:00,
2013-03-26 10:55:00,19.4,11.2,29.03,NNW,338,3.4,3.6,70,0.00,,---,0.00,VWS V14.01,2013-03-26 15:55:00,
2013-03-26 10:56:00,19.8,11.2,29.03,NW,315,5.4,5.4,69,0.00,,---,0.00,VWS V14.01,2013-03-26 15:56:00,
2013-03-26 10:57:00,19.8,11.2,29.03,WNW,292,3.8,5.4,69,0.00,,---,0.00,VWS V14.01,2013-03-26 15:57:00,
2013-03-26 10:58:00,20.1,11.6,29.03,WNW,292,2.7,3.8,69,0.00,,---,0.00,VWS V14.01,2013-03-26 15:58:00,
2013-03-26 10:59:00,20.1,11.6,29.03,WNW,292,3.1,3.1,69,0.00,,---,0.00,VWS V14.01,2013-03-26 15:59:00,
2013-03-26 11:00:00,20.1,11.6,29.03,WSW,248,3.8,3.8,69,0.00,,---,0.00,VWS V14.01,2013-03-26 16:00:00,
2013-03-26 11:01:00,20.1,11.6,29.03,WSW,248,3.8,3.8,69,0.00,,---,0.00,VWS V14.01,2013-03-26 16:01:00,
2013-03-26 11:02:00,20.5,11.9,29.03,WNW,292,4.5,6.0,69,0.00,,---,0.00,VWS V14.01,2013-03-26 16:02:00,
2013-03-26 11:03:00,20.7,12.1,29.03,WNW,292,5.4,5.4,69,0.00,,---,0.00,VWS V14.01,2013-03-26 16:03:00,
2013-03-26 11:04:00,20.8,12.3,29.03,NNW,338,4.3,4.3,69,0.00,,---,0.00,VWS V14.01,2013-03-26 16:04:00,
2013-03-26 11:05:00,20.8,12.3,29.03,NW,315,4.0,4.3,69,0.00,,---,0.00,VWS V14.01,2013-03-26 16:05:00,
2013-03-26 11:06:00,21.0,12.5,29.03,WNW,292,2.9,4.0,69,0.00,,---,0.00,VWS V14.01,2013-03-26 16:06:00,
2013-03-26 11:07:00,21.0,12.1,29.03,WSW,248,2.7,3.8,68,0.00,,---,0.00,VWS V14.01,2013-03-26 16:07:00,
2013-03-26 11:08:00,21.0,11.8,29.03,West,270,4.9,4.9,67,0.00,,---,0.00,VWS V14.01,2013-03-26 16:08:00,
2013-03-26 11:09:00,21.2,12.0,29.06,WNW,292,5.8,5.8,67,0.00,,---,0.00,VWS V14.01,2013-03-26 16:09:00,
2013-03-26 11:10:00,21.4,12.1,29.06,WNW,292,5.4,6.0,67,0.00,,---,0.00,VWS V14.01,2013-03-26 16:10:00,
2013-03-26 11:11:00,21.6,12.3,29.06,WNW,292,3.6,5.4,67,0.00,,---,0.00,VWS V14.01,2013-03-26 16:11:00,
2013-03-26 11:12:00,21.7,12.5,29.06,NW,315,4.5,4.5,67,0.00,,---,0.00,VWS V14.01,2013-03-26 16:12:00,
2013-03-26 11:13:00,21.7,12.5,29.06,WNW,292,3.1,4.9,67,0.00,,---,0.00,VWS V14.01,2013-03-26 16:13:00,
2013-03-26 11:14:00,21.9,12.0,29.06,West,270,3.4,3.8,65,0.00,,---,0.00,VWS V14.01,2013-03-26 16:14:00,
2013-03-26 11:15:00,21.9,12.0,29.06,WSW,248,4.0,4.0,65,0.00,,---,0.00,VWS V14.01,2013-03-26 16:15:00,
2013-03-26 11:16:00,22.1,12.1,29.06,NW,315,2.9,4.9,65,0.00,,---,0.00,VWS V14.01,2013-03-26 16:16:00,
2013-03-26 11:17:00,22.3,12.3,29.06,NNW,338,3.1,3.8,65,0.00,,---,0.00,VWS V14.01,2013-03-26 16:17:00,
2013-03-26 11:18:00,22.5,12.5,29.06,NW,315,4.3,5.4,65,0.00,,---,0.00,VWS V14.01,2013-03-26 16:18:00,
2013-03-26 11:19:00,22.8,12.8,29.06,NW,315,4.5,4.5,65,0.00,,---,0.00,VWS V14.01,2013-03-26 16:19:00,
2013-03-26 11:20:00,22.8,12.8,29.06,NW,315,4.9,4.9,65,0.00,,---,0.00,VWS V14.01,2013-03-26 16:20:00,
2013-03-26 11:21:00,22.8,12.5,29.06,NNW,338,2.5,4.9,64,0.00,,---,0.00,VWS V14.01,2013-03-26 16:21:00,
2013-03-26 11:22:00,23.4,12.6,29.06,WNW,292,4.0,4.0,63,0.00,,---,0.00,VWS V14.01,2013-03-26 16:22:00,
2013-03-26 11:23:00,23.7,13.0,29.06,NNW,338,3.1,4.0,63,0.00,,---,0.00,VWS V14.01,2013-03-26 16:23:00,
2013-03-26 11:24:00,23.9,13.1,29.06,NNW,338,2.9,3.6,63,0.00,,---,0.00,VWS V14.01,2013-03-26 16:24:00,
2013-03-26 11:25:00,24.3,13.5,29.06,NW,315,2.7,3.6,63,0.00,,---,0.00,VWS V14.01,2013-03-26 16:25:00,
2013-03-26 11:26:00,24.4,13.3,29.06,NNW,338,4.0,4.0,62,0.00,,---,0.00,VWS V14.01,2013-03-26 16:26:00,
2013-03-26 11:27:00,24.4,13.3,29.06,NNW,338,2.9,4.0,62,0.00,,---,0.00,VWS V14.01,2013-03-26 16:27:00,
2013-03-26 11:28:00,25.9,14.7,29.06,NNW,338,4.9,4.9,62,0.00,,---,0.00,VWS V14.01,2013-03-26 16:28:00,
2013-03-26 11:29:00,26.1,14.5,29.06,NW,315,2.5,3.1,61,0.00,,---,0.00,VWS V14.01,2013-03-26 16:29:00,
2013-03-26 11:30:00,26.6,14.6,29.06,WNW,292,2.9,3.1,60,0.00,,---,0.00,VWS V14.01,2013-03-26 16:30:00,
2013-03-26 11:31:00,27.0,14.9,29.06,WSW,248,3.6,3.6,60,0.00,,---,0.00,VWS V14.01,2013-03-26 16:31:00,
2013-03-26 11:32:00,27.0,14.6,29.06,West,270,3.8,5.4,59,0.00,,---,0.00,VWS V14.01,2013-03-26 16:32:00,
2013-03-26 11:33:00,26.8,13.6,29.06,WNW,292,4.0,4.9,57,0.00,,---,0.00,VWS V14.01,2013-03-26 16:33:00,
2013-03-26 11:34:00,26.6,13.0,29.06,WNW,292,5.4,5.4,56,0.00,,---,0.00,VWS V14.01,2013-03-26 16:34:00,
2013-03-26 11:35:00,26.6,13.0,29.06,SW,225,4.9,5.4,56,0.00,,---,0.00,VWS V14.01,2013-03-26 16:35:00,
2013-03-26 11:36:00,26.1,12.1,29.06,WNW,292,4.9,5.6,55,0.00,,---,0.00,VWS V14.01,2013-03-26 16:36:00,
2013-03-26 11:37:00,26.1,12.1,29.06,WSW,248,3.6,4.9,55,0.00,,---,0.00,VWS V14.01,2013-03-26 16:37:00,
2013-03-26 11:38:00,25.7,12.2,29.06,WNW,292,6.3,6.3,56,0.00,,---,0.00,VWS V14.01,2013-03-26 16:38:00,
2013-03-26 11:39:00,25.7,11.8,29.03,WSW,248,4.3,6.0,55,0.00,,---,0.00,VWS V14.01,2013-03-26 16:39:00,
2013-03-26 11:40:00,25.5,12.0,29.03,WNW,292,5.6,6.0,56,0.00,,---,0.00,VWS V14.01,2013-03-26 16:40:00,
2013-03-26 11:41:00,25.3,11.9,29.03,WSW,248,6.3,6.3,56,0.00,,---,0.00,VWS V14.01,2013-03-26 16:41:00,
2013-03-26 11:42:00,25.3,11.9,29.03,WSW,248,5.8,6.3,56,0.00,,---,0.00,VWS V14.01,2013-03-26 16:42:00,
2013-03-26 11:43:00,25.3,11.9,29.03,WNW,292,6.0,6.0,56,0.00,,---,0.00,VWS V14.01,2013-03-26 16:43:00,
2013-03-26 11:44:00,25.3,11.9,29.03,WSW,248,5.8,6.0,56,0.00,,---,0.00,VWS V14.01,2013-03-26 16:44:00,
2013-03-26 11:45:00,25.3,11.9,29.03,WSW,248,6.3,6.3,56,0.00,,---,0.00,VWS V14.01,2013-03-26 16:45:00,
2013-03-26 11:46:00,25.3,12.2,29.03,WSW,248,5.6,6.5,57,0.00,,---,0.00,VWS V14.01,2013-03-26 16:46:00,
2013-03-26 11:47:00,25.2,12.1,29.03,WSW,248,5.8,6.0,57,0.00,,---,0.00,VWS V14.01,2013-03-26 16:47:00,
2013-03-26 11:48:00,25.2,12.1,29.03,WSW,248,4.7,6.3,57,0.00,,---,0.00,VWS V14.01,2013-03-26 16:48:00,
2013-03-26 11:49:00,25.0,11.9,29.03,WSW,248,6.3,7.6,57,0.00,,---,0.00,VWS V14.01,2013-03-26 16:49:00,
2013-03-26 11:50:00,25.0,11.9,29.03,WSW,248,6.3,7.6,57,0.00,,---,0.00,VWS V14.01,2013-03-26 16:50:00,
2013-03-26 11:51:00,25.0,12.3,29.03,WSW,248,7.8,7.8,58,0.00,,---,0.00,VWS V14.01,2013-03-26 16:51:00,
2013-03-26 11:52:00,24.8,12.1,29.03,WSW,248,6.5,8.1,58,0.00,,---,0.00,VWS V14.01,2013-03-26 16:52:00,
2013-03-26 11:53:00,25.0,12.3,29.03,WSW,248,5.4,7.2,58,0.00,,---,0.00,VWS V14.01,2013-03-26 16:53:00,
2013-03-26 11:54:00,25.2,12.1,29.03,WSW,248,4.9,5.4,57,0.00,,---,0.00,VWS V14.01,2013-03-26 16:54:00,
2013-03-26 11:55:00,25.2,12.1,29.03,WSW,248,5.8,5.8,57,0.00,,---,0.00,VWS V14.01,2013-03-26 16:55:00,
2013-03-26 11:56:00,25.0,11.9,29.03,West,270,5.6,6.0,57,0.00,,---,0.00,VWS V14.01,2013-03-26 16:56:00,
2013-03-26 11:57:00,25.0,11.9,29.03,WSW,248,3.6,5.6,57,0.00,,---,0.00,VWS V14.01,2013-03-26 16:57:00,
2013-03-26 11:58:00,25.2,12.5,29.03,WSW,248,7.4,7.4,58,0.00,,---,0.00,VWS V14.01,2013-03-26 16:58:00,
2013-03-26 11:59:00,25.2,12.1,29.03,WSW,248,5.8,5.8,57,0.00,,---,0.00,VWS V14.01,2013-03-26 16:59:00,
2013-03-26 12:00:00,25.3,12.2,29.03,WSW,248,5.4,5.8,57,0.00,,---,0.00,VWS V14.01,2013-03-26 17:00:00,
2013-03-26 12:01:00,25.5,12.8,29.03,WNW,292,4.0,5.4,58,0.00,,---,0.00,VWS V14.01,2013-03-26 17:01:00,
2013-03-26 12:02:00,25.7,13.0,29.03,WSW,248,6.3,6.3,58,0.00,,---,0.00,VWS V14.01,2013-03-26 17:02:00,
2013-03-26 12:03:00,25.7,12.6,29.03,WSW,248,5.4,6.3,57,0.00,,---,0.00,VWS V14.01,2013-03-26 17:03:00,
2013-03-26 12:04:00,26.1,12.9,29.03,WSW,248,4.3,6.0,57,0.00,,---,0.00,VWS V14.01,2013-03-26 17:04:00,
2013-03-26 12:05:00,26.1,12.9,29.03,WSW,248,5.6,6.0,57,0.00,,---,0.00,VWS V14.01,2013-03-26 17:05:00,
2013-03-26 12:06:00,26.4,13.7,29.03,WSW,248,5.8,5.8,58,0.00,,---,0.00,VWS V14.01,2013-03-26 17:06:00,
2013-03-26 12:07:00,27.0,13.8,29.03,NW,315,4.9,5.8,57,0.00,,---,0.00,VWS V14.01,2013-03-26 17:07:00,
2013-03-26 12:08:00,27.0,13.4,29.03,West,270,4.0,4.9,56,0.00,,---,0.00,VWS V14.01,2013-03-26 17:08:00,
2013-03-26 12:09:00,27.0,13.0,29.03,NW,315,4.0,4.7,55,0.00,,---,0.00,VWS V14.01,2013-03-26 17:09:00,
2013-03-26 12:10:00,27.0,13.0,29.03,West,270,6.0,6.0,55,0.00,,---,0.00,VWS V14.01,2013-03-26 17:10:00,
2013-03-26 12:11:00,27.5,13.9,29.03,WSW,248,3.4,6.3,56,0.00,,---,0.00,VWS V14.01,2013-03-26 17:11:00,
2013-03-26 12:12:00,27.3,13.7,29.03,WSW,248,4.5,5.8,56,0.00,,---,0.00,VWS V14.01,2013-03-26 17:12:00,
2013-03-26 12:13:00,27.3,13.3,29.03,WSW,248,2.9,4.5,55,0.00,,---,0.00,VWS V14.01,2013-03-26 17:13:00,
2013-03-26 12:14:00,27.5,13.9,29.03,WNW,292,2.9,6.0,56,0.00,,---,0.00,VWS V14.01,2013-03-26 17:14:00,
2013-03-26 12:15:00,28.6,14.5,29.03,WSW,248,3.8,6.0,55,0.00,,---,0.00,VWS V14.01,2013-03-26 17:15:00,
2013-03-26 12:16:00,29.1,15.0,29.03,WSW,248,2.7,3.8,55,0.00,,---,0.00,VWS V14.01,2013-03-26 17:16:00,
2013-03-26 12:17:00,29.7,15.5,29.03,WSW,248,2.5,3.8,55,0.00,,---,0.00,VWS V14.01,2013-03-26 17:17:00,
2013-03-26 12:18:00,29.5,15.3,29.03,WSW,248,4.3,4.3,55,0.00,,---,0.00,VWS V14.01,2013-03-26 17:18:00,
2013-03-26 12:19:00,30.9,16.7,29.03,WNW,292,4.0,6.0,55,0.00,,---,0.00,VWS V14.01,2013-03-26 17:19:00,
2013-03-26 12:20:00,30.9,16.7,29.03,WSW,248,4.9,6.0,55,0.00,,---,0.00,VWS V14.01,2013-03-26 17:20:00,
2013-03-26 12:21:00,30.9,16.7,29.03,WNW,292,2.9,4.9,55,0.00,,---,0.00,VWS V14.01,2013-03-26 17:21:00,
2013-03-26 12:22:00,31.1,16.4,29.03,West,270,5.4,5.4,54,0.00,,---,0.00,VWS V14.01,2013-03-26 17:22:00,
2013-03-26 12:23:00,31.5,16.8,29.03,WNW,292,4.0,6.0,54,0.00,,---,0.00,VWS V14.01,2013-03-26 17:23:00,
2013-03-26 12:24:00,32.2,17.4,29.03,WNW,292,6.0,6.5,54,0.00,,---,0.00,VWS V14.01,2013-03-26 17:24:00,
2013-03-26 12:25:00,32.2,17.4,29.03,WNW,292,6.3,6.5,54,0.00,,---,0.00,VWS V14.01,2013-03-26 17:25:00,
2013-03-26 12:26:00,32.2,17.4,29.03,WNW,292,7.6,7.6,54,0.00,,---,0.00,VWS V14.01,2013-03-26 17:26:00,
2013-03-26 12:27:00,32.4,17.2,29.03,WSW,248,4.0,7.6,53,0.00,,---,0.00,VWS V14.01,2013-03-26 17:27:00,
2013-03-26 12:28:00,32.4,17.2,29.03,WNW,292,4.0,4.9,53,0.00,,---,0.00,VWS V14.01,2013-03-26 17:28:00,
2013-03-26 12:29:00,33.3,18.0,29.03,NNW,338,4.9,4.9,53,0.00,,---,0.00,VWS V14.01,2013-03-26 17:29:00,
2013-03-26 12:30:00,33.6,17.9,29.03,NNW,338,4.0,4.9,52,0.00,,---,0.00,VWS V14.01,2013-03-26 17:30:00,
2013-03-26 12:31:00,33.3,17.5,29.03,NNW,338,5.8,5.8,52,0.00,,---,0.00,VWS V14.01,2013-03-26 17:31:00,
2013-03-26 12:32:00,33.1,17.4,29.03,NW,315,5.4,5.8,52,0.00,,---,0.00,VWS V14.01,2013-03-26 17:32:00,
2013-03-26 12:33:00,33.3,17.5,29.03,WNW,292,3.8,5.4,52,0.00,,---,0.00,VWS V14.01,2013-03-26 17:33:00,
2013-03-26 12:34:00,33.6,17.9,29.03,NW,315,3.8,4.0,52,0.00,,---,0.00,VWS V14.01,2013-03-26 17:34:00,
2013-03-26 12:35:00,33.6,17.9,29.03,NW,315,3.1,4.0,52,0.00,,---,0.00,VWS V14.01,2013-03-26 17:35:00,
2013-03-26 12:36:00,33.4,17.7,29.03,NW,315,5.4,7.2,52,0.00,,---,0.00,VWS V14.01,2013-03-26 17:36:00,
2013-03-26 12:37:00,33.1,16.9,29.03,NW,315,7.4,7.4,51,0.00,,---,0.00,VWS V14.01,2013-03-26 17:37:00,
2013-03-26 12:38:00,33.1,16.9,29.03,WNW,292,7.4,7.4,51,0.00,,---,0.00,VWS V14.01,2013-03-26 17:38:00,
2013-03-26 12:39:00,33.8,17.6,29.03,NW,315,2.9,3.4,51,0.00,,---,0.00,VWS V14.01,2013-03-26 17:39:00,
2013-03-26 12:40:00,33.8,17.6,29.03,NW,315,2.9,3.4,51,0.00,,---,0.00,VWS V14.01,2013-03-26 17:40:00,
2013-03-26 12:41:00,33.4,17.3,29.03,NNW,338,4.7,4.7,51,0.00,,---,0.00,VWS V14.01,2013-03-26 17:41:00,
2013-03-26 12:42:00,33.8,17.6,29.03,WNW,292,4.9,4.9,51,0.00,,---,0.00,VWS V14.01,2013-03-26 17:42:00,
2013-03-26 12:43:00,33.8,17.6,29.03,WSW,248,4.7,4.9,51,0.00,,---,0.00,VWS V14.01,2013-03-26 17:43:00,
2013-03-26 12:44:00,34.3,18.1,29.03,West,270,4.9,4.9,51,0.00,,---,0.00,VWS V14.01,2013-03-26 17:44:00,
2013-03-26 12:45:00,34.9,18.6,29.03,West,270,4.9,4.9,51,0.00,,---,0.00,VWS V14.01,2013-03-26 17:45:00,
2013-03-26 12:46:00,34.3,18.1,29.03,NW,315,3.4,4.9,51,0.00,,---,0.00,VWS V14.01,2013-03-26 17:46:00,
2013-03-26 12:47:00,34.2,17.5,29.03,NW,315,6.5,6.5,50,0.00,,---,0.00,VWS V14.01,2013-03-26 17:47:00,
2013-03-26 12:48:00,34.3,18.1,29.03,NW,315,4.0,6.5,51,0.00,,---,0.00,VWS V14.01,2013-03-26 17:48:00,
2013-03-26 12:49:00,34.3,18.1,29.03,NW,315,3.8,4.9,51,0.00,,---,0.00,VWS V14.01,2013-03-26 17:49:00,
2013-03-26 12:50:00,34.2,17.9,29.03,WNW,292,6.0,6.0,51,0.00,,---,0.00,VWS V14.01,2013-03-26 17:50:00,
2013-03-26 12:51:00,34.2,17.5,29.03,WNW,292,3.1,6.0,50,0.00,,---,0.00,VWS V14.01,2013-03-26 17:51:00,
2013-03-26 12:52:00,34.5,18.3,29.03,NW,315,5.6,5.6,51,0.00,,---,0.00,VWS V14.01,2013-03-26 17:52:00,
2013-03-26 12:53:00,34.3,17.6,29.03,NNW,338,4.3,5.6,50,0.00,,---,0.00,VWS V14.01,2013-03-26 17:53:00,
2013-03-26 12:54:00,34.5,17.8,29.03,NW,315,4.0,4.7,50,0.00,,---,0.00,VWS V14.01,2013-03-26 17:54:00,
2013-03-26 12:55:00,34.7,18.0,29.03,NW,315,4.5,4.5,50,0.00,,---,0.00,VWS V14.01,2013-03-26 17:55:00,
2013-03-26 12:56:00,35.1,18.3,29.03,NW,315,3.4,4.5,50,0.00,,---,0.00,VWS V14.01,2013-03-26 17:56:00,
2013-03-26 12:57:00,34.9,18.1,29.03,NNW,338,3.4,6.0,50,0.00,,---,0.00,VWS V14.01,2013-03-26 17:57:00,
2013-03-26 12:58:00,35.1,18.3,29.03,NW,315,3.4,4.3,50,0.00,,---,0.00,VWS V14.01,2013-03-26 17:58:00,
2013-03-26 12:59:00,35.1,18.3,29.03,NNW,338,6.3,6.3,50,0.00,,---,0.00,VWS V14.01,2013-03-26 17:59:00,
2013-03-26 13:00:00,35.1,18.3,29.03,NNW,338,4.3,6.3,50,0.00,,---,0.00,VWS V14.01,2013-03-26 18:00:00,
2013-03-26 13:01:00,35.4,18.6,29.03,WNW,292,3.8,3.8,50,0.00,,---,0.00,VWS V14.01,2013-03-26 18:01:00,
2013-03-26 13:02:00,35.8,19.0,29.03,NNW,338,3.8,3.8,50,0.00,,---,0.00,VWS V14.01,2013-03-26 18:02:00,
2013-03-26 13:03:00,35.8,19.0,29.03,WNW,292,5.8,5.8,50,0.00,,---,0.00,VWS V14.01,2013-03-26 18:03:00,
2013-03-26 13:04:00,36.1,19.3,29.03,NNW,338,4.5,5.8,50,0.00,,---,0.00,VWS V14.01,2013-03-26 18:04:00,
2013-03-26 13:05:00,36.7,19.8,29.03,NW,315,2.7,4.5,50,0.00,,---,0.00,VWS V14.01,2013-03-26 18:05:00,
2013-03-26 13:06:00,36.7,19.8,29.03,NW,315,4.0,6.3,50,0.00,,---,0.00,VWS V14.01,2013-03-26 18:06:00,
2013-03-26 13:07:00,36.5,19.6,29.03,NW,315,4.7,6.3,50,0.00,,---,0.00,VWS V14.01,2013-03-26 18:07:00,
2013-03-26 13:08:00,36.5,19.2,29.03,NW,315,3.1,4.7,49,0.00,,---,0.00,VWS V14.01,2013-03-26 18:08:00,
2013-03-26 13:09:00,36.3,19.0,29.03,WNW,292,4.0,4.9,49,0.00,,---,0.00,VWS V14.01,2013-03-26 18:09:00,
2013-03-26 13:10:00,36.3,19.0,29.03,WNW,292,5.6,5.6,49,0.00,,---,0.00,VWS V14.01,2013-03-26 18:10:00,
2013-03-26 13:11:00,36.5,19.6,29.03,West,270,4.0,5.6,50,0.00,,---,0.00,VWS V14.01,2013-03-26 18:11:00,
2013-03-26 13:12:00,36.3,19.0,29.03,NNW,338,3.4,4.0,49,0.00,,---,0.00,VWS V14.01,2013-03-26 18:12:00,
2013-03-26 13:13:00,36.7,19.3,29.03,WNW,292,2.5,3.8,49,0.00,,---,0.00,VWS V14.01,2013-03-26 18:13:00,
2013-03-26 13:14:00,36.7,19.3,29.03,WNW,292,4.0,4.0,49,0.00,,---,0.00,VWS V14.01,2013-03-26 18:14:00,
2013-03-26 13:15:00,37.4,20.0,29.03,NW,315,3.1,3.1,49,0.00,,---,0.00,VWS V14.01,2013-03-26 18:15:00,
2013-03-26 13:16:00,37.2,19.8,29.03,WNW,292,1.6,3.1,49,0.00,,---,0.00,VWS V14.01,2013-03-26 18:16:00,
2013-03-26 13:17:00,37.4,20.0,29.03,West,270,2.9,4.7,49,0.00,,---,0.00,VWS V14.01,2013-03-26 18:17:00,
2013-03-26 13:18:00,37.4,20.0,29.03,WSW,248,2.7,3.1,49,0.00,,---,0.00,VWS V14.01,2013-03-26 18:18:00,
2013-03-26 13:19:00,37.0,19.7,29.03,NNW,338,6.0,6.0,49,0.00,,---,0.00,VWS V14.01,2013-03-26 18:19:00,
2013-03-26 13:20:00,37.0,19.7,29.03,WNW,292,2.9,6.0,49,0.00,,---,0.00,VWS V14.01,2013-03-26 18:20:00,
2013-03-26 13:21:00,37.0,19.7,29.03,WNW,292,3.1,5.4,49,0.00,,---,0.00,VWS V14.01,2013-03-26 18:21:00,
2013-03-26 13:22:00,37.2,19.8,29.03,West,270,3.4,3.6,49,0.00,,---,0.00,VWS V14.01,2013-03-26 18:22:00,
2013-03-26 13:23:00,37.6,19.7,29.03,NNW,338,4.0,5.4,48,0.00,,---,0.00,VWS V14.01,2013-03-26 18:23:00,
2013-03-26 13:24:00,37.6,19.7,29.03,West,270,5.6,5.6,48,0.00,,---,0.00,VWS V14.01,2013-03-26 18:24:00,
2013-03-26 13:25:00,37.6,19.7,29.00,WNW,292,3.8,5.6,48,0.00,,---,0.00,VWS V14.01,2013-03-26 18:25:00,
2013-03-26 13:26:00,36.5,19.2,29.00,NNW,338,4.7,5.4,49,0.00,,---,0.00,VWS V14.01,2013-03-26 18:26:00,
2013-03-26 13:27:00,36.5,19.2,29.00,NNW,338,3.6,4.7,49,0.00,,---,0.00,VWS V14.01,2013-03-26 18:27:00,
2013-03-26 13:28:00,36.5,19.2,29.00,NW,315,2.7,3.6,49,0.00,,---,0.00,VWS V14.01,2013-03-26 18:28:00,
2013-03-26 13:29:00,37.6,19.7,29.00,NW,315,3.8,3.8,48,0.00,,---,0.00,VWS V14.01,2013-03-26 18:29:00,
2013-03-26 13:30:00,37.4,19.5,29.00,NNW,338,3.1,3.1,48,0.00,,---,0.00,VWS V14.01,2013-03-26 18:30:00,
2013-03-26 13:31:00,37.2,19.4,29.00,NW,315,5.4,6.0,48,0.00,,---,0.00,VWS V14.01,2013-03-26 18:31:00,
2013-03-26 13:32:00,37.2,19.4,29.00,NW,315,4.3,5.4,48,0.00,,---,0.00,VWS V14.01,2013-03-26 18:32:00,
2013-03-26 13:33:00,36.9,19.5,29.00,West,270,3.6,4.3,49,0.00,,---,0.00,VWS V14.01,2013-03-26 18:33:00,
2013-03-26 13:34:00,36.5,19.2,29.00,WSW,248,3.1,4.3,49,0.00,,---,0.00,VWS V14.01,2013-03-26 18:34:00,
2013-03-26 13:35:00,37.0,19.7,29.00,WNW,292,5.4,5.4,49,0.00,,---,0.00,VWS V14.01,2013-03-26 18:35:00,
2013-03-26 13:36:00,37.0,19.7,29.00,West,270,3.8,5.8,49,0.00,,---,0.00,VWS V14.01,2013-03-26 18:36:00,
2013-03-26 13:37:00,37.2,19.8,29.00,WNW,292,4.3,4.3,49,0.00,,---,0.00,VWS V14.01,2013-03-26 18:37:00,
2013-03-26 13:38:00,37.0,19.7,29.00,WSW,248,3.8,4.3,49,0.00,,---,0.00,VWS V14.01,2013-03-26 18:38:00,
2013-03-26 13:39:00,37.4,19.0,29.00,WNW,292,2.7,3.8,47,0.00,,---,0.00,VWS V14.01,2013-03-26 18:39:00,
2013-03-26 13:40:00,37.9,20.0,29.00,WNW,292,2.7,2.7,48,0.00,,---,0.00,VWS V14.01,2013-03-26 18:40:00,
2013-03-26 13:41:00,38.5,20.5,29.00,NNW,338,2.5,4.3,48,0.00,,---,0.00,VWS V14.01,2013-03-26 18:41:00,
2013-03-26 13:42:00,37.6,19.7,29.00,WNW,292,4.3,4.3,48,0.00,,---,0.00,VWS V14.01,2013-03-26 18:42:00,
2013-03-26 13:43:00,38.1,20.2,29.00,NNW,338,3.1,4.9,48,0.00,,---,0.00,VWS V14.01,2013-03-26 18:43:00,
2013-03-26 13:44:00,37.9,20.0,29.00,WNW,292,2.9,4.0,48,0.00,,---,0.00,VWS V14.01,2013-03-26 18:44:00,
2013-03-26 13:45:00,38.1,20.2,29.00,NNW,338,6.3,6.3,48,0.00,,---,0.00,VWS V14.01,2013-03-26 18:45:00,
2013-03-26 13:46:00,37.8,19.9,29.00,NW,315,4.0,6.3,48,0.00,,---,0.00,VWS V14.01,2013-03-26 18:46:00,
2013-03-26 13:47:00,37.4,19.5,29.00,North,0,3.6,4.0,48,0.00,,---,0.00,VWS V14.01,2013-03-26 18:47:00,
2013-03-26 13:48:00,37.0,19.2,29.00,NW,315,3.6,4.9,48,0.00,,---,0.00,VWS V14.01,2013-03-26 18:48:00,
2013-03-26 13:49:00,37.8,19.9,29.00,NW,315,3.1,3.6,48,0.00,,---,0.00,VWS V14.01,2013-03-26 18:49:00,
2013-03-26 13:50:00,37.9,20.5,29.00,WNW,292,3.4,3.4,49,0.00,,---,0.00,VWS V14.01,2013-03-26 18:50:00,
2013-03-26 13:51:00,38.1,20.7,29.00,WSW,248,3.4,4.3,49,0.00,,---,0.00,VWS V14.01,2013-03-26 18:51:00,
2013-03-26 13:52:00,38.7,21.2,29.00,WNW,292,4.0,4.0,49,0.00,,---,0.00,VWS V14.01,2013-03-26 18:52:00,
2013-03-26 13:53:00,39.2,21.7,29.00,NW,315,5.8,5.8,49,0.00,,---,0.00,VWS V14.01,2013-03-26 18:53:00,
2013-03-26 13:54:00,38.8,20.8,29.00,WNW,292,4.0,5.8,48,0.00,,---,0.00,VWS V14.01,2013-03-26 18:54:00,
2013-03-26 13:55:00,39.2,21.2,29.00,NW,315,3.4,3.4,48,0.00,,---,0.00,VWS V14.01,2013-03-26 18:55:00,
2013-03-26 13:56:00,39.2,21.2,29.00,West,270,3.1,4.5,48,0.00,,---,0.00,VWS V14.01,2013-03-26 18:56:00,
2013-03-26 13:57:00,39.2,21.2,29.00,NW,315,4.5,5.4,48,0.00,,---,0.00,VWS V14.01,2013-03-26 18:57:00,
2013-03-26 13:58:00,39.4,20.8,29.00,West,270,3.8,4.7,47,0.00,,---,0.00,VWS V14.01,2013-03-26 18:58:00,
2013-03-26 14:00:00,39.0,21.0,29.00,NNE,22,4.9,6.5,48,0.00,,---,0.00,VWS V14.01,2013-03-26 19:00:00,
2013-03-26 14:01:00,39.4,21.3,29.00,WNW,292,5.4,5.4,48,0.00,,---,0.00,VWS V14.01,2013-03-26 19:01:00,
2013-03-26 14:02:00,38.7,20.2,29.00,West,270,4.5,5.6,47,0.00,,---,0.00,VWS V14.01,2013-03-26 19:02:00,
2013-03-26 14:03:00,38.7,20.2,29.00,WSW,248,3.8,6.3,47,0.00,,---,0.00,VWS V14.01,2013-03-26 19:03:00,
2013-03-26 14:04:00,38.7,20.2,29.00,WNW,292,4.9,4.9,47,0.00,,---,0.00,VWS V14.01,2013-03-26 19:04:00,
2013-03-26 14:05:00,37.4,18.5,29.00,WSW,248,4.3,4.3,46,0.00,,---,0.00,VWS V14.01,2013-03-26 19:05:00,
2013-03-26 14:06:00,37.0,18.7,29.00,SW,225,4.0,4.9,47,0.00,,---,0.00,VWS V14.01,2013-03-26 19:06:00,
2013-03-26 14:07:00,36.5,18.2,29.00,West,270,4.3,4.9,47,0.00,,---,0.00,VWS V14.01,2013-03-26 19:07:00,
2013-03-26 14:08:00,35.8,17.5,29.00,WNW,292,4.3,4.3,47,0.00,,---,0.00,VWS V14.01,2013-03-26 19:08:00,
2013-03-26 14:09:00,35.2,18.0,29.03,WSW,248,3.4,4.3,49,0.00,,---,0.00,VWS V14.01,2013-03-26 19:09:00,
2013-03-26 14:10:00,34.9,17.7,29.03,WSW,248,4.0,4.0,49,0.00,,---,0.00,VWS V14.01,2013-03-26 19:10:00,
2013-03-26 14:11:00,34.5,17.3,29.03,WSW,248,5.4,5.6,49,0.00,,---,0.00,VWS V14.01,2013-03-26 19:11:00,
2013-03-26 14:12:00,34.5,17.3,29.03,WSW,248,5.8,5.8,49,0.00,,---,0.00,VWS V14.01,2013-03-26 19:12:00,
2013-03-26 14:13:00,34.5,17.3,29.03,WNW,292,3.6,5.8,49,0.00,,---,0.00,VWS V14.01,2013-03-26 19:13:00,
2013-03-26 14:14:00,34.0,17.3,29.03,WSW,248,3.8,4.3,50,0.00,,---,0.00,VWS V14.01,2013-03-26 19:14:00,
2013-03-26 14:15:00,33.8,17.1,29.03,WSW,248,3.4,4.3,50,0.00,,---,0.00,VWS V14.01,2013-03-26 19:15:00,
2013-03-26 14:16:00,33.8,17.1,29.03,WSW,248,3.6,4.3,50,0.00,,---,0.00,VWS V14.01,2013-03-26 19:16:00,
2013-03-26 14:17:00,33.8,17.1,29.03,WSW,248,3.1,3.6,50,0.00,,---,0.00,VWS V14.01,2013-03-26 19:17:00,
2013-03-26 14:18:00,33.8,17.1,29.03,WSW,248,3.4,4.7,50,0.00,,---,0.00,VWS V14.01,2013-03-26 19:18:00,
2013-03-26 14:19:00,34.0,17.3,29.03,WSW,248,2.7,3.8,50,0.00,,---,0.00,VWS V14.01,2013-03-26 19:19:00,
2013-03-26 14:20:00,33.8,17.1,29.03,WSW,248,3.8,3.8,50,0.00,,---,0.00,VWS V14.01,2013-03-26 19:20:00,
2013-03-26 14:21:00,33.6,17.4,29.03,WNW,292,5.8,5.8,51,0.00,,---,0.00,VWS V14.01,2013-03-26 19:21:00,
2013-03-26 14:22:00,34.2,17.9,29.03,West,270,3.1,6.3,51,0.00,,---,0.00,VWS V14.01,2013-03-26 19:22:00,
2013-03-26 14:23:00,34.0,17.8,29.03,WNW,292,5.4,5.8,51,0.00,,---,0.00,VWS V14.01,2013-03-26 19:23:00,
2013-03-26 14:24:00,34.0,17.3,29.03,WSW,248,5.4,5.4,50,0.00,,---,0.00,VWS V14.01,2013-03-26 19:24:00,
2013-03-26 14:25:00,34.2,17.5,29.03,WSW,248,3.1,3.6,50,0.00,,---,0.00,VWS V14.01,2013-03-26 19:25:00,
2013-03-26 14:26:00,34.2,17.5,29.03,WSW,248,4.7,5.4,50,0.00,,---,0.00,VWS V14.01,2013-03-26 19:26:00,
2013-03-26 14:27:00,34.2,17.9,29.03,WNW,292,2.7,4.7,51,0.00,,---,0.00,VWS V14.01,2013-03-26 19:27:00,
2013-03-26 14:28:00,35.2,18.9,29.03,NW,315,5.4,5.4,51,0.00,,---,0.00,VWS V14.01,2013-03-26 19:28:00,
2013-03-26 14:29:00,35.1,18.8,29.03,NNW,338,4.7,5.8,51,0.00,,---,0.00,VWS V14.01,2013-03-26 19:29:00,
2013-03-26 14:30:00,35.6,18.8,29.03,WNW,292,5.4,5.6,50,0.00,,---,0.00,VWS V14.01,2013-03-26 19:30:00,
2013-03-26 14:31:00,36.1,19.8,29.03,NW,315,4.3,5.6,51,0.00,,---,0.00,VWS V14.01,2013-03-26 19:31:00,
2013-03-26 14:32:00,36.3,19.9,29.03,WSW,248,2.7,5.4,51,0.00,,---,0.00,VWS V14.01,2013-03-26 19:32:00,
2013-03-26 14:33:00,36.7,20.3,29.03,NW,315,4.3,4.3,51,0.00,,---,0.00,VWS V14.01,2013-03-26 19:33:00,
2013-03-26 14:34:00,36.7,19.8,29.03,NNW,338,5.4,6.0,50,0.00,,---,0.00,VWS V14.01,2013-03-26 19:34:00,
2013-03-26 14:35:00,36.5,19.6,29.03,NW,315,4.7,4.9,50,0.00,,---,0.00,VWS V14.01,2013-03-26 19:35:00,
2013-03-26 14:36:00,36.9,20.0,29.03,NNW,338,4.7,4.9,50,0.00,,---,0.00,VWS V14.01,2013-03-26 19:36:00,
2013-03-26 14:37:00,36.7,19.8,29.03,NNW,338,5.6,5.6,50,0.00,,---,0.00,VWS V14.01,2013-03-26 19:37:00,
2013-03-26 14:38:00,36.7,19.8,29.03,NNW,338,3.6,5.6,50,0.00,,---,0.00,VWS V14.01,2013-03-26 19:38:00,
2013-03-26 14:39:00,36.7,19.8,29.03,NNW,338,2.0,3.6,50,0.00,,---,0.00,VWS V14.01,2013-03-26 19:39:00,
2013-03-26 14:40:00,36.5,19.6,29.03,WNW,292,4.3,7.4,50,0.00,,---,0.00,VWS V14.01,2013-03-26 19:40:00,
2013-03-26 14:41:00,36.1,19.3,29.03,WNW,292,4.3,7.4,50,0.00,,---,0.00,VWS V14.01,2013-03-26 19:41:00,
2013-03-26 14:42:00,36.5,19.6,29.03,NW,315,2.9,4.9,50,0.00,,---,0.00,VWS V14.01,2013-03-26 19:42:00,
2013-03-26 14:43:00,36.5,19.6,29.03,NW,315,2.9,2.9,50,0.00,,---,0.00,VWS V14.01,2013-03-26 19:43:00,
2013-03-26 14:44:00,37.0,20.1,29.03,NNW,338,5.4,5.4,50,0.00,,---,0.00,VWS V14.01,2013-03-26 19:44:00,
2013-03-26 14:45:00,36.7,19.8,29.03,West,270,5.6,5.6,50,0.00,,---,0.00,VWS V14.01,2013-03-26 19:45:00,
2013-03-26 14:46:00,36.7,19.8,29.03,WSW,248,3.8,5.6,50,0.00,,---,0.00,VWS V14.01,2013-03-26 19:46:00,
2013-03-26 14:47:00,36.0,18.7,29.03,West,270,5.6,5.6,49,0.00,,---,0.00,VWS V14.01,2013-03-26 19:47:00,
2013-03-26 14:48:00,35.6,18.3,29.03,WNW,292,3.8,6.3,49,0.00,,---,0.00,VWS V14.01,2013-03-26 19:48:00,
2013-03-26 14:49:00,36.1,19.3,29.03,NW,315,3.8,5.8,50,0.00,,---,0.00,VWS V14.01,2013-03-26 19:49:00,
2013-03-26 14:50:00,36.3,19.5,29.03,NNE,22,4.0,4.0,50,0.00,,---,0.00,VWS V14.01,2013-03-26 19:50:00,
2013-03-26 14:51:00,36.7,19.8,29.03,NW,315,3.1,4.0,50,0.00,,---,0.00,VWS V14.01,2013-03-26 19:51:00,
2013-03-26 14:52:00,36.7,19.8,29.03,WNW,292,3.6,3.8,50,0.00,,---,0.00,VWS V14.01,2013-03-26 19:52:00,
2013-03-26 14:53:00,36.3,19.5,29.03,NW,315,4.0,5.8,50,0.00,,---,0.00,VWS V14.01,2013-03-26 19:53:00,
2013-03-26 14:54:00,36.1,19.3,29.03,WNW,292,4.3,4.5,50,0.00,,---,0.00,VWS V14.01,2013-03-26 19:54:00,
2013-03-26 14:55:00,35.6,18.8,29.03,West,270,3.4,3.4,50,0.00,,---,0.00,VWS V14.01,2013-03-26 19:55:00,
2013-03-26 14:56:00,35.4,18.6,29.03,WNW,292,5.4,5.4,50,0.00,,---,0.00,VWS V14.01,2013-03-26 19:56:00,
2013-03-26 14:57:00,35.4,18.6,29.03,WNW,292,4.0,6.0,50,0.00,,---,0.00,VWS V14.01,2013-03-26 19:57:00,
2013-03-26 14:58:00,35.6,18.8,29.03,NW,315,4.0,5.8,50,0.00,,---,0.00,VWS V14.01,2013-03-26 19:58:00,
2013-03-26 14:59:00,35.8,19.0,29.03,WSW,248,2.7,4.0,50,0.00,,---,0.00,VWS V14.01,2013-03-26 19:59:00,
2013-03-26 15:00:00,34.9,18.1,29.03,West,270,3.4,3.8,50,0.00,,---,0.00,VWS V14.01,2013-03-26 20:00:00,
2013-03-26 15:01:00,34.9,18.1,29.03,WNW,292,3.6,3.8,50,0.00,,---,0.00,VWS V14.01,2013-03-26 20:01:00,
2013-03-26 15:02:00,35.1,18.3,29.03,NNW,338,3.6,3.6,50,0.00,,---,0.00,VWS V14.01,2013-03-26 20:02:00,
2013-03-26 15:03:00,35.1,18.3,29.03,WSW,248,4.7,4.7,50,0.00,,---,0.00,VWS V14.01,2013-03-26 20:03:00,
2013-03-26 15:04:00,34.9,18.6,29.03,WSW,248,4.0,4.7,51,0.00,,---,0.00,VWS V14.01,2013-03-26 20:04:00,
2013-03-26 15:05:00,35.1,18.8,29.03,West,270,3.8,3.8,51,0.00,,---,0.00,VWS V14.01,2013-03-26 20:05:00,
2013-03-26 15:06:00,35.1,18.8,29.03,WNW,292,4.0,4.0,51,0.00,,---,0.00,VWS V14.01,2013-03-26 20:06:00,
2013-03-26 15:07:00,35.1,18.8,29.03,WNW,292,3.8,6.5,51,0.00,,---,0.00,VWS V14.01,2013-03-26 20:07:00,
2013-03-26 15:08:00,34.9,19.1,29.03,NW,315,3.8,4.9,52,0.00,,---,0.00,VWS V14.01,2013-03-26 20:08:00,
2013-03-26 15:09:00,35.1,19.2,29.03,NNW,338,5.6,5.6,52,0.00,,---,0.00,VWS V14.01,2013-03-26 20:09:00,
2013-03-26 15:10:00,35.1,19.2,29.03,North,0,4.3,4.3,52,0.00,,---,0.00,VWS V14.01,2013-03-26 20:10:00,
2013-03-26 15:11:00,35.1,18.8,29.03,NW,315,5.6,5.6,51,0.00,,---,0.00,VWS V14.01,2013-03-26 20:11:00,
2013-03-26 15:12:00,35.1,18.8,29.03,WNW,292,4.9,6.3,51,0.00,,---,0.00,VWS V14.01,2013-03-26 20:12:00,
2013-03-26 15:13:00,35.1,18.8,29.03,WNW,292,4.9,4.9,51,0.00,,---,0.00,VWS V14.01,2013-03-26 20:13:00,
2013-03-26 15:14:00,35.1,18.8,29.03,West,270,5.8,5.8,51,0.00,,---,0.00,VWS V14.01,2013-03-26 20:14:00,
2013-03-26 15:15:00,35.1,19.2,29.03,NW,315,2.5,3.4,52,0.00,,---,0.00,VWS V14.01,2013-03-26 20:15:00,
2013-03-26 15:16:00,35.1,19.2,29.03,NNW,338,2.9,3.4,52,0.00,,---,0.00,VWS V14.01,2013-03-26 20:16:00,
2013-03-26 15:17:00,35.4,19.6,29.03,NW,315,5.4,6.0,52,0.00,,---,0.00,VWS V14.01,2013-03-26 20:17:00,
2013-03-26 15:18:00,35.4,19.6,29.03,West,270,2.9,5.4,52,0.00,,---,0.00,VWS V14.01,2013-03-26 20:18:00,
2013-03-26 15:20:00,35.4,19.6,29.03,WNW,292,3.4,3.4,52,0.00,,---,0.00,VWS V14.01,2013-03-26 20:20:00,
2013-03-26 15:21:00,35.4,19.6,29.03,West,270,3.4,3.4,52,0.00,,---,0.00,VWS V14.01,2013-03-26 20:21:00,
2013-03-26 15:22:00,35.4,19.6,29.03,WNW,292,3.6,4.0,52,0.00,,---,0.00,VWS V14.01,2013-03-26 20:22:00,
2013-03-26 15:23:00,35.2,18.9,29.03,WNW,292,4.0,4.0,51,0.00,,---,0.00,VWS V14.01,2013-03-26 20:23:00,
2013-03-26 15:24:00,35.2,18.9,29.06,WSW,248,4.0,6.5,51,0.00,,---,0.00,VWS V14.01,2013-03-26 20:24:00,
2013-03-26 15:25:00,34.5,18.7,29.06,WSW,248,2.9,4.0,52,0.00,,---,0.00,VWS V14.01,2013-03-26 20:25:00,
2013-03-26 15:26:00,34.5,18.7,29.06,WSW,248,2.9,4.0,52,0.00,,---,0.00,VWS V14.01,2013-03-26 20:26:00,
2013-03-26 15:27:00,34.5,18.7,29.06,West,270,3.6,3.6,52,0.00,,---,0.00,VWS V14.01,2013-03-26 20:27:00,
2013-03-26 15:28:00,34.5,18.7,29.06,WNW,292,4.3,4.3,52,0.00,,---,0.00,VWS V14.01,2013-03-26 20:28:00,
2013-03-26 15:29:00,34.3,18.6,29.06,NW,315,1.3,4.9,52,0.00,,---,0.00,VWS V14.01,2013-03-26 20:29:00,
2013-03-26 15:30:00,34.7,18.9,29.06,NNW,338,2.9,3.6,52,0.00,,---,0.00,VWS V14.01,2013-03-26 20:30:00,
2013-03-26 15:31:00,34.7,18.9,29.06,NNW,338,3.6,3.6,52,0.00,,---,0.00,VWS V14.01,2013-03-26 20:31:00,
2013-03-26 15:32:00,34.7,18.9,29.06,NW,315,4.0,4.0,52,0.00,,---,0.00,VWS V14.01,2013-03-26 20:32:00,
2013-03-26 15:33:00,34.9,19.5,29.06,WNW,292,2.0,4.0,53,0.00,,---,0.00,VWS V14.01,2013-03-26 20:33:00,
2013-03-26 15:34:00,35.1,19.2,29.06,WNW,292,3.4,3.4,52,0.00,,---,0.00,VWS V14.01,2013-03-26 20:34:00,
2013-03-26 15:35:00,35.1,19.2,29.06,West,270,2.5,4.3,52,0.00,,---,0.00,VWS V14.01,2013-03-26 20:35:00,
2013-03-26 15:36:00,35.1,19.2,29.06,WSW,248,3.8,4.3,52,0.00,,---,0.00,VWS V14.01,2013-03-26 20:36:00,
2013-03-26 15:37:00,35.1,19.2,29.06,WSW,248,3.6,4.7,52,0.00,,---,0.00,VWS V14.01,2013-03-26 20:37:00,
2013-03-26 15:38:00,34.5,18.7,29.06,WSW,248,3.8,3.8,52,0.00,,---,0.00,VWS V14.01,2013-03-26 20:38:00,
2013-03-26 15:39:00,34.0,18.2,29.03,WNW,292,4.3,4.3,52,0.00,,---,0.00,VWS V14.01,2013-03-26 20:39:00,
2013-03-26 15:40:00,33.6,18.3,29.03,WSW,248,3.8,4.7,53,0.00,,---,0.00,VWS V14.01,2013-03-26 20:40:00,
2013-03-26 15:41:00,33.6,18.3,29.03,WSW,248,4.5,4.7,53,0.00,,---,0.00,VWS V14.01,2013-03-26 20:41:00,
2013-03-26 15:42:00,33.6,18.3,29.03,WSW,248,4.0,4.5,53,0.00,,---,0.00,VWS V14.01,2013-03-26 20:42:00,
2013-03-26 15:43:00,33.6,18.3,29.03,NW,315,4.0,4.7,53,0.00,,---,0.00,VWS V14.01,2013-03-26 20:43:00,
2013-03-26 15:44:00,33.6,19.2,29.03,WNW,292,5.8,5.8,55,0.00,,---,0.00,VWS V14.01,2013-03-26 20:44:00,
2013-03-26 15:45:00,33.3,18.4,29.03,West,270,5.4,5.6,54,0.00,,---,0.00,VWS V14.01,2013-03-26 20:45:00,
2013-03-26 15:46:00,33.3,18.4,29.03,West,270,5.4,5.6,54,0.00,,---,0.00,VWS V14.01,2013-03-26 20:46:00,
2013-03-26 15:47:00,33.3,18.4,29.03,WSW,248,3.6,5.4,54,0.00,,---,0.00,VWS V14.01,2013-03-26 20:47:00,
2013-03-26 15:48:00,33.3,18.9,29.03,WNW,292,3.4,3.6,55,0.00,,---,0.00,VWS V14.01,2013-03-26 20:48:00,
2013-03-26 15:49:00,33.6,19.2,29.03,NW,315,3.1,3.4,55,0.00,,---,0.00,VWS V14.01,2013-03-26 20:49:00,
2013-03-26 15:50:00,33.6,19.2,29.03,WSW,248,2.7,4.0,55,0.00,,---,0.00,VWS V14.01,2013-03-26 20:50:00,
2013-03-26 15:51:00,33.6,19.2,29.03,WNW,292,3.6,4.0,55,0.00,,---,0.00,VWS V14.01,2013-03-26 20:51:00,
2013-03-26 15:52:00,34.0,19.1,29.03,NNW,338,3.8,4.0,54,0.00,,---,0.00,VWS V14.01,2013-03-26 20:52:00,
2013-03-26 15:53:00,34.2,19.3,29.03,NNW,338,2.7,4.0,54,0.00,,---,0.00,VWS V14.01,2013-03-26 20:53:00,
2013-03-26 15:54:00,34.3,19.4,29.03,West,270,4.0,4.0,54,0.00,,---,0.00,VWS V14.01,2013-03-26 20:54:00,
2013-03-26 15:55:00,34.0,18.7,29.03,NW,315,4.0,4.0,53,0.00,,---,0.00,VWS V14.01,2013-03-26 20:55:00,
2013-03-26 15:56:00,34.0,18.7,29.03,WNW,292,3.4,4.0,53,0.00,,---,0.00,VWS V14.01,2013-03-26 20:56:00,
2013-03-26 15:57:00,34.0,18.7,29.03,WNW,292,5.4,5.4,53,0.00,,---,0.00,VWS V14.01,2013-03-26 20:57:00,
2013-03-26 15:58:00,34.5,19.6,29.03,NW,315,2.9,5.4,54,0.00,,---,0.00,VWS V14.01,2013-03-26 20:58:00,
2013-03-26 15:59:00,34.7,19.8,29.03,NNW,338,5.6,5.6,54,0.00,,---,0.00,VWS V14.01,2013-03-26 20:59:00,
2013-03-26 16:00:00,34.7,19.8,29.03,NW,315,5.4,5.4,54,0.00,,---,0.00,VWS V14.01,2013-03-26 21:00:00,
2013-03-26 16:01:00,34.7,19.8,29.03,West,270,3.6,5.4,54,0.00,,---,0.00,VWS V14.01,2013-03-26 21:01:00,
2013-03-26 16:02:00,34.9,19.9,29.03,NNW,338,3.4,4.3,54,0.00,,---,0.00,VWS V14.01,2013-03-26 21:02:00,
2013-03-26 16:03:00,35.1,20.1,29.03,NNW,338,3.6,3.6,54,0.00,,---,0.00,VWS V14.01,2013-03-26 21:03:00,
2013-03-26 16:04:00,35.1,20.1,29.03,NW,315,3.6,3.8,54,0.00,,---,0.00,VWS V14.01,2013-03-26 21:04:00,
2013-03-26 16:05:00,35.2,20.3,29.03,NW,315,3.8,3.8,54,0.00,,---,0.00,VWS V14.01,2013-03-26 21:05:00,
2013-03-26 16:06:00,35.2,20.3,29.03,WSW,248,3.1,3.8,54,0.00,,---,0.00,VWS V14.01,2013-03-26 21:06:00,
2013-03-26 16:07:00,35.2,20.3,29.03,WNW,292,2.7,4.3,54,0.00,,---,0.00,VWS V14.01,2013-03-26 21:07:00,
2013-03-26 16:08:00,35.4,20.4,29.03,West,270,4.9,4.9,54,0.00,,---,0.00,VWS V14.01,2013-03-26 21:08:00,
2013-03-26 16:09:00,35.6,20.6,29.03,NW,315,3.4,4.9,54,0.00,,---,0.00,VWS V14.01,2013-03-26 21:09:00,
2013-03-26 16:10:00,35.6,20.2,29.03,WNW,292,5.6,5.6,53,0.00,,---,0.00,VWS V14.01,2013-03-26 21:10:00,
2013-03-26 16:11:00,35.4,20.4,29.03,WNW,292,4.3,5.6,54,0.00,,---,0.00,VWS V14.01,2013-03-26 21:11:00,
2013-03-26 16:12:00,35.4,20.0,29.03,WNW,292,3.4,4.3,53,0.00,,---,0.00,VWS V14.01,2013-03-26 21:12:00,
2013-03-26 16:13:00,35.4,20.0,29.03,WNW,292,4.3,4.3,53,0.00,,---,0.00,VWS V14.01,2013-03-26 21:13:00,
2013-03-26 16:14:00,35.6,20.2,29.03,WNW,292,3.8,4.3,53,0.00,,---,0.00,VWS V14.01,2013-03-26 21:14:00,
2013-03-26 16:15:00,35.2,19.8,29.03,West,270,4.9,5.6,53,0.00,,---,0.00,VWS V14.01,2013-03-26 21:15:00,
2013-03-26 16:16:00,35.2,19.8,29.03,WSW,248,5.4,5.8,53,0.00,,---,0.00,VWS V14.01,2013-03-26 21:16:00,
2013-03-26 16:17:00,35.4,20.0,29.03,WNW,292,4.9,5.4,53,0.00,,---,0.00,VWS V14.01,2013-03-26 21:17:00,
2013-03-26 16:18:00,35.2,19.8,29.03,West,270,3.6,5.6,53,0.00,,---,0.00,VWS V14.01,2013-03-26 21:18:00,
2013-03-26 16:19:00,35.4,20.0,29.03,West,270,3.6,6.3,53,0.00,,---,0.00,VWS V14.01,2013-03-26 21:19:00,
2013-03-26 16:20:00,35.8,20.3,29.03,WNW,292,3.4,4.3,53,0.00,,---,0.00,VWS V14.01,2013-03-26 21:20:00,
2013-03-26 16:21:00,35.8,20.3,29.03,North,0,4.3,5.4,53,0.00,,---,0.00,VWS V14.01,2013-03-26 21:21:00,
2013-03-26 16:22:00,36.0,20.5,29.03,WNW,292,6.0,6.0,53,0.00,,---,0.00,VWS V14.01,2013-03-26 21:22:00,
2013-03-26 16:23:00,36.1,20.7,29.03,NW,315,5.6,6.0,53,0.00,,---,0.00,VWS V14.01,2013-03-26 21:23:00,
2013-03-26 16:24:00,36.3,20.8,29.00,WNW,292,2.9,5.6,53,0.00,,---,0.00,VWS V14.01,2013-03-26 21:24:00,
2013-03-26 16:25:00,36.5,21.0,29.00,West,270,2.9,3.1,53,0.00,,---,0.00,VWS V14.01,2013-03-26 21:25:00,
2013-03-26 16:26:00,36.1,20.7,29.00,WSW,248,3.4,3.8,53,0.00,,---,0.00,VWS V14.01,2013-03-26 21:26:00,
2013-03-26 16:27:00,35.8,20.3,29.00,WNW,292,5.4,5.4,53,0.00,,---,0.00,VWS V14.01,2013-03-26 21:27:00,
2013-03-26 16:28:00,35.6,20.2,29.00,WSW,248,4.3,5.4,53,0.00,,---,0.00,VWS V14.01,2013-03-26 21:28:00,
2013-03-26 16:29:00,35.6,20.2,29.00,WSW,248,3.1,4.3,53,0.00,,---,0.00,VWS V14.01,2013-03-26 21:29:00,
2013-03-26 16:30:00,35.2,20.3,29.00,WNW,292,5.8,5.8,54,0.00,,---,0.00,VWS V14.01,2013-03-26 21:30:00,
2013-03-26 16:31:00,35.2,20.3,29.00,WNW,292,5.4,5.8,54,0.00,,---,0.00,VWS V14.01,2013-03-26 21:31:00,
2013-03-26 16:32:00,35.6,20.2,29.00,West,270,4.9,5.6,53,0.00,,---,0.00,VWS V14.01,2013-03-26 21:32:00,
2013-03-26 16:33:00,35.6,20.2,29.00,WSW,248,2.9,4.9,53,0.00,,---,0.00,VWS V14.01,2013-03-26 21:33:00,
2013-03-26 16:34:00,35.4,20.4,29.00,WNW,292,6.3,6.3,54,0.00,,---,0.00,VWS V14.01,2013-03-26 21:34:00,
2013-03-26 16:35:00,35.4,20.4,29.00,West,270,4.3,4.9,54,0.00,,---,0.00,VWS V14.01,2013-03-26 21:35:00,
2013-03-26 16:36:00,35.4,20.4,29.00,West,270,4.0,4.9,54,0.00,,---,0.00,VWS V14.01,2013-03-26 21:36:00,
2013-03-26 16:37:00,35.2,20.7,29.00,SW,225,3.8,4.3,55,0.00,,---,0.00,VWS V14.01,2013-03-26 21:37:00,
2013-03-26 16:38:00,35.1,20.1,29.00,WSW,248,3.4,3.8,54,0.00,,---,0.00,VWS V14.01,2013-03-26 21:38:00,
2013-03-26 16:39:00,35.1,20.1,29.00,West,270,3.4,3.6,54,0.00,,---,0.00,VWS V14.01,2013-03-26 21:39:00,
2013-03-26 16:40:00,34.9,19.9,29.00,WNW,292,4.3,4.3,54,0.00,,---,0.00,VWS V14.01,2013-03-26 21:40:00,
2013-03-26 16:41:00,34.7,19.8,29.00,WSW,248,4.0,4.7,54,0.00,,---,0.00,VWS V14.01,2013-03-26 21:41:00,
2013-03-26 16:42:00,34.7,19.8,29.00,WSW,248,5.4,5.4,54,0.00,,---,0.00,VWS V14.01,2013-03-26 21:42:00,
2013-03-26 16:43:00,34.5,19.6,29.00,WSW,248,3.8,5.4,54,0.00,,---,0.00,VWS V14.01,2013-03-26 21:43:00,
2013-03-26 16:44:00,34.3,19.4,29.00,WSW,248,4.3,4.3,54,0.00,,---,0.00,VWS V14.01,2013-03-26 21:44:00,
2013-03-26 16:45:00,34.2,19.3,29.00,WNW,292,3.6,4.3,54,0.00,,---,0.00,VWS V14.01,2013-03-26 21:45:00,
2013-03-26 16:46:00,34.2,19.3,29.00,WSW,248,4.9,4.9,54,0.00,,---,0.00,VWS V14.01,2013-03-26 21:46:00,
2013-03-26 16:47:00,34.2,19.3,29.00,WSW,248,3.4,4.9,54,0.00,,---,0.00,VWS V14.01,2013-03-26 21:47:00,
2013-03-26 16:48:00,34.2,20.1,29.00,West,270,3.6,4.3,56,0.00,,---,0.00,VWS V14.01,2013-03-26 21:48:00,
2013-03-26 16:49:00,34.2,20.1,29.00,West,270,4.9,4.9,56,0.00,,---,0.00,VWS V14.01,2013-03-26 21:49:00,
2013-03-26 16:50:00,34.2,19.7,29.00,West,270,2.7,4.9,55,0.00,,---,0.00,VWS V14.01,2013-03-26 21:50:00,
2013-03-26 16:51:00,34.2,19.7,29.00,West,270,4.7,4.9,55,0.00,,---,0.00,VWS V14.01,2013-03-26 21:51:00,
2013-03-26 16:52:00,34.3,19.9,29.00,WSW,248,3.4,4.7,55,0.00,,---,0.00,VWS V14.01,2013-03-26 21:52:00,
2013-03-26 16:53:00,34.3,20.3,29.00,WSW,248,3.8,4.7,56,0.00,,---,0.00,VWS V14.01,2013-03-26 21:53:00,
2013-03-26 16:54:00,34.3,20.3,29.03,West,270,3.4,4.0,56,0.00,,---,0.00,VWS V14.01,2013-03-26 21:54:00,
2013-03-26 16:55:00,34.3,20.3,29.03,WSW,248,3.8,3.8,56,0.00,,---,0.00,VWS V14.01,2013-03-26 21:55:00,
2013-03-26 16:56:00,34.3,20.3,29.03,WSW,248,4.3,4.3,56,0.00,,---,0.00,VWS V14.01,2013-03-26 21:56:00,
2013-03-26 16:57:00,34.3,20.3,29.03,WSW,248,4.9,4.9,56,0.00,,---,0.00,VWS V14.01,2013-03-26 21:57:00,
2013-03-26 16:58:00,34.3,20.3,29.03,WSW,248,4.0,4.9,56,0.00,,---,0.00,VWS V14.01,2013-03-26 21:58:00,
2013-03-26 16:59:00,34.3,20.3,29.03,SW,225,4.0,4.0,56,0.00,,---,0.00,VWS V14.01,2013-03-26 21:59:00,
2013-03-26 17:00:00,34.5,20.5,29.03,WSW,248,4.0,4.3,56,0.00,,---,0.00,VWS V14.01,2013-03-26 22:00:00,
2013-03-26 17:01:00,34.5,20.5,29.03,WNW,292,4.0,4.3,56,0.00,,---,0.00,VWS V14.01,2013-03-26 22:01:00,
2013-03-26 17:02:00,34.5,20.5,29.03,WSW,248,3.1,4.9,56,0.00,,---,0.00,VWS V14.01,2013-03-26 22:02:00,
2013-03-26 17:03:00,34.7,21.0,29.03,WNW,292,2.9,5.4,57,0.00,,---,0.00,VWS V14.01,2013-03-26 22:03:00,
2013-03-26 17:04:00,34.9,21.2,29.03,West,270,3.8,3.8,57,0.00,,---,0.00,VWS V14.01,2013-03-26 22:04:00,
2013-03-26 17:05:00,35.1,21.0,29.03,WNW,292,2.9,3.8,56,0.00,,---,0.00,VWS V14.01,2013-03-26 22:05:00,
2013-03-26 17:06:00,35.1,21.0,29.03,West,270,2.5,3.8,56,0.00,,---,0.00,VWS V14.01,2013-03-26 22:06:00,
2013-03-26 17:07:00,35.1,20.5,29.03,WSW,248,3.1,3.6,55,0.00,,---,0.00,VWS V14.01,2013-03-26 22:07:00,
2013-03-26 17:08:00,35.2,21.1,29.03,WNW,292,2.7,3.8,56,0.00,,---,0.00,VWS V14.01,2013-03-26 22:08:00,
2013-03-26 17:09:00,35.4,21.3,29.03,WSW,248,3.8,4.3,56,0.00,,---,0.00,VWS V14.01,2013-03-26 22:09:00,
2013-03-26 17:10:00,35.6,21.5,29.03,WSW,248,3.8,4.0,56,0.00,,---,0.00,VWS V14.01,2013-03-26 22:10:00,
2013-03-26 17:11:00,35.8,21.6,29.03,WSW,248,3.8,4.0,56,0.00,,---,0.00,VWS V14.01,2013-03-26 22:11:00,
2013-03-26 17:12:00,35.8,21.6,29.03,West,270,4.3,4.3,56,0.00,,---,0.00,VWS V14.01,2013-03-26 22:12:00,
2013-03-26 17:13:00,36.0,21.4,29.03,WSW,248,2.5,4.3,55,0.00,,---,0.00,VWS V14.01,2013-03-26 22:13:00,
2013-03-26 17:14:00,36.0,21.0,29.03,West,270,3.1,3.8,54,0.00,,---,0.00,VWS V14.01,2013-03-26 22:14:00,
2013-03-26 17:15:00,36.0,21.0,29.03,West,270,3.4,3.6,54,0.00,,---,0.00,VWS V14.01,2013-03-26 22:15:00,
2013-03-26 17:16:00,36.0,21.0,29.03,WSW,248,3.1,3.6,54,0.00,,---,0.00,VWS V14.01,2013-03-26 22:16:00,
2013-03-26 17:17:00,36.0,21.0,29.03,WNW,292,3.8,3.8,54,0.00,,---,0.00,VWS V14.01,2013-03-26 22:17:00,
2013-03-26 17:18:00,36.0,21.0,29.03,West,270,3.8,3.8,54,0.00,,---,0.00,VWS V14.01,2013-03-26 22:18:00,
2013-03-26 17:19:00,36.0,21.0,29.03,West,270,2.9,3.8,54,0.00,,---,0.00,VWS V14.01,2013-03-26 22:19:00,
2013-03-26 17:20:00,36.1,20.7,29.03,West,270,3.4,3.4,53,0.00,,---,0.00,VWS V14.01,2013-03-26 22:20:00,
2013-03-26 17:21:00,36.1,20.7,29.03,West,270,3.4,3.4,53,0.00,,---,0.00,VWS V14.01,2013-03-26 22:21:00,
2013-03-26 17:22:00,36.1,20.7,29.03,WSW,248,3.4,3.4,53,0.00,,---,0.00,VWS V14.01,2013-03-26 22:22:00,
2013-03-26 17:23:00,36.1,20.7,29.03,West,270,2.9,3.6,53,0.00,,---,0.00,VWS V14.01,2013-03-26 22:23:00,
2013-03-26 17:24:00,36.1,20.7,29.03,West,270,3.4,3.4,53,0.00,,---,0.00,VWS V14.01,2013-03-26 22:24:00,
2013-03-26 17:25:00,36.1,21.1,29.03,West,270,4.3,4.3,54,0.00,,---,0.00,VWS V14.01,2013-03-26 22:25:00,
2013-03-26 17:26:00,36.1,21.1,29.03,WNW,292,4.0,4.3,54,0.00,,---,0.00,VWS V14.01,2013-03-26 22:26:00,
2013-03-26 17:27:00,36.1,21.1,29.03,West,270,2.9,4.0,54,0.00,,---,0.00,VWS V14.01,2013-03-26 22:27:00,
2013-03-26 17:28:00,36.1,20.7,29.03,WSW,248,2.7,2.9,53,0.00,,---,0.00,VWS V14.01,2013-03-26 22:28:00,
2013-03-26 17:29:00,36.1,20.7,29.03,WSW,248,2.9,3.4,53,0.00,,---,0.00,VWS V14.01,2013-03-26 22:29:00,
2013-03-26 17:30:00,36.1,20.7,29.03,WSW,248,2.5,2.5,53,0.00,,---,0.00,VWS V14.01,2013-03-26 22:30:00,
2013-03-26 17:31:00,36.1,20.7,29.03,WSW,248,2.5,2.5,53,0.00,,---,0.00,VWS V14.01,2013-03-26 22:31:00,
2013-03-26 17:32:00,35.8,20.3,29.03,WNW,292,2.9,3.4,53,0.00,,---,0.00,VWS V14.01,2013-03-26 22:32:00,
2013-03-26 17:33:00,35.6,20.2,29.03,WSW,248,3.8,3.8,53,0.00,,---,0.00,VWS V14.01,2013-03-26 22:33:00,
2013-03-26 17:34:00,35.6,20.6,29.03,WNW,292,2.2,3.8,54,0.00,,---,0.00,VWS V14.01,2013-03-26 22:34:00,
2013-03-26 17:35:00,35.6,20.6,29.03,WNW,292,3.8,3.8,54,0.00,,---,0.00,VWS V14.01,2013-03-26 22:35:00,
2013-03-26 17:36:00,35.6,20.6,29.03,WSW,248,2.7,3.8,54,0.00,,---,0.00,VWS V14.01,2013-03-26 22:36:00,
2013-03-26 17:37:00,35.6,20.6,29.03,West,270,2.5,3.6,54,0.00,,---,0.00,VWS V14.01,2013-03-26 22:37:00,
2013-03-26 17:38:00,35.8,20.8,29.03,WSW,248,2.7,3.6,54,0.00,,---,0.00,VWS V14.01,2013-03-26 22:38:00,
2013-03-26 17:39:00,35.6,20.6,29.03,WSW,248,4.0,4.3,54,0.00,,---,0.00,VWS V14.01,2013-03-26 22:39:00,
2013-03-26 17:40:00,35.6,20.6,29.03,WSW,248,2.9,4.0,54,0.00,,---,0.00,VWS V14.01,2013-03-26 22:40:00,
2013-03-26 17:41:00,35.6,20.6,29.03,WNW,292,4.3,4.3,54,0.00,,---,0.00,VWS V14.01,2013-03-26 22:41:00,
2013-03-26 17:42:00,35.1,20.1,29.03,West,270,3.1,4.3,54,0.00,,---,0.00,VWS V14.01,2013-03-26 22:42:00,
2013-03-26 17:43:00,34.9,19.9,29.03,WSW,248,3.1,4.0,54,0.00,,---,0.00,VWS V14.01,2013-03-26 22:43:00,
2013-03-26 17:44:00,34.9,19.9,29.03,WSW,248,3.6,3.6,54,0.00,,---,0.00,VWS V14.01,2013-03-26 22:44:00,
2013-03-26 17:45:00,34.7,20.2,29.03,West,270,2.9,3.8,55,0.00,,---,0.00,VWS V14.01,2013-03-26 22:45:00,
2013-03-26 17:46:00,34.7,20.2,29.03,West,270,2.9,3.8,55,0.00,,---,0.00,VWS V14.01,2013-03-26 22:46:00,
2013-03-26 17:47:00,34.5,20.0,29.03,WNW,292,2.9,3.8,55,0.00,,---,0.00,VWS V14.01,2013-03-26 22:47:00,
2013-03-26 17:48:00,34.3,19.9,29.03,West,270,2.9,3.4,55,0.00,,---,0.00,VWS V14.01,2013-03-26 22:48:00,
2013-03-26 17:49:00,34.3,19.9,29.03,West,270,3.6,3.6,55,0.00,,---,0.00,VWS V14.01,2013-03-26 22:49:00,
2013-03-26 17:50:00,34.2,20.1,29.03,West,270,3.6,4.3,56,0.00,,---,0.00,VWS V14.01,2013-03-26 22:50:00,
2013-03-26 17:51:00,34.2,19.7,29.03,WSW,248,3.1,3.8,55,0.00,,---,0.00,VWS V14.01,2013-03-26 22:51:00,
2013-03-26 17:52:00,34.0,19.5,29.03,WSW,248,3.4,3.4,55,0.00,,---,0.00,VWS V14.01,2013-03-26 22:52:00,
2013-03-26 17:53:00,34.0,20.0,29.03,WSW,248,2.9,3.6,56,0.00,,---,0.00,VWS V14.01,2013-03-26 22:53:00,
2013-03-26 17:54:00,34.2,20.1,29.00,WSW,248,1.6,2.9,56,0.00,,---,0.00,VWS V14.01,2013-03-26 22:54:00,
2013-03-26 17:55:00,34.0,20.0,29.00,West,270,1.6,2.9,56,0.00,,---,0.00,VWS V14.01,2013-03-26 22:55:00,
2013-03-26 17:56:00,33.8,19.8,29.00,West,270,3.6,3.8,56,0.00,,---,0.00,VWS V14.01,2013-03-26 22:56:00,
2013-03-26 17:57:00,33.8,19.8,29.00,WSW,248,3.6,3.6,56,0.00,,---,0.00,VWS V14.01,2013-03-26 22:57:00,
2013-03-26 17:58:00,33.6,20.0,29.00,WSW,248,3.1,4.3,57,0.00,,---,0.00,VWS V14.01,2013-03-26 22:58:00,
2013-03-26 17:59:00,33.6,20.0,29.00,West,270,3.4,4.3,57,0.00,,---,0.00,VWS V14.01,2013-03-26 22:59:00,
2013-03-26 18:00:00,33.6,20.4,29.00,West,270,3.1,3.6,58,0.00,,---,0.00,VWS V14.01,2013-03-26 23:00:00,
2013-03-26 18:01:00,33.6,20.4,29.00,WNW,292,3.6,4.0,58,0.00,,---,0.00,VWS V14.01,2013-03-26 23:01:00,
2013-03-26 18:02:00,34.2,20.9,29.00,WSW,248,2.7,3.6,58,0.00,,---,0.00,VWS V14.01,2013-03-26 23:02:00,
2013-03-26 18:03:00,34.2,20.9,29.00,WSW,248,2.5,3.1,58,0.00,,---,0.00,VWS V14.01,2013-03-26 23:03:00,
2013-03-26 18:04:00,34.0,20.8,29.00,WSW,248,3.6,3.6,58,0.00,,---,0.00,VWS V14.01,2013-03-26 23:04:00,
2013-03-26 18:05:00,34.0,20.4,29.00,WSW,248,3.1,3.6,57,0.00,,---,0.00,VWS V14.01,2013-03-26 23:05:00,
2013-03-26 18:06:00,34.0,20.4,29.00,West,270,3.1,3.4,57,0.00,,---,0.00,VWS V14.01,2013-03-26 23:06:00,
2013-03-26 18:07:00,34.0,20.4,29.00,West,270,2.0,3.4,57,0.00,,---,0.00,VWS V14.01,2013-03-26 23:07:00,
2013-03-26 18:08:00,34.0,20.4,29.00,WSW,248,2.5,2.7,57,0.00,,---,0.00,VWS V14.01,2013-03-26 23:08:00,
2013-03-26 18:09:00,34.0,20.0,29.00,WSW,248,1.6,2.9,56,0.00,,---,0.00,VWS V14.01,2013-03-26 23:09:00,
2013-03-26 18:10:00,33.8,19.8,29.00,West,270,3.1,3.1,56,0.00,,---,0.00,VWS V14.01,2013-03-26 23:10:00,
2013-03-26 18:11:00,33.8,19.8,29.00,West,270,2.7,3.1,56,0.00,,---,0.00,VWS V14.01,2013-03-26 23:11:00,
2013-03-26 18:12:00,33.8,19.8,29.00,WNW,292,2.2,2.7,56,0.00,,---,0.00,VWS V14.01,2013-03-26 23:12:00,
2013-03-26 18:13:00,33.8,19.8,29.00,WSW,248,2.0,2.5,56,0.00,,---,0.00,VWS V14.01,2013-03-26 23:13:00,
2013-03-26 18:14:00,33.8,19.8,29.00,WSW,248,2.5,2.5,56,0.00,,---,0.00,VWS V14.01,2013-03-26 23:14:00,
2013-03-26 18:15:00,33.8,19.8,29.00,WSW,248,2.5,2.9,56,0.00,,---,0.00,VWS V14.01,2013-03-26 23:15:00,
2013-03-26 18:16:00,33.6,20.0,29.00,WSW,248,3.1,3.1,57,0.00,,---,0.00,VWS V14.01,2013-03-26 23:16:00,
2013-03-26 18:17:00,33.4,19.9,29.00,West,270,2.5,3.4,57,0.00,,---,0.00,VWS V14.01,2013-03-26 23:17:00,
2013-03-26 18:18:00,33.4,19.9,29.00,West,270,2.9,2.9,57,0.00,,---,0.00,VWS V14.01,2013-03-26 23:18:00,
2013-03-26 18:19:00,33.3,19.3,29.00,West,270,2.9,2.9,56,0.00,,---,0.00,VWS V14.01,2013-03-26 23:19:00,
2013-03-26 18:20:00,33.1,19.5,29.00,WSW,248,2.2,2.9,57,0.00,,---,0.00,VWS V14.01,2013-03-26 23:20:00,
2013-03-26 18:21:00,33.1,19.5,29.00,WSW,248,2.9,2.9,57,0.00,,---,0.00,VWS V14.01,2013-03-26 23:21:00,
2013-03-26 18:22:00,32.9,19.4,29.00,WSW,248,3.1,3.4,57,0.00,,---,0.00,VWS V14.01,2013-03-26 23:22:00,
2013-03-26 18:23:00,32.9,19.4,29.00,West,270,2.9,3.1,57,0.00,,---,0.00,VWS V14.01,2013-03-26 23:23:00,
2013-03-26 18:24:00,32.7,19.6,29.00,WSW,248,2.5,2.9,58,0.00,,---,0.00,VWS V14.01,2013-03-26 23:24:00,
2013-03-26 18:25:00,32.7,19.6,29.00,WNW,292,2.2,2.5,58,0.00,,---,0.00,VWS V14.01,2013-03-26 23:25:00,
2013-03-26 18:26:00,32.7,19.6,29.00,WSW,248,1.1,1.1,58,0.00,,---,0.00,VWS V14.01,2013-03-26 23:26:00,
2013-03-26 18:27:00,32.7,19.6,29.00,WSW,248,1.6,2.2,58,0.00,,---,0.00,VWS V14.01,2013-03-26 23:27:00,
2013-03-26 18:28:00,32.7,19.6,29.00,WSW,248,2.7,2.7,58,0.00,,---,0.00,VWS V14.01,2013-03-26 23:28:00,
2013-03-26 18:29:00,32.7,19.6,29.00,WSW,248,2.5,2.7,58,0.00,,---,0.00,VWS V14.01,2013-03-26 23:29:00,
2013-03-26 18:30:00,32.7,19.6,29.00,WSW,248,2.5,2.7,58,0.00,,---,0.00,VWS V14.01,2013-03-26 23:30:00,
2013-03-26 18:31:00,32.7,20.0,29.00,WSW,248,1.6,2.5,59,0.00,,---,0.00,VWS V14.01,2013-03-26 23:31:00,
2013-03-26 18:32:00,32.7,20.0,29.00,WSW,248,1.6,2.5,59,0.00,,---,0.00,VWS V14.01,2013-03-26 23:32:00,
2013-03-26 18:33:00,32.7,20.0,29.00,WSW,248,2.2,2.2,59,0.00,,---,0.00,VWS V14.01,2013-03-26 23:33:00,
2013-03-26 18:34:00,32.7,20.0,29.00,SW,225,1.1,2.2,59,0.00,,---,0.00,VWS V14.01,2013-03-26 23:34:00,
2013-03-26 18:35:00,32.5,19.8,29.00,SW,225,2.5,2.5,59,0.00,,---,0.00,VWS V14.01,2013-03-26 23:35:00,
2013-03-26 18:36:00,32.5,19.8,29.00,WSW,248,2.0,2.2,59,0.00,,---,0.00,VWS V14.01,2013-03-26 23:36:00,
2013-03-26 18:37:00,32.5,19.8,29.00,WSW,248,2.5,2.5,59,0.00,,---,0.00,VWS V14.01,2013-03-26 23:37:00,
2013-03-26 18:38:00,32.5,19.8,29.00,WSW,248,2.0,2.5,59,0.00,,---,0.00,VWS V14.01,2013-03-26 23:38:00,
2013-03-26 18:39:00,32.5,19.8,29.00,WSW,248,1.6,2.0,59,0.00,,---,0.00,VWS V14.01,2013-03-26 23:39:00,
2013-03-26 18:40:00,32.5,19.8,29.00,WSW,248,0.0,1.6,59,0.00,,---,0.00,VWS V14.01,2013-03-26 23:40:00,
2013-03-26 18:41:00,32.5,19.8,29.00,WSW,248,0.0,0.0,59,0.00,,---,0.00,VWS V14.01,2013-03-26 23:41:00,
2013-03-26 18:42:00,32.5,19.8,29.00,WSW,248,0.0,0.0,59,0.00,,---,0.00,VWS V14.01,2013-03-26 23:42:00,
2013-03-26 18:43:00,32.5,19.8,29.00,WSW,248,0.0,0.0,59,0.00,,---,0.00,VWS V14.01,2013-03-26 23:43:00,
2013-03-26 18:44:00,32.5,19.8,29.00,WSW,248,0.0,0.0,59,0.00,,---,0.00,VWS V14.01,2013-03-26 23:44:00,
2013-03-26 18:45:00,32.5,19.8,29.00,West,270,1.3,1.6,59,0.00,,---,0.00,VWS V14.01,2013-03-26 23:45:00,
2013-03-26 18:46:00,32.5,19.8,29.00,WSW,248,0.9,1.3,59,0.00,,---,0.00,VWS V14.01,2013-03-26 23:46:00,
2013-03-26 18:47:00,32.5,19.8,29.00,WSW,248,0.9,1.3,59,0.00,,---,0.00,VWS V14.01,2013-03-26 23:47:00,
2013-03-26 18:48:00,32.5,19.8,29.00,WSW,248,0.0,0.9,59,0.00,,---,0.00,VWS V14.01,2013-03-26 23:48:00,
2013-03-26 18:49:00,32.5,19.8,29.00,WSW,248,0.0,0.0,59,0.00,,---,0.00,VWS V14.01,2013-03-26 23:49:00,
2013-03-26 18:50:00,32.5,19.8,29.00,West,270,0.0,0.0,59,0.00,,---,0.00,VWS V14.01,2013-03-26 23:50:00,
2013-03-26 18:51:00,32.5,19.8,29.00,West,270,0.0,0.0,59,0.00,,---,0.00,VWS V14.01,2013-03-26 23:51:00,
2013-03-26 18:52:00,32.5,19.8,29.00,West,270,0.0,0.0,59,0.00,,---,0.00,VWS V14.01,2013-03-26 23:52:00,
2013-03-26 18:53:00,32.5,19.8,29.00,West,270,0.0,0.0,59,0.00,,---,0.00,VWS V14.01,2013-03-26 23:53:00,
2013-03-26 18:54:00,32.5,19.8,29.00,West,270,0.0,0.0,59,0.00,,---,0.00,VWS V14.01,2013-03-26 23:54:00,
2013-03-26 18:55:00,32.4,19.6,29.00,WSW,248,2.7,2.7,59,0.00,,---,0.00,VWS V14.01,2013-03-26 23:55:00,
2013-03-26 18:56:00,32.2,19.5,29.00,WSW,248,2.5,2.7,59,0.00,,---,0.00,VWS V14.01,2013-03-26 23:56:00,
2013-03-26 18:57:00,32.0,19.3,29.00,WSW,248,2.9,2.9,59,0.00,,---,0.00,VWS V14.01,2013-03-26 23:57:00,
2013-03-26 18:58:00,31.8,19.1,29.00,WSW,248,3.4,3.4,59,0.00,,---,0.00,VWS V14.01,2013-03-26 23:58:00,
2013-03-26 18:59:00,31.5,19.2,29.00,WSW,248,2.5,3.4,60,0.00,,---,0.00,VWS V14.01,2013-03-26 23:59:00,
2013-03-26 19:00:00,31.5,19.2,29.00,West,270,2.7,2.7,60,0.00,,---,0.00,VWS V14.01,2013-03-27 00:00:00,
2013-03-26 19:01:00,31.1,18.9,29.00,WNW,292,3.8,3.8,60,0.00,,---,0.00,VWS V14.01,2013-03-27 00:01:00,
2013-03-26 19:02:00,30.7,18.5,29.00,WSW,248,4.9,4.9,60,0.00,,---,0.00,VWS V14.01,2013-03-27 00:02:00,
2013-03-26 19:03:00,30.6,18.7,29.00,WNW,292,3.4,5.6,61,0.00,,---,0.00,VWS V14.01,2013-03-27 00:03:00,
2013-03-26 19:04:00,30.2,19.1,29.00,WSW,248,4.5,4.9,63,0.00,,---,0.00,VWS V14.01,2013-03-27 00:04:00,
2013-03-26 19:05:00,30.0,19.0,29.00,WSW,248,4.0,4.9,63,0.00,,---,0.00,VWS V14.01,2013-03-27 00:05:00,
2013-03-26 19:06:00,30.0,19.3,29.00,WSW,248,3.8,4.0,64,0.00,,---,0.00,VWS V14.01,2013-03-27 00:06:00,
2013-03-26 19:07:00,29.8,19.2,29.00,WNW,292,3.1,3.8,64,0.00,,---,0.00,VWS V14.01,2013-03-27 00:07:00,
2013-03-26 19:09:00,29.7,19.0,29.00,WSW,248,3.4,3.6,64,0.00,,---,0.00,VWS V14.01,2013-03-27 00:09:00,
2013-03-26 19:10:00,29.7,19.0,29.03,WSW,248,2.2,3.4,64,0.00,,---,0.00,VWS V14.01,2013-03-27 00:10:00,
2013-03-26 19:11:00,29.7,19.0,29.03,West,270,2.2,2.2,64,0.00,,---,0.00,VWS V14.01,2013-03-27 00:11:00,
2013-03-26 19:12:00,29.7,19.0,29.03,WSW,248,2.0,2.2,64,0.00,,---,0.00,VWS V14.01,2013-03-27 00:12:00,
2013-03-26 19:13:00,29.8,19.2,29.03,WSW,248,1.6,2.0,64,0.00,,---,0.00,VWS V14.01,2013-03-27 00:13:00,
2013-03-26 19:14:00,29.8,19.2,29.03,WSW,248,2.0,2.0,64,0.00,,---,0.00,VWS V14.01,2013-03-27 00:14:00,
2013-03-26 19:15:00,29.8,19.2,29.03,WSW,248,2.2,2.5,64,0.00,,---,0.00,VWS V14.01,2013-03-27 00:15:00,
2013-03-26 19:16:00,29.7,19.0,29.03,WSW,248,2.0,2.5,64,0.00,,---,0.00,VWS V14.01,2013-03-27 00:16:00,
2013-03-26 19:17:00,29.7,19.0,29.03,WSW,248,2.7,2.7,64,0.00,,---,0.00,VWS V14.01,2013-03-27 00:17:00,
2013-03-26 19:18:00,29.7,19.0,29.03,WSW,248,2.9,2.9,64,0.00,,---,0.00,VWS V14.01,2013-03-27 00:18:00,
2013-03-26 19:19:00,29.5,18.8,29.03,WSW,248,2.7,2.9,64,0.00,,---,0.00,VWS V14.01,2013-03-27 00:19:00,
2013-03-26 19:20:00,29.3,18.6,29.03,WSW,248,3.1,3.1,64,0.00,,---,0.00,VWS V14.01,2013-03-27 00:20:00,
2013-03-26 19:21:00,29.1,18.5,29.03,WSW,248,3.1,3.6,64,0.00,,---,0.00,VWS V14.01,2013-03-27 00:21:00,
2013-03-26 19:22:00,28.9,18.7,29.03,WSW,248,2.7,3.1,65,0.00,,---,0.00,VWS V14.01,2013-03-27 00:22:00,
2013-03-26 19:23:00,28.8,18.5,29.03,WSW,248,2.9,2.9,65,0.00,,---,0.00,VWS V14.01,2013-03-27 00:23:00,
2013-03-26 19:24:00,28.8,18.5,29.00,WSW,248,3.4,3.4,65,0.00,,---,0.00,VWS V14.01,2013-03-27 00:24:00,
2013-03-26 19:25:00,28.6,18.3,29.00,WSW,248,3.8,4.0,65,0.00,,---,0.00,VWS V14.01,2013-03-27 00:25:00,
2013-03-26 19:26:00,28.6,18.3,29.00,WSW,248,3.8,3.8,65,0.00,,---,0.00,VWS V14.01,2013-03-27 00:26:00,
2013-03-26 19:27:00,28.4,18.5,29.00,WSW,248,3.1,3.8,66,0.00,,---,0.00,VWS V14.01,2013-03-27 00:27:00,
2013-03-26 19:28:00,28.4,18.5,29.00,WSW,248,3.1,3.4,66,0.00,,---,0.00,VWS V14.01,2013-03-27 00:28:00,
2013-03-26 19:29:00,28.4,18.5,29.00,WSW,248,3.1,3.1,66,0.00,,---,0.00,VWS V14.01,2013-03-27 00:29:00,
2013-03-26 19:30:00,28.4,18.5,29.00,WSW,248,2.7,3.1,66,0.00,,---,0.00,VWS V14.01,2013-03-27 00:30:00,
2013-03-26 19:31:00,28.2,18.3,29.00,WSW,248,2.5,2.7,66,0.00,,---,0.00,VWS V14.01,2013-03-27 00:31:00,
2013-03-26 19:32:00,28.2,18.3,29.00,WSW,248,2.7,2.7,66,0.00,,---,0.00,VWS V14.01,2013-03-27 00:32:00,
2013-03-26 19:33:00,28.2,18.3,29.00,WSW,248,2.7,2.7,66,0.00,,---,0.00,VWS V14.01,2013-03-27 00:33:00,
2013-03-26 19:34:00,27.9,18.3,29.00,WNW,292,2.9,3.4,67,0.00,,---,0.00,VWS V14.01,2013-03-27 00:34:00,
2013-03-26 19:35:00,27.9,18.3,29.00,WSW,248,2.9,3.1,67,0.00,,---,0.00,VWS V14.01,2013-03-27 00:35:00,
2013-03-26 19:36:00,27.7,18.2,29.00,West,270,2.9,3.4,67,0.00,,---,0.00,VWS V14.01,2013-03-27 00:36:00,
2013-03-26 19:37:00,27.7,18.2,29.00,WSW,248,3.1,3.1,67,0.00,,---,0.00,VWS V14.01,2013-03-27 00:37:00,
2013-03-26 19:38:00,27.5,18.3,29.00,WNW,292,2.7,3.1,68,0.00,,---,0.00,VWS V14.01,2013-03-27 00:38:00,
2013-03-26 19:39:00,27.5,18.3,29.03,WSW,248,3.1,3.1,68,0.00,,---,0.00,VWS V14.01,2013-03-27 00:39:00,
2013-03-26 19:40:00,27.5,18.3,29.03,WSW,248,3.6,3.6,68,0.00,,---,0.00,VWS V14.01,2013-03-27 00:40:00,
2013-03-26 19:41:00,27.3,18.2,29.03,WSW,248,2.9,3.6,68,0.00,,---,0.00,VWS V14.01,2013-03-27 00:41:00,
2013-03-26 19:42:00,27.1,18.0,29.03,WSW,248,3.1,3.1,68,0.00,,---,0.00,VWS V14.01,2013-03-27 00:42:00,
2013-03-26 19:43:00,27.0,18.2,29.03,WSW,248,2.9,3.4,69,0.00,,---,0.00,VWS V14.01,2013-03-27 00:43:00,
2013-03-26 19:44:00,27.0,18.2,29.03,WSW,248,3.4,3.8,69,0.00,,---,0.00,VWS V14.01,2013-03-27 00:44:00,
2013-03-26 19:45:00,27.0,18.2,29.03,WSW,248,2.5,3.4,69,0.00,,---,0.00,VWS V14.01,2013-03-27 00:45:00,
2013-03-26 19:46:00,26.8,18.3,29.03,WSW,248,2.7,3.1,70,0.00,,---,0.00,VWS V14.01,2013-03-27 00:46:00,
2013-03-26 19:47:00,26.6,18.1,29.03,WSW,248,3.1,3.1,70,0.00,,---,0.00,VWS V14.01,2013-03-27 00:47:00,
2013-03-26 19:48:00,26.4,18.0,29.03,WSW,248,2.9,3.1,70,0.00,,---,0.00,VWS V14.01,2013-03-27 00:48:00,
2013-03-26 19:49:00,26.2,17.8,29.03,WSW,248,2.9,2.9,70,0.00,,---,0.00,VWS V14.01,2013-03-27 00:49:00,
2013-03-26 19:50:00,25.9,17.5,29.03,WSW,248,2.7,2.9,70,0.00,,---,0.00,VWS V14.01,2013-03-27 00:50:00,
2013-03-26 19:51:00,25.7,17.3,29.03,West,270,2.7,2.7,70,0.00,,---,0.00,VWS V14.01,2013-03-27 00:51:00,
2013-03-26 19:52:00,25.5,17.1,29.03,WSW,248,2.2,2.2,70,0.00,,---,0.00,VWS V14.01,2013-03-27 00:52:00,
2013-03-26 19:53:00,25.5,17.1,29.03,WSW,248,2.5,2.5,70,0.00,,---,0.00,VWS V14.01,2013-03-27 00:53:00,
2013-03-26 19:54:00,25.3,16.9,29.03,WSW,248,2.2,2.5,70,0.00,,---,0.00,VWS V14.01,2013-03-27 00:54:00,
2013-03-26 19:55:00,25.3,17.3,29.03,WSW,248,2.5,2.7,71,0.00,,---,0.00,VWS V14.01,2013-03-27 00:55:00,
2013-03-26 19:56:00,25.3,17.3,29.03,WSW,248,2.5,2.5,71,0.00,,---,0.00,VWS V14.01,2013-03-27 00:56:00,
2013-03-26 19:57:00,25.0,16.9,29.03,WSW,248,2.5,2.5,71,0.00,,---,0.00,VWS V14.01,2013-03-27 00:57:00,
2013-03-26 19:58:00,25.0,16.9,29.03,WSW,248,2.5,2.5,71,0.00,,---,0.00,VWS V14.01,2013-03-27 00:58:00,
2013-03-26 19:59:00,24.8,17.1,29.03,WSW,248,2.5,2.5,72,0.00,,---,0.00,VWS V14.01,2013-03-27 00:59:00,
2013-03-26 20:00:00,24.8,17.1,29.03,WSW,248,2.5,2.5,72,0.00,,---,0.00,VWS V14.01,2013-03-27 01:00:00,
2013-03-26 20:01:00,24.8,17.1,29.03,WSW,248,2.2,2.5,72,0.00,,---,0.00,VWS V14.01,2013-03-27 01:01:00,
2013-03-26 20:02:00,24.6,16.9,29.03,WSW,248,2.5,2.5,72,0.00,,---,0.00,VWS V14.01,2013-03-27 01:02:00,
2013-03-26 20:03:00,24.6,16.9,29.03,WSW,248,2.5,2.5,72,0.00,,---,0.00,VWS V14.01,2013-03-27 01:03:00,
2013-03-26 20:04:00,24.6,16.9,29.03,WSW,248,2.2,2.5,72,0.00,,---,0.00,VWS V14.01,2013-03-27 01:04:00,
2013-03-26 20:05:00,24.4,17.0,29.03,WSW,248,2.0,2.5,73,0.00,,---,0.00,VWS V14.01,2013-03-27 01:05:00,
2013-03-26 20:06:00,24.4,17.0,29.03,WSW,248,2.0,2.2,73,0.00,,---,0.00,VWS V14.01,2013-03-27 01:06:00,
2013-03-26 20:07:00,24.4,17.0,29.03,WSW,248,2.0,2.0,73,0.00,,---,0.00,VWS V14.01,2013-03-27 01:07:00,
2013-03-26 20:08:00,24.4,17.0,29.03,WSW,248,2.5,2.5,73,0.00,,---,0.00,VWS V14.01,2013-03-27 01:08:00,
2013-03-26 20:09:00,24.4,17.4,29.03,WSW,248,2.7,2.7,74,0.00,,---,0.00,VWS V14.01,2013-03-27 01:09:00,
2013-03-26 20:10:00,24.4,17.4,29.03,WSW,248,2.5,3.1,74,0.00,,---,0.00,VWS V14.01,2013-03-27 01:10:00,
2013-03-26 20:11:00,24.4,17.4,29.03,WSW,248,2.5,2.5,74,0.00,,---,0.00,VWS V14.01,2013-03-27 01:11:00,
2013-03-26 20:12:00,24.3,17.5,29.03,WSW,248,2.7,3.1,75,0.00,,---,0.00,VWS V14.01,2013-03-27 01:12:00,
2013-03-26 20:13:00,24.3,17.5,29.03,WSW,248,2.9,3.1,75,0.00,,---,0.00,VWS V14.01,2013-03-27 01:13:00,
2013-03-26 20:14:00,24.3,17.8,29.03,WSW,248,2.7,2.9,76,0.00,,---,0.00,VWS V14.01,2013-03-27 01:14:00,
2013-03-26 20:15:00,24.1,17.6,29.03,WSW,248,2.9,3.4,76,0.00,,---,0.00,VWS V14.01,2013-03-27 01:15:00,
2013-03-26 20:16:00,24.1,17.6,29.03,WSW,248,3.4,3.4,76,0.00,,---,0.00,VWS V14.01,2013-03-27 01:16:00,
2013-03-26 20:17:00,24.1,17.9,29.03,WSW,248,2.9,2.9,77,0.00,,---,0.00,VWS V14.01,2013-03-27 01:17:00,
2013-03-26 20:18:00,24.1,17.9,29.03,WSW,248,2.9,2.9,77,0.00,,---,0.00,VWS V14.01,2013-03-27 01:18:00,
2013-03-26 20:19:00,24.1,17.9,29.03,WSW,248,2.9,2.9,77,0.00,,---,0.00,VWS V14.01,2013-03-27 01:19:00,
2013-03-26 20:20:00,23.7,17.6,29.03,WSW,248,3.1,3.1,77,0.00,,---,0.00,VWS V14.01,2013-03-27 01:20:00,
2013-03-26 20:21:00,23.7,17.6,29.03,WSW,248,2.7,3.1,77,0.00,,---,0.00,VWS V14.01,2013-03-27 01:21:00,
2013-03-26 20:22:00,23.5,17.4,29.03,WSW,248,2.7,2.7,77,0.00,,---,0.00,VWS V14.01,2013-03-27 01:22:00,
2013-03-26 20:23:00,23.5,17.4,29.03,WSW,248,2.7,2.7,77,0.00,,---,0.00,VWS V14.01,2013-03-27 01:23:00,
2013-03-26 20:24:00,23.5,17.4,29.03,WSW,248,2.5,2.7,77,0.00,,---,0.00,VWS V14.01,2013-03-27 01:24:00,
2013-03-26 20:25:00,23.5,17.4,29.03,WSW,248,2.9,2.9,77,0.00,,---,0.00,VWS V14.01,2013-03-27 01:25:00,
2013-03-26 20:26:00,23.5,17.4,29.03,WSW,248,3.1,3.1,77,0.00,,---,0.00,VWS V14.01,2013-03-27 01:26:00,
2013-03-26 20:27:00,23.5,17.7,29.03,WSW,248,2.9,2.9,78,0.00,,---,0.00,VWS V14.01,2013-03-27 01:27:00,
2013-03-26 20:28:00,23.5,17.7,29.03,WSW,248,2.9,2.9,78,0.00,,---,0.00,VWS V14.01,2013-03-27 01:28:00,
2013-03-26 20:29:00,23.4,17.5,29.03,WSW,248,3.1,3.1,78,0.00,,---,0.00,VWS V14.01,2013-03-27 01:29:00,
2013-03-26 20:30:00,23.4,17.5,29.03,WSW,248,3.1,3.4,78,0.00,,---,0.00,VWS V14.01,2013-03-27 01:30:00,
2013-03-26 20:31:00,23.4,17.8,29.03,WSW,248,3.4,3.6,79,0.00,,---,0.00,VWS V14.01,2013-03-27 01:31:00,
2013-03-26 20:32:00,23.2,17.6,29.03,WSW,248,3.6,3.6,79,0.00,,---,0.00,VWS V14.01,2013-03-27 01:32:00,
2013-03-26 20:33:00,23.2,17.6,29.03,WSW,248,3.6,3.6,79,0.00,,---,0.00,VWS V14.01,2013-03-27 01:33:00,
2013-03-26 20:34:00,23.2,17.6,29.03,WSW,248,3.1,3.6,79,0.00,,---,0.00,VWS V14.01,2013-03-27 01:34:00,
2013-03-26 20:35:00,23.0,17.8,29.03,WSW,248,2.7,3.1,80,0.00,,---,0.00,VWS V14.01,2013-03-27 01:35:00,
2013-03-26 20:36:00,23.0,17.8,29.03,WSW,248,2.2,2.7,80,0.00,,---,0.00,VWS V14.01,2013-03-27 01:36:00,
2013-03-26 20:37:00,23.0,17.8,29.03,WSW,248,1.3,1.3,80,0.00,,---,0.00,VWS V14.01,2013-03-27 01:37:00,
2013-03-26 20:38:00,23.0,17.8,29.03,WSW,248,1.6,1.6,80,0.00,,---,0.00,VWS V14.01,2013-03-27 01:38:00,
2013-03-26 20:39:00,23.0,17.8,29.03,WSW,248,1.6,1.6,80,0.00,,---,0.00,VWS V14.01,2013-03-27 01:39:00,
2013-03-26 20:40:00,23.0,17.5,29.03,WSW,248,1.6,1.6,79,0.00,,---,0.00,VWS V14.01,2013-03-27 01:40:00,
2013-03-26 20:41:00,23.0,17.5,29.03,WSW,248,1.6,2.0,79,0.00,,---,0.00,VWS V14.01,2013-03-27 01:41:00,
2013-03-26 20:42:00,23.0,17.5,29.03,WSW,248,1.3,1.6,79,0.00,,---,0.00,VWS V14.01,2013-03-27 01:42:00,
2013-03-26 20:43:00,23.0,17.5,29.03,WSW,248,2.0,2.0,79,0.00,,---,0.00,VWS V14.01,2013-03-27 01:43:00,
2013-03-26 20:44:00,23.0,17.5,29.03,WSW,248,1.6,2.0,79,0.00,,---,0.00,VWS V14.01,2013-03-27 01:44:00,
2013-03-26 20:45:00,23.0,17.5,29.03,WSW,248,1.6,1.6,79,0.00,,---,0.00,VWS V14.01,2013-03-27 01:45:00,
2013-03-26 20:46:00,23.0,17.2,29.03,WSW,248,0.0,1.6,78,0.00,,---,0.00,VWS V14.01,2013-03-27 01:46:00,
2013-03-26 20:47:00,23.0,17.2,29.03,WSW,248,0.0,0.0,78,0.00,,---,0.00,VWS V14.01,2013-03-27 01:47:00,
2013-03-26 20:48:00,23.0,17.2,29.03,WSW,248,0.0,0.0,78,0.00,,---,0.00,VWS V14.01,2013-03-27 01:48:00,
2013-03-26 20:49:00,23.0,17.2,29.03,WSW,248,0.0,0.0,78,0.00,,---,0.00,VWS V14.01,2013-03-27 01:49:00,
2013-03-26 20:50:00,23.0,17.2,29.03,WSW,248,0.0,0.0,78,0.00,,---,0.00,VWS V14.01,2013-03-27 01:50:00,
2013-03-26 20:51:00,23.0,17.2,29.03,WSW,248,0.0,0.0,78,0.00,,---,0.00,VWS V14.01,2013-03-27 01:51:00,
2013-03-26 20:52:00,23.0,17.2,29.03,WSW,248,0.0,0.0,78,0.00,,---,0.00,VWS V14.01,2013-03-27 01:52:00,
2013-03-26 20:53:00,23.0,17.2,29.03,WSW,248,2.7,2.7,78,0.00,,---,0.00,VWS V14.01,2013-03-27 01:53:00,
2013-03-26 20:54:00,23.0,17.2,29.03,WSW,248,2.9,2.9,78,0.00,,---,0.00,VWS V14.01,2013-03-27 01:54:00,
2013-03-26 20:55:00,23.0,17.2,29.03,WSW,248,2.5,2.9,78,0.00,,---,0.00,VWS V14.01,2013-03-27 01:55:00,
2013-03-26 20:56:00,23.0,17.5,29.03,WSW,248,2.0,2.5,79,0.00,,---,0.00,VWS V14.01,2013-03-27 01:56:00,
2013-03-26 20:57:00,23.0,17.5,29.03,WSW,248,1.6,2.2,79,0.00,,---,0.00,VWS V14.01,2013-03-27 01:57:00,
2013-03-26 20:58:00,23.0,17.5,29.03,WSW,248,2.0,2.2,79,0.00,,---,0.00,VWS V14.01,2013-03-27 01:58:00,
2013-03-26 20:59:00,23.0,17.5,29.03,WSW,248,1.1,2.0,79,0.00,,---,0.00,VWS V14.01,2013-03-27 01:59:00,
2013-03-26 21:00:00,23.0,17.5,29.03,WSW,248,1.1,1.1,79,0.00,,---,0.00,VWS V14.01,2013-03-27 02:00:00,
2013-03-26 21:01:00,23.0,17.5,29.03,WSW,248,0.0,1.1,79,0.00,,---,0.00,VWS V14.01,2013-03-27 02:01:00,
2013-03-26 21:02:00,22.8,17.3,29.03,WSW,248,0.0,0.0,79,0.00,,---,0.00,VWS V14.01,2013-03-27 02:02:00,
2013-03-26 21:03:00,22.8,17.3,29.03,WSW,248,0.0,0.0,79,0.00,,---,0.00,VWS V14.01,2013-03-27 02:03:00,
2013-03-26 21:04:00,22.8,17.3,29.03,WSW,248,0.0,0.0,79,0.00,,---,0.00,VWS V14.01,2013-03-27 02:04:00,
2013-03-26 21:05:00,22.8,17.3,29.03,WSW,248,0.0,0.0,79,0.00,,---,0.00,VWS V14.01,2013-03-27 02:05:00,
2013-03-26 21:06:00,22.8,17.3,29.03,WSW,248,0.0,0.0,79,0.00,,---,0.00,VWS V14.01,2013-03-27 02:06:00,
2013-03-26 21:07:00,22.8,17.3,29.03,WSW,248,0.0,0.0,79,0.00,,---,0.00,VWS V14.01,2013-03-27 02:07:00,
2013-03-26 21:08:00,22.8,17.3,29.03,WSW,248,0.0,0.0,79,0.00,,---,0.00,VWS V14.01,2013-03-27 02:08:00,
2013-03-26 21:09:00,22.8,17.3,29.03,WSW,248,0.0,0.0,79,0.00,,---,0.00,VWS V14.01,2013-03-27 02:09:00,
2013-03-26 21:10:00,22.8,17.3,29.03,WSW,248,0.0,0.0,79,0.00,,---,0.00,VWS V14.01,2013-03-27 02:10:00,
2013-03-26 21:12:00,22.6,17.1,29.03,WSW,248,0.0,0.0,79,0.00,,---,0.00,VWS V14.01,2013-03-27 02:12:00,
2013-03-26 21:13:00,22.6,17.1,29.03,WSW,248,0.0,0.0,79,0.00,,---,0.00,VWS V14.01,2013-03-27 02:13:00,
2013-03-26 21:14:00,22.6,17.1,29.03,WSW,248,0.0,0.0,79,0.00,,---,0.00,VWS V14.01,2013-03-27 02:14:00,
2013-03-26 21:15:00,22.6,17.1,29.03,WSW,248,0.0,0.0,79,0.00,,---,0.00,VWS V14.01,2013-03-27 02:15:00,
2013-03-26 21:16:00,22.5,16.9,29.03,WSW,248,0.0,0.0,79,0.00,,---,0.00,VWS V14.01,2013-03-27 02:16:00,
2013-03-26 21:17:00,22.5,16.9,29.03,WSW,248,0.0,0.0,79,0.00,,---,0.00,VWS V14.01,2013-03-27 02:17:00,
2013-03-26 21:18:00,22.5,16.9,29.03,WSW,248,0.0,0.0,79,0.00,,---,0.00,VWS V14.01,2013-03-27 02:18:00,
2013-03-26 21:19:00,22.5,16.9,29.03,WSW,248,0.0,0.0,79,0.00,,---,0.00,VWS V14.01,2013-03-27 02:19:00,
2013-03-26 21:20:00,22.3,16.8,29.03,WSW,248,0.0,0.0,79,0.00,,---,0.00,VWS V14.01,2013-03-27 02:20:00,
2013-03-26 21:21:00,22.3,16.8,29.03,WSW,248,0.0,0.0,79,0.00,,---,0.00,VWS V14.01,2013-03-27 02:21:00,
2013-03-26 21:22:00,22.3,16.8,29.03,WSW,248,0.0,0.0,79,0.00,,---,0.00,VWS V14.01,2013-03-27 02:22:00,
2013-03-26 21:23:00,22.3,16.8,29.03,WSW,248,0.0,0.0,79,0.00,,---,0.00,VWS V14.01,2013-03-27 02:23:00,
2013-03-26 21:24:00,22.3,16.8,29.03,WSW,248,0.0,0.0,79,0.00,,---,0.00,VWS V14.01,2013-03-27 02:24:00,
2013-03-26 21:25:00,22.3,16.8,29.03,WSW,248,0.0,0.0,79,0.00,,---,0.00,VWS V14.01,2013-03-27 02:25:00,
2013-03-26 21:26:00,22.1,16.6,29.03,WSW,248,0.0,0.0,79,0.00,,---,0.00,VWS V14.01,2013-03-27 02:26:00,
2013-03-26 21:27:00,22.1,16.6,29.03,WSW,248,0.0,0.0,79,0.00,,---,0.00,VWS V14.01,2013-03-27 02:27:00,
2013-03-26 21:28:00,22.1,16.6,29.03,WSW,248,0.0,0.0,79,0.00,,---,0.00,VWS V14.01,2013-03-27 02:28:00,
2013-03-26 21:29:00,22.1,16.6,29.03,WSW,248,0.0,0.0,79,0.00,,---,0.00,VWS V14.01,2013-03-27 02:29:00,
2013-03-26 21:30:00,21.9,16.1,29.03,WSW,248,0.0,0.0,78,0.00,,---,0.00,VWS V14.01,2013-03-27 02:30:00,
2013-03-26 21:31:00,21.9,16.1,29.03,WSW,248,0.0,0.0,78,0.00,,---,0.00,VWS V14.01,2013-03-27 02:31:00,
2013-03-26 21:32:00,21.9,16.1,29.03,WSW,248,0.0,0.0,78,0.00,,---,0.00,VWS V14.01,2013-03-27 02:32:00,
2013-03-26 21:33:00,21.9,16.1,29.03,WSW,248,0.0,0.0,78,0.00,,---,0.00,VWS V14.01,2013-03-27 02:33:00,
2013-03-26 21:34:00,21.7,15.9,29.03,WSW,248,0.0,0.0,78,0.00,,---,0.00,VWS V14.01,2013-03-27 02:34:00,
2013-03-26 21:35:00,21.6,15.8,29.03,WSW,248,0.0,0.0,78,0.00,,---,0.00,VWS V14.01,2013-03-27 02:35:00,
2013-03-26 21:36:00,21.6,15.8,29.03,WSW,248,0.0,0.0,78,0.00,,---,0.00,VWS V14.01,2013-03-27 02:36:00,
2013-03-26 21:37:00,21.4,15.3,29.03,WSW,248,0.0,0.0,77,0.00,,---,0.00,VWS V14.01,2013-03-27 02:37:00,
2013-03-26 21:38:00,21.4,15.3,29.03,WSW,248,0.0,0.0,77,0.00,,---,0.00,VWS V14.01,2013-03-27 02:38:00,
2013-03-26 21:39:00,21.4,15.3,29.03,WSW,248,0.0,0.0,77,0.00,,---,0.00,VWS V14.01,2013-03-27 02:39:00,
2013-03-26 21:40:00,21.2,15.4,29.03,WSW,248,0.0,0.0,78,0.00,,---,0.00,VWS V14.01,2013-03-27 02:40:00,
2013-03-26 21:41:00,21.2,15.4,29.03,WSW,248,0.0,0.0,78,0.00,,---,0.00,VWS V14.01,2013-03-27 02:41:00,
2013-03-26 21:42:00,21.2,15.4,29.03,WSW,248,0.0,0.0,78,0.00,,---,0.00,VWS V14.01,2013-03-27 02:42:00,
2013-03-26 21:43:00,21.0,14.9,29.03,WSW,248,0.0,0.0,77,0.00,,---,0.00,VWS V14.01,2013-03-27 02:43:00,
2013-03-26 21:44:00,20.8,14.8,29.03,WSW,248,0.0,0.0,77,0.00,,---,0.00,VWS V14.01,2013-03-27 02:44:00,
2013-03-26 21:45:00,20.8,14.8,29.03,WSW,248,0.0,0.0,77,0.00,,---,0.00,VWS V14.01,2013-03-27 02:45:00,
2013-03-26 21:46:00,20.8,14.8,29.03,WSW,248,0.0,0.0,77,0.00,,---,0.00,VWS V14.01,2013-03-27 02:46:00,
2013-03-26 21:47:00,20.7,14.6,29.03,WSW,248,0.0,0.0,77,0.00,,---,0.00,VWS V14.01,2013-03-27 02:47:00,
2013-03-26 21:48:00,20.7,14.6,29.03,WSW,248,0.0,0.0,77,0.00,,---,0.00,VWS V14.01,2013-03-27 02:48:00,
2013-03-26 21:49:00,20.5,14.4,29.03,WSW,248,0.0,0.0,77,0.00,,---,0.00,VWS V14.01,2013-03-27 02:49:00,
2013-03-26 21:50:00,20.5,14.4,29.03,WSW,248,0.0,0.0,77,0.00,,---,0.00,VWS V14.01,2013-03-27 02:50:00,
2013-03-26 21:51:00,20.3,14.0,29.03,WSW,248,0.0,0.0,76,0.00,,---,0.00,VWS V14.01,2013-03-27 02:51:00,
2013-03-26 21:52:00,20.3,14.0,29.03,WSW,248,0.0,0.0,76,0.00,,---,0.00,VWS V14.01,2013-03-27 02:52:00,
2013-03-26 21:53:00,20.3,14.0,29.03,WSW,248,0.0,0.0,76,0.00,,---,0.00,VWS V14.01,2013-03-27 02:53:00,
2013-03-26 21:54:00,20.3,14.0,29.03,WSW,248,0.0,0.0,76,0.00,,---,0.00,VWS V14.01,2013-03-27 02:54:00,
2013-03-26 21:55:00,20.1,13.8,29.03,WSW,248,0.0,0.0,76,0.00,,---,0.00,VWS V14.01,2013-03-27 02:55:00,
2013-03-26 21:56:00,20.1,13.8,29.03,WSW,248,0.0,0.0,76,0.00,,---,0.00,VWS V14.01,2013-03-27 02:56:00,
2013-03-26 21:57:00,20.1,13.8,29.03,WSW,248,0.0,0.0,76,0.00,,---,0.00,VWS V14.01,2013-03-27 02:57:00,
2013-03-26 21:58:00,19.9,13.6,29.03,WSW,248,0.0,0.0,76,0.00,,---,0.00,VWS V14.01,2013-03-27 02:58:00,
2013-03-26 21:59:00,19.9,13.9,29.03,WSW,248,0.0,0.0,77,0.00,,---,0.00,VWS V14.01,2013-03-27 02:59:00,
2013-03-26 22:00:00,19.8,13.7,29.03,WSW,248,0.0,0.0,77,0.00,,---,0.00,VWS V14.01,2013-03-27 03:00:00,
2013-03-26 22:01:00,19.8,13.7,29.03,WSW,248,0.0,0.0,77,0.00,,---,0.00,VWS V14.01,2013-03-27 03:01:00,
2013-03-26 22:02:00,19.8,13.7,29.03,WSW,248,0.0,0.0,77,0.00,,---,0.00,VWS V14.01,2013-03-27 03:02:00,
2013-03-26 22:03:00,19.8,13.7,29.03,West,270,0.0,0.0,77,0.00,,---,0.00,VWS V14.01,2013-03-27 03:03:00,
2013-03-26 22:04:00,19.6,13.6,29.03,WNW,292,0.0,0.0,77,0.00,,---,0.00,VWS V14.01,2013-03-27 03:04:00,
2013-03-26 22:05:00,19.6,13.6,29.03,WNW,292,0.0,0.0,77,0.00,,---,0.00,VWS V14.01,2013-03-27 03:05:00,
2013-03-26 22:06:00,19.6,13.6,29.03,WNW,292,0.0,0.0,77,0.00,,---,0.00,VWS V14.01,2013-03-27 03:06:00,
2013-03-26 22:07:00,19.6,13.6,29.03,WNW,292,0.0,0.0,77,0.00,,---,0.00,VWS V14.01,2013-03-27 03:07:00,
2013-03-26 22:08:00,19.6,13.6,29.03,WNW,292,0.0,0.0,77,0.00,,---,0.00,VWS V14.01,2013-03-27 03:08:00,
2013-03-26 22:09:00,19.4,13.4,29.00,WNW,292,0.0,0.0,77,0.00,,---,0.00,VWS V14.01,2013-03-27 03:09:00,
2013-03-26 22:10:00,19.4,13.7,29.00,WNW,292,0.0,0.0,78,0.00,,---,0.00,VWS V14.01,2013-03-27 03:10:00,
2013-03-26 22:11:00,19.4,13.7,29.00,WNW,292,0.0,0.0,78,0.00,,---,0.00,VWS V14.01,2013-03-27 03:11:00,
2013-03-26 22:12:00,19.4,13.7,29.00,WNW,292,0.0,0.0,78,0.00,,---,0.00,VWS V14.01,2013-03-27 03:12:00,
2013-03-26 22:13:00,19.2,13.5,29.00,WNW,292,0.0,0.0,78,0.00,,---,0.00,VWS V14.01,2013-03-27 03:13:00,
2013-03-26 22:14:00,19.2,13.5,29.00,WNW,292,0.0,0.0,78,0.00,,---,0.00,VWS V14.01,2013-03-27 03:14:00,
2013-03-26 22:15:00,19.2,13.5,29.00,WNW,292,0.0,0.0,78,0.00,,---,0.00,VWS V14.01,2013-03-27 03:15:00,
2013-03-26 22:16:00,19.2,13.5,29.00,WNW,292,0.0,0.0,78,0.00,,---,0.00,VWS V14.01,2013-03-27 03:16:00,
2013-03-26 22:17:00,19.0,13.3,29.00,WNW,292,0.0,0.0,78,0.00,,---,0.00,VWS V14.01,2013-03-27 03:17:00,
2013-03-26 22:18:00,19.0,13.3,29.00,WNW,292,0.0,0.0,78,0.00,,---,0.00,VWS V14.01,2013-03-27 03:18:00,
2013-03-26 22:19:00,19.0,13.3,29.00,WNW,292,0.0,0.0,78,0.00,,---,0.00,VWS V14.01,2013-03-27 03:19:00,
2013-03-26 22:20:00,19.0,13.3,29.00,WNW,292,1.1,1.1,78,0.00,,---,0.00,VWS V14.01,2013-03-27 03:20:00,
2013-03-26 22:21:00,19.0,13.3,29.00,WNW,292,1.6,2.0,78,0.00,,---,0.00,VWS V14.01,2013-03-27 03:21:00,
2013-03-26 22:22:00,18.9,13.1,29.00,WNW,292,1.3,1.6,78,0.00,,---,0.00,VWS V14.01,2013-03-27 03:22:00,
2013-03-26 22:23:00,18.9,13.1,29.00,WNW,292,0.0,0.0,78,0.00,,---,0.00,VWS V14.01,2013-03-27 03:23:00,
2013-03-26 22:24:00,18.7,13.0,29.03,WNW,292,0.0,0.0,78,0.00,,---,0.00,VWS V14.01,2013-03-27 03:24:00,
2013-03-26 22:25:00,18.7,13.0,29.03,WNW,292,0.0,0.0,78,0.00,,---,0.00,VWS V14.01,2013-03-27 03:25:00,
2013-03-26 22:26:00,18.7,13.0,29.03,WNW,292,0.0,0.0,78,0.00,,---,0.00,VWS V14.01,2013-03-27 03:26:00,
2013-03-26 22:27:00,18.7,13.0,29.03,WNW,292,0.0,0.0,78,0.00,,---,0.00,VWS V14.01,2013-03-27 03:27:00,
2013-03-26 22:28:00,18.7,13.0,29.03,WNW,292,0.0,0.0,78,0.00,,---,0.00,VWS V14.01,2013-03-27 03:28:00,
2013-03-26 22:29:00,18.5,12.8,29.03,WNW,292,0.0,0.0,78,0.00,,---,0.00,VWS V14.01,2013-03-27 03:29:00,
2013-03-26 22:30:00,18.5,12.8,29.03,WNW,292,0.0,0.0,78,0.00,,---,0.00,VWS V14.01,2013-03-27 03:30:00,
2013-03-26 22:31:00,18.5,12.8,29.03,WNW,292,0.0,0.0,78,0.00,,---,0.00,VWS V14.01,2013-03-27 03:31:00,
2013-03-26 22:32:00,18.5,12.8,29.03,WNW,292,0.0,0.0,78,0.00,,---,0.00,VWS V14.01,2013-03-27 03:32:00,
2013-03-26 22:33:00,18.5,12.8,29.03,WNW,292,0.0,0.0,78,0.00,,---,0.00,VWS V14.01,2013-03-27 03:33:00,
2013-03-26 22:34:00,18.5,12.8,29.03,WNW,292,0.0,0.0,78,0.00,,---,0.00,VWS V14.01,2013-03-27 03:34:00,
2013-03-26 22:35:00,18.3,12.6,29.03,WNW,292,0.0,0.0,78,0.00,,---,0.00,VWS V14.01,2013-03-27 03:35:00,
2013-03-26 22:36:00,18.3,12.6,29.03,WNW,292,0.0,0.0,78,0.00,,---,0.00,VWS V14.01,2013-03-27 03:36:00,
2013-03-26 22:37:00,18.3,12.6,29.03,WNW,292,2.5,2.5,78,0.00,,---,0.00,VWS V14.01,2013-03-27 03:37:00,
2013-03-26 22:38:00,18.3,12.6,29.03,WNW,292,2.7,2.7,78,0.00,,---,0.00,VWS V14.01,2013-03-27 03:38:00,
2013-03-26 22:39:00,18.3,12.6,29.03,WNW,292,2.5,2.7,78,0.00,,---,0.00,VWS V14.01,2013-03-27 03:39:00,
2013-03-26 22:40:00,18.3,12.6,29.03,WNW,292,2.0,2.5,78,0.00,,---,0.00,VWS V14.01,2013-03-27 03:40:00,
2013-03-26 22:41:00,18.3,12.6,29.03,WNW,292,2.0,2.0,78,0.00,,---,0.00,VWS V14.01,2013-03-27 03:41:00,
2013-03-26 22:42:00,18.3,12.6,29.03,WNW,292,1.6,2.0,78,0.00,,---,0.00,VWS V14.01,2013-03-27 03:42:00,
2013-03-26 22:43:00,18.1,12.4,29.03,WNW,292,1.1,1.6,78,0.00,,---,0.00,VWS V14.01,2013-03-27 03:43:00,
2013-03-26 22:44:00,18.1,12.4,29.03,WNW,292,0.0,1.1,78,0.00,,---,0.00,VWS V14.01,2013-03-27 03:44:00,
2013-03-26 22:45:00,18.0,12.3,29.03,WNW,292,0.0,0.0,78,0.00,,---,0.00,VWS V14.01,2013-03-27 03:45:00,
2013-03-26 22:46:00,18.0,12.6,29.03,WNW,292,0.0,0.0,79,0.00,,---,0.00,VWS V14.01,2013-03-27 03:46:00,
2013-03-26 22:47:00,17.8,12.4,29.03,WNW,292,0.0,0.0,79,0.00,,---,0.00,VWS V14.01,2013-03-27 03:47:00,
2013-03-26 22:48:00,17.8,12.4,29.03,WNW,292,0.0,0.0,79,0.00,,---,0.00,VWS V14.01,2013-03-27 03:48:00,
2013-03-26 22:49:00,17.8,12.4,29.03,WNW,292,0.0,0.0,79,0.00,,---,0.00,VWS V14.01,2013-03-27 03:49:00,
2013-03-26 22:50:00,17.8,12.4,29.03,WNW,292,0.0,0.0,79,0.00,,---,0.00,VWS V14.01,2013-03-27 03:50:00,
2013-03-26 22:51:00,17.6,12.2,29.03,WNW,292,0.0,0.0,79,0.00,,---,0.00,VWS V14.01,2013-03-27 03:51:00,
2013-03-26 22:52:00,17.6,12.2,29.03,WNW,292,0.0,0.0,79,0.00,,---,0.00,VWS V14.01,2013-03-27 03:52:00,
2013-03-26 22:53:00,17.6,12.2,29.03,WNW,292,0.0,0.0,79,0.00,,---,0.00,VWS V14.01,2013-03-27 03:53:00,
2013-03-26 22:54:00,17.6,12.2,29.03,WNW,292,0.0,0.0,79,0.00,,---,0.00,VWS V14.01,2013-03-27 03:54:00,
2013-03-26 22:55:00,17.6,12.2,29.03,WNW,292,0.0,0.0,79,0.00,,---,0.00,VWS V14.01,2013-03-27 03:55:00,
2013-03-26 22:56:00,17.6,12.2,29.03,WNW,292,0.0,0.0,79,0.00,,---,0.00,VWS V14.01,2013-03-27 03:56:00,
2013-03-26 22:57:00,17.6,12.2,29.03,WNW,292,0.0,0.0,79,0.00,,---,0.00,VWS V14.01,2013-03-27 03:57:00,
2013-03-26 22:58:00,17.6,12.2,29.03,WNW,292,0.0,0.0,79,0.00,,---,0.00,VWS V14.01,2013-03-27 03:58:00,
2013-03-26 22:59:00,17.6,12.2,29.03,WNW,292,0.0,0.0,79,0.00,,---,0.00,VWS V14.01,2013-03-27 03:59:00,
2013-03-26 23:00:00,17.6,12.2,29.03,WNW,292,0.0,0.0,79,0.00,,---,0.00,VWS V14.01,2013-03-27 04:00:00,
2013-03-26 23:01:00,17.6,12.2,29.03,WNW,292,0.0,0.0,79,0.00,,---,0.00,VWS V14.01,2013-03-27 04:01:00,
2013-03-26 23:02:00,17.6,12.2,29.03,WNW,292,0.0,0.0,79,0.00,,---,0.00,VWS V14.01,2013-03-27 04:02:00,
2013-03-26 23:03:00,17.4,12.0,29.03,WNW,292,0.0,0.0,79,0.00,,---,0.00,VWS V14.01,2013-03-27 04:03:00,
2013-03-26 23:04:00,17.4,12.0,29.03,WNW,292,0.0,0.0,79,0.00,,---,0.00,VWS V14.01,2013-03-27 04:04:00,
2013-03-26 23:05:00,17.4,12.0,29.03,WNW,292,0.0,0.0,79,0.00,,---,0.00,VWS V14.01,2013-03-27 04:05:00,
2013-03-26 23:06:00,17.4,12.0,29.03,WNW,292,0.0,0.0,79,0.00,,---,0.00,VWS V14.01,2013-03-27 04:06:00,
2013-03-26 23:07:00,17.4,12.0,29.03,WNW,292,0.0,0.0,79,0.00,,---,0.00,VWS V14.01,2013-03-27 04:07:00,
2013-03-26 23:08:00,17.4,12.0,29.03,NW,315,0.0,0.0,79,0.00,,---,0.00,VWS V14.01,2013-03-27 04:08:00,
2013-03-26 23:09:00,16.9,11.5,29.03,NE,45,1.1,1.1,79,0.00,,---,0.00,VWS V14.01,2013-03-27 04:09:00,
2013-03-26 23:10:00,16.7,11.3,29.03,NE,45,2.0,2.0,79,0.00,,---,0.00,VWS V14.01,2013-03-27 04:10:00,
2013-03-26 23:11:00,16.7,11.3,29.03,NE,45,1.6,2.0,79,0.00,,---,0.00,VWS V14.01,2013-03-27 04:11:00,
2013-03-26 23:12:00,16.5,11.2,29.03,NE,45,0.0,1.6,79,0.00,,---,0.00,VWS V14.01,2013-03-27 04:12:00,
2013-03-26 23:13:00,16.3,11.0,29.03,NE,45,0.0,0.0,79,0.00,,---,0.00,VWS V14.01,2013-03-27 04:13:00,
2013-03-26 23:14:00,16.2,10.8,29.03,NNW,338,0.0,0.0,79,0.00,,---,0.00,VWS V14.01,2013-03-27 04:14:00,
2013-03-26 23:15:00,16.2,10.8,29.03,NNW,338,0.0,0.0,79,0.00,,---,0.00,VWS V14.01,2013-03-27 04:15:00,
2013-03-26 23:16:00,16.2,10.8,29.03,NNW,338,0.0,0.0,79,0.00,,---,0.00,VWS V14.01,2013-03-27 04:16:00,
2013-03-26 23:17:00,16.2,10.8,29.03,NNW,338,0.0,0.0,79,0.00,,---,0.00,VWS V14.01,2013-03-27 04:17:00,
2013-03-26 23:18:00,16.2,10.8,29.03,NNW,338,0.0,0.0,79,0.00,,---,0.00,VWS V14.01,2013-03-27 04:18:00,
2013-03-26 23:19:00,16.2,10.5,29.03,NNW,338,0.0,0.0,78,0.00,,---,0.00,VWS V14.01,2013-03-27 04:19:00,
2013-03-26 23:20:00,16.2,10.5,29.03,NNW,338,0.0,0.0,78,0.00,,---,0.00,VWS V14.01,2013-03-27 04:20:00,
2013-03-26 23:21:00,16.2,10.5,29.03,NNW,338,0.0,0.0,78,0.00,,---,0.00,VWS V14.01,2013-03-27 04:21:00,
2013-03-26 23:22:00,16.2,10.5,29.03,NNW,338,0.0,0.0,78,0.00,,---,0.00,VWS V14.01,2013-03-27 04:22:00,
2013-03-26 23:23:00,16.2,10.5,29.03,NNW,338,0.0,0.0,78,0.00,,---,0.00,VWS V14.01,2013-03-27 04:23:00,
2013-03-26 23:24:00,16.2,10.5,29.03,NNW,338,0.0,0.0,78,0.00,,---,0.00,VWS V14.01,2013-03-27 04:24:00,
2013-03-26 23:25:00,16.0,10.4,29.03,NNW,338,0.0,0.0,78,0.00,,---,0.00,VWS V14.01,2013-03-27 04:25:00,
2013-03-26 23:26:00,16.0,10.4,29.03,NNW,338,0.0,0.0,78,0.00,,---,0.00,VWS V14.01,2013-03-27 04:26:00,
2013-03-26 23:27:00,16.0,10.4,29.03,NNW,338,0.0,0.0,78,0.00,,---,0.00,VWS V14.01,2013-03-27 04:27:00,
2013-03-26 23:28:00,16.0,10.4,29.03,NNW,338,0.0,0.0,78,0.00,,---,0.00,VWS V14.01,2013-03-27 04:28:00,
2013-03-26 23:29:00,16.0,10.6,29.03,NNW,338,0.0,0.0,79,0.00,,---,0.00,VWS V14.01,2013-03-27 04:29:00,
2013-03-26 23:30:00,16.0,10.6,29.03,NNW,338,0.0,0.0,79,0.00,,---,0.00,VWS V14.01,2013-03-27 04:30:00,
2013-03-26 23:31:00,16.0,10.6,29.03,NNW,338,0.0,0.0,79,0.00,,---,0.00,VWS V14.01,2013-03-27 04:31:00,
2013-03-26 23:32:00,16.0,10.6,29.03,NNW,338,0.0,0.0,79,0.00,,---,0.00,VWS V14.01,2013-03-27 04:32:00,
2013-03-26 23:33:00,16.0,10.6,29.03,NNW,338,0.0,0.0,79,0.00,,---,0.00,VWS V14.01,2013-03-27 04:33:00,
2013-03-26 23:34:00,16.0,10.6,29.03,NNW,338,0.0,0.0,79,0.00,,---,0.00,VWS V14.01,2013-03-27 04:34:00,
2013-03-26 23:35:00,16.0,10.6,29.03,NNW,338,0.0,0.0,79,0.00,,---,0.00,VWS V14.01,2013-03-27 04:35:00,
2013-03-26 23:36:00,16.0,10.6,29.03,NNW,338,0.0,0.0,79,0.00,,---,0.00,VWS V14.01,2013-03-27 04:36:00,
2013-03-26 23:37:00,16.0,10.6,29.03,NNW,338,0.0,0.0,79,0.00,,---,0.00,VWS V14.01,2013-03-27 04:37:00,
2013-03-26 23:38:00,16.0,10.6,29.03,NNW,338,0.0,0.0,79,0.00,,---,0.00,VWS V14.01,2013-03-27 04:38:00,
2013-03-26 23:39:00,16.0,10.6,29.03,NNW,338,0.0,0.0,79,0.00,,---,0.00,VWS V14.01,2013-03-27 04:39:00,
2013-03-26 23:40:00,16.0,10.6,29.03,NNW,338,0.0,0.0,79,0.00,,---,0.00,VWS V14.01,2013-03-27 04:40:00,
2013-03-26 23:41:00,16.0,10.6,29.03,NNE,22,0.0,0.0,79,0.00,,---,0.00,VWS V14.01,2013-03-27 04:41:00,
2013-03-26 23:42:00,15.8,10.7,29.03,NNE,22,0.0,0.0,80,0.00,,---,0.00,VWS V14.01,2013-03-27 04:42:00,
2013-03-26 23:43:00,15.8,10.7,29.03,NNE,22,0.0,0.0,80,0.00,,---,0.00,VWS V14.01,2013-03-27 04:43:00,
2013-03-26 23:44:00,15.8,10.7,29.03,NNE,22,0.0,0.0,80,0.00,,---,0.00,VWS V14.01,2013-03-27 04:44:00,
2013-03-26 23:45:00,15.8,10.7,29.03,NNE,22,0.0,0.0,80,0.00,,---,0.00,VWS V14.01,2013-03-27 04:45:00,
2013-03-26 23:46:00,15.6,10.6,29.03,NE,45,2.0,2.0,80,0.00,,---,0.00,VWS V14.01,2013-03-27 04:46:00,
2013-03-26 23:47:00,15.6,10.6,29.03,NE,45,2.0,2.0,80,0.00,,---,0.00,VWS V14.01,2013-03-27 04:47:00,
2013-03-26 23:48:00,15.4,10.4,29.03,NE,45,2.0,2.0,80,0.00,,---,0.00,VWS V14.01,2013-03-27 04:48:00,
2013-03-26 23:49:00,15.4,10.4,29.03,NE,45,2.0,2.0,80,0.00,,---,0.00,VWS V14.01,2013-03-27 04:49:00,
2013-03-26 23:50:00,15.3,10.2,29.03,ENE,68,2.7,2.7,80,0.00,,---,0.00,VWS V14.01,2013-03-27 04:50:00,
2013-03-26 23:51:00,15.3,10.2,29.03,ENE,68,2.7,2.7,80,0.00,,---,0.00,VWS V14.01,2013-03-27 04:51:00,
2013-03-26 23:52:00,15.3,10.2,29.03,ENE,68,2.7,2.9,80,0.00,,---,0.00,VWS V14.01,2013-03-27 04:52:00,
2013-03-26 23:53:00,15.3,10.5,29.03,ENE,68,2.7,3.1,81,0.00,,---,0.00,VWS V14.01,2013-03-27 04:53:00,
2013-03-26 23:54:00,15.1,10.3,29.03,ENE,68,2.9,2.9,81,0.00,,---,0.00,VWS V14.01,2013-03-27 04:54:00,
2013-03-26 23:55:00,14.9,10.1,29.03,ENE,68,3.1,3.1,81,0.00,,---,0.00,VWS V14.01,2013-03-27 04:55:00,
2013-03-26 23:56:00,14.9,10.1,29.03,ENE,68,2.9,3.1,81,0.00,,---,0.00,VWS V14.01,2013-03-27 04:56:00,
2013-03-26 23:57:00,14.9,10.1,29.03,ENE,68,2.9,2.9,81,0.00,,---,0.00,VWS V14.01,2013-03-27 04:57:00,
2013-03-26 23:58:00,14.9,10.1,29.03,ENE,68,3.1,3.1,81,0.00,,---,0.00,VWS V14.01,2013-03-27 04:58:00,
2013-03-26 23:59:00,14.5,9.8,29.03,ENE,68,2.7,3.1,81,0.00,,---,0.00,VWS V14.01,2013-03-27 04:59:00,